<?xml version="1.0" encoding="UTF-8" standalone="no" ?>
<gpx xmlns="http://www.topografix.com/GPX/1/1" xmlns:xsi="http://www.w3.org/2001/XMLSchema-instance" xsi:schemaLocation="http://www.topografix.com/GPX/1/1 http://www.topografix.com/GPX/1/1/gpx.xsd" version="1.1" creator="VisuGPX - https://www.visugpx.com">
  <metadata>
    <name>2024-11-17  Randonnée TwoNav</name>
    <desc><![CDATA[2024-11-17_100838.trk]]></desc>
  </metadata>
  <trk>
    <name><![CDATA[2024-11-17  Randonnée TwoNav_1]]></name>
    <trkseg>
      <trkpt lat="48.19065" lon="6.78471">
        <ele>447.9</ele>
        <time>2024-11-17T09:08:38Z</time>
      </trkpt>
      <trkpt lat="48.19064" lon="6.7847">
        <ele>448.1</ele>
        <time>2024-11-17T09:08:39Z</time>
      </trkpt>
      <trkpt lat="48.19061" lon="6.7847">
        <ele>448.3</ele>
        <time>2024-11-17T09:08:40Z</time>
      </trkpt>
      <trkpt lat="48.19059" lon="6.78469">
        <ele>448.4</ele>
        <time>2024-11-17T09:08:41Z</time>
      </trkpt>
      <trkpt lat="48.19057" lon="6.78469">
        <ele>448.4</ele>
        <time>2024-11-17T09:08:42Z</time>
      </trkpt>
      <trkpt lat="48.19055" lon="6.78468">
        <ele>448.4</ele>
        <time>2024-11-17T09:08:43Z</time>
      </trkpt>
      <trkpt lat="48.19053" lon="6.78468">
        <ele>448.4</ele>
        <time>2024-11-17T09:08:44Z</time>
      </trkpt>
      <trkpt lat="48.19051" lon="6.78467">
        <ele>448.5</ele>
        <time>2024-11-17T09:08:45Z</time>
      </trkpt>
      <trkpt lat="48.19048" lon="6.78467">
        <ele>448.5</ele>
        <time>2024-11-17T09:08:46Z</time>
      </trkpt>
      <trkpt lat="48.19046" lon="6.78467">
        <ele>448.5</ele>
        <time>2024-11-17T09:08:55Z</time>
      </trkpt>
      <trkpt lat="48.19044" lon="6.78466">
        <ele>448.5</ele>
        <time>2024-11-17T09:09:04Z</time>
      </trkpt>
      <trkpt lat="48.19042" lon="6.78466">
        <ele>448.5</ele>
        <time>2024-11-17T09:09:04Z</time>
      </trkpt>
      <trkpt lat="48.19033" lon="6.78462">
        <ele>448.6</ele>
        <time>2024-11-17T09:09:13Z</time>
      </trkpt>
      <trkpt lat="48.19024" lon="6.78457">
        <ele>448.7</ele>
        <time>2024-11-17T09:09:21Z</time>
      </trkpt>
      <trkpt lat="48.19016" lon="6.78447">
        <ele>448.8</ele>
        <time>2024-11-17T09:09:30Z</time>
      </trkpt>
      <trkpt lat="48.19008" lon="6.78439">
        <ele>448.9</ele>
        <time>2024-11-17T09:09:39Z</time>
      </trkpt>
      <trkpt lat="48.19" lon="6.78431">
        <ele>449.1</ele>
        <time>2024-11-17T09:09:48Z</time>
      </trkpt>
      <trkpt lat="48.18991" lon="6.78425">
        <ele>449.2</ele>
        <time>2024-11-17T09:09:57Z</time>
      </trkpt>
      <trkpt lat="48.18983" lon="6.78417">
        <ele>449.3</ele>
        <time>2024-11-17T09:10:05Z</time>
      </trkpt>
      <trkpt lat="48.18974" lon="6.78411">
        <ele>449.3</ele>
        <time>2024-11-17T09:10:13Z</time>
      </trkpt>
      <trkpt lat="48.18966" lon="6.78403">
        <ele>449.4</ele>
        <time>2024-11-17T09:10:21Z</time>
      </trkpt>
      <trkpt lat="48.18958" lon="6.78395">
        <ele>449.5</ele>
        <time>2024-11-17T09:10:29Z</time>
      </trkpt>
      <trkpt lat="48.18949" lon="6.78388">
        <ele>449.6</ele>
        <time>2024-11-17T09:10:37Z</time>
      </trkpt>
      <trkpt lat="48.18942" lon="6.7838">
        <ele>449.6</ele>
        <time>2024-11-17T09:10:46Z</time>
      </trkpt>
      <trkpt lat="48.18933" lon="6.78372">
        <ele>449.7</ele>
        <time>2024-11-17T09:10:55Z</time>
      </trkpt>
      <trkpt lat="48.18925" lon="6.78366">
        <ele>449.7</ele>
        <time>2024-11-17T09:11:03Z</time>
      </trkpt>
      <trkpt lat="48.18916" lon="6.78362">
        <ele>449.7</ele>
        <time>2024-11-17T09:11:11Z</time>
      </trkpt>
      <trkpt lat="48.18907" lon="6.7836">
        <ele>449.7</ele>
        <time>2024-11-17T09:11:19Z</time>
      </trkpt>
      <trkpt lat="48.18898" lon="6.7836">
        <ele>449.8</ele>
        <time>2024-11-17T09:11:27Z</time>
      </trkpt>
      <trkpt lat="48.18888" lon="6.78364">
        <ele>449.9</ele>
        <time>2024-11-17T09:11:36Z</time>
      </trkpt>
      <trkpt lat="48.1888" lon="6.78371">
        <ele>450</ele>
        <time>2024-11-17T09:11:44Z</time>
      </trkpt>
      <trkpt lat="48.18873" lon="6.78382">
        <ele>450</ele>
        <time>2024-11-17T09:11:52Z</time>
      </trkpt>
      <trkpt lat="48.18868" lon="6.78395">
        <ele>450.1</ele>
        <time>2024-11-17T09:12:00Z</time>
      </trkpt>
      <trkpt lat="48.18863" lon="6.78406">
        <ele>450.2</ele>
        <time>2024-11-17T09:12:08Z</time>
      </trkpt>
      <trkpt lat="48.18857" lon="6.78418">
        <ele>450.3</ele>
        <time>2024-11-17T09:12:17Z</time>
      </trkpt>
      <trkpt lat="48.1885" lon="6.78428">
        <ele>450.2</ele>
        <time>2024-11-17T09:12:25Z</time>
      </trkpt>
      <trkpt lat="48.18844" lon="6.78439">
        <ele>450</ele>
        <time>2024-11-17T09:12:33Z</time>
      </trkpt>
      <trkpt lat="48.18838" lon="6.78449">
        <ele>449.9</ele>
        <time>2024-11-17T09:12:41Z</time>
      </trkpt>
      <trkpt lat="48.1883" lon="6.78459">
        <ele>449.8</ele>
        <time>2024-11-17T09:12:50Z</time>
      </trkpt>
      <trkpt lat="48.18823" lon="6.78468">
        <ele>449.8</ele>
        <time>2024-11-17T09:12:58Z</time>
      </trkpt>
      <trkpt lat="48.18816" lon="6.78477">
        <ele>450</ele>
        <time>2024-11-17T09:13:06Z</time>
      </trkpt>
      <trkpt lat="48.18808" lon="6.78485">
        <ele>450.2</ele>
        <time>2024-11-17T09:13:14Z</time>
      </trkpt>
      <trkpt lat="48.18801" lon="6.78494">
        <ele>450.4</ele>
        <time>2024-11-17T09:13:22Z</time>
      </trkpt>
      <trkpt lat="48.18795" lon="6.78503">
        <ele>450.7</ele>
        <time>2024-11-17T09:13:30Z</time>
      </trkpt>
      <trkpt lat="48.18788" lon="6.78514">
        <ele>451.1</ele>
        <time>2024-11-17T09:13:38Z</time>
      </trkpt>
      <trkpt lat="48.18782" lon="6.78523">
        <ele>451.5</ele>
        <time>2024-11-17T09:13:46Z</time>
      </trkpt>
      <trkpt lat="48.18775" lon="6.78533">
        <ele>452.1</ele>
        <time>2024-11-17T09:13:54Z</time>
      </trkpt>
      <trkpt lat="48.18767" lon="6.78543">
        <ele>452.8</ele>
        <time>2024-11-17T09:14:02Z</time>
      </trkpt>
      <trkpt lat="48.1876" lon="6.78552">
        <ele>453.5</ele>
        <time>2024-11-17T09:14:09Z</time>
      </trkpt>
      <trkpt lat="48.18753" lon="6.78563">
        <ele>454.4</ele>
        <time>2024-11-17T09:14:18Z</time>
      </trkpt>
      <trkpt lat="48.18747" lon="6.78574">
        <ele>455.2</ele>
        <time>2024-11-17T09:14:27Z</time>
      </trkpt>
      <trkpt lat="48.18739" lon="6.78583">
        <ele>456.1</ele>
        <time>2024-11-17T09:14:36Z</time>
      </trkpt>
      <trkpt lat="48.18732" lon="6.78593">
        <ele>456.9</ele>
        <time>2024-11-17T09:14:44Z</time>
      </trkpt>
      <trkpt lat="48.18726" lon="6.78604">
        <ele>457.8</ele>
        <time>2024-11-17T09:14:52Z</time>
      </trkpt>
      <trkpt lat="48.18718" lon="6.78613">
        <ele>458.5</ele>
        <time>2024-11-17T09:15:01Z</time>
      </trkpt>
      <trkpt lat="48.18711" lon="6.78621">
        <ele>459.3</ele>
        <time>2024-11-17T09:15:09Z</time>
      </trkpt>
      <trkpt lat="48.18703" lon="6.78631">
        <ele>460</ele>
        <time>2024-11-17T09:15:18Z</time>
      </trkpt>
      <trkpt lat="48.18696" lon="6.78641">
        <ele>460.7</ele>
        <time>2024-11-17T09:15:27Z</time>
      </trkpt>
      <trkpt lat="48.18688" lon="6.78649">
        <ele>461.4</ele>
        <time>2024-11-17T09:15:35Z</time>
      </trkpt>
      <trkpt lat="48.18679" lon="6.78656">
        <ele>461.9</ele>
        <time>2024-11-17T09:15:43Z</time>
      </trkpt>
      <trkpt lat="48.1867" lon="6.78659">
        <ele>462</ele>
        <time>2024-11-17T09:15:51Z</time>
      </trkpt>
      <trkpt lat="48.18661" lon="6.78663">
        <ele>461.9</ele>
        <time>2024-11-17T09:15:59Z</time>
      </trkpt>
      <trkpt lat="48.18651" lon="6.78666">
        <ele>461.8</ele>
        <time>2024-11-17T09:16:07Z</time>
      </trkpt>
      <trkpt lat="48.18642" lon="6.78668">
        <ele>461.8</ele>
        <time>2024-11-17T09:16:15Z</time>
      </trkpt>
      <trkpt lat="48.18633" lon="6.78673">
        <ele>461.8</ele>
        <time>2024-11-17T09:16:24Z</time>
      </trkpt>
      <trkpt lat="48.18624" lon="6.78677">
        <ele>461.9</ele>
        <time>2024-11-17T09:16:32Z</time>
      </trkpt>
      <trkpt lat="48.18614" lon="6.78679">
        <ele>462</ele>
        <time>2024-11-17T09:16:40Z</time>
      </trkpt>
      <trkpt lat="48.18605" lon="6.78678">
        <ele>462.1</ele>
        <time>2024-11-17T09:16:48Z</time>
      </trkpt>
      <trkpt lat="48.18596" lon="6.78675">
        <ele>462.2</ele>
        <time>2024-11-17T09:16:56Z</time>
      </trkpt>
      <trkpt lat="48.18587" lon="6.78674">
        <ele>462.3</ele>
        <time>2024-11-17T09:17:03Z</time>
      </trkpt>
      <trkpt lat="48.18577" lon="6.78674">
        <ele>462.4</ele>
        <time>2024-11-17T09:17:11Z</time>
      </trkpt>
      <trkpt lat="48.18568" lon="6.78675">
        <ele>462.5</ele>
        <time>2024-11-17T09:17:19Z</time>
      </trkpt>
      <trkpt lat="48.18558" lon="6.78678">
        <ele>462.6</ele>
        <time>2024-11-17T09:17:27Z</time>
      </trkpt>
      <trkpt lat="48.18549" lon="6.7868">
        <ele>462.7</ele>
        <time>2024-11-17T09:17:35Z</time>
      </trkpt>
      <trkpt lat="48.18539" lon="6.78683">
        <ele>462.9</ele>
        <time>2024-11-17T09:17:43Z</time>
      </trkpt>
      <trkpt lat="48.1853" lon="6.78688">
        <ele>463</ele>
        <time>2024-11-17T09:17:51Z</time>
      </trkpt>
      <trkpt lat="48.18522" lon="6.78692">
        <ele>463.2</ele>
        <time>2024-11-17T09:17:59Z</time>
      </trkpt>
      <trkpt lat="48.18512" lon="6.78697">
        <ele>463.5</ele>
        <time>2024-11-17T09:18:07Z</time>
      </trkpt>
      <trkpt lat="48.18503" lon="6.787">
        <ele>463.7</ele>
        <time>2024-11-17T09:18:15Z</time>
      </trkpt>
      <trkpt lat="48.18494" lon="6.787">
        <ele>463.9</ele>
        <time>2024-11-17T09:18:24Z</time>
      </trkpt>
      <trkpt lat="48.18491" lon="6.78686">
        <ele>463.9</ele>
        <time>2024-11-17T09:18:32Z</time>
      </trkpt>
      <trkpt lat="48.18489" lon="6.78672">
        <ele>463.8</ele>
        <time>2024-11-17T09:18:40Z</time>
      </trkpt>
      <trkpt lat="48.18486" lon="6.78658">
        <ele>463.9</ele>
        <time>2024-11-17T09:18:48Z</time>
      </trkpt>
      <trkpt lat="48.1848" lon="6.78648">
        <ele>464</ele>
        <time>2024-11-17T09:18:56Z</time>
      </trkpt>
      <trkpt lat="48.1847" lon="6.78643">
        <ele>464.2</ele>
        <time>2024-11-17T09:19:04Z</time>
      </trkpt>
      <trkpt lat="48.1846" lon="6.78642">
        <ele>464.5</ele>
        <time>2024-11-17T09:19:12Z</time>
      </trkpt>
      <trkpt lat="48.1845" lon="6.78643">
        <ele>464.8</ele>
        <time>2024-11-17T09:19:20Z</time>
      </trkpt>
      <trkpt lat="48.18441" lon="6.78645">
        <ele>465.3</ele>
        <time>2024-11-17T09:19:28Z</time>
      </trkpt>
      <trkpt lat="48.1843" lon="6.78646">
        <ele>465.8</ele>
        <time>2024-11-17T09:19:37Z</time>
      </trkpt>
      <trkpt lat="48.18422" lon="6.78649">
        <ele>466.4</ele>
        <time>2024-11-17T09:19:44Z</time>
      </trkpt>
      <trkpt lat="48.18412" lon="6.78654">
        <ele>467</ele>
        <time>2024-11-17T09:19:52Z</time>
      </trkpt>
      <trkpt lat="48.18405" lon="6.78663">
        <ele>467.9</ele>
        <time>2024-11-17T09:20:00Z</time>
      </trkpt>
      <trkpt lat="48.18397" lon="6.78673">
        <ele>468.6</ele>
        <time>2024-11-17T09:20:08Z</time>
      </trkpt>
      <trkpt lat="48.1839" lon="6.78682">
        <ele>469.1</ele>
        <time>2024-11-17T09:20:16Z</time>
      </trkpt>
      <trkpt lat="48.18383" lon="6.78693">
        <ele>469.5</ele>
        <time>2024-11-17T09:20:24Z</time>
      </trkpt>
      <trkpt lat="48.18377" lon="6.78702">
        <ele>469.8</ele>
        <time>2024-11-17T09:20:32Z</time>
      </trkpt>
      <trkpt lat="48.18369" lon="6.78712">
        <ele>470.3</ele>
        <time>2024-11-17T09:20:40Z</time>
      </trkpt>
      <trkpt lat="48.18362" lon="6.7872">
        <ele>470.7</ele>
        <time>2024-11-17T09:20:47Z</time>
      </trkpt>
      <trkpt lat="48.18354" lon="6.78728">
        <ele>471.1</ele>
        <time>2024-11-17T09:20:55Z</time>
      </trkpt>
      <trkpt lat="48.18348" lon="6.78739">
        <ele>471.5</ele>
        <time>2024-11-17T09:21:05Z</time>
      </trkpt>
      <trkpt lat="48.1834" lon="6.78748">
        <ele>471.8</ele>
        <time>2024-11-17T09:21:13Z</time>
      </trkpt>
      <trkpt lat="48.18332" lon="6.78757">
        <ele>472.2</ele>
        <time>2024-11-17T09:21:20Z</time>
      </trkpt>
      <trkpt lat="48.18324" lon="6.78765">
        <ele>472.6</ele>
        <time>2024-11-17T09:21:34Z</time>
      </trkpt>
      <trkpt lat="48.18316" lon="6.78771">
        <ele>473.1</ele>
        <time>2024-11-17T09:21:45Z</time>
      </trkpt>
      <trkpt lat="48.18307" lon="6.78778">
        <ele>473.7</ele>
        <time>2024-11-17T09:21:52Z</time>
      </trkpt>
      <trkpt lat="48.18298" lon="6.78786">
        <ele>474.4</ele>
        <time>2024-11-17T09:21:59Z</time>
      </trkpt>
      <trkpt lat="48.1829" lon="6.78794">
        <ele>475.1</ele>
        <time>2024-11-17T09:22:07Z</time>
      </trkpt>
      <trkpt lat="48.18282" lon="6.78802">
        <ele>476</ele>
        <time>2024-11-17T09:22:15Z</time>
      </trkpt>
      <trkpt lat="48.18276" lon="6.78811">
        <ele>477.1</ele>
        <time>2024-11-17T09:22:25Z</time>
      </trkpt>
      <trkpt lat="48.18268" lon="6.78821">
        <ele>478.3</ele>
        <time>2024-11-17T09:22:33Z</time>
      </trkpt>
      <trkpt lat="48.18259" lon="6.78829">
        <ele>479.4</ele>
        <time>2024-11-17T09:22:42Z</time>
      </trkpt>
      <trkpt lat="48.18251" lon="6.78836">
        <ele>480.4</ele>
        <time>2024-11-17T09:22:52Z</time>
      </trkpt>
      <trkpt lat="48.18243" lon="6.78844">
        <ele>481.2</ele>
        <time>2024-11-17T09:23:00Z</time>
      </trkpt>
      <trkpt lat="48.18234" lon="6.7885">
        <ele>482.1</ele>
        <time>2024-11-17T09:23:08Z</time>
      </trkpt>
      <trkpt lat="48.18226" lon="6.78857">
        <ele>483.2</ele>
        <time>2024-11-17T09:23:14Z</time>
      </trkpt>
      <trkpt lat="48.18219" lon="6.78867">
        <ele>484.4</ele>
        <time>2024-11-17T09:23:20Z</time>
      </trkpt>
      <trkpt lat="48.18212" lon="6.78876">
        <ele>485.7</ele>
        <time>2024-11-17T09:23:27Z</time>
      </trkpt>
      <trkpt lat="48.18205" lon="6.78887">
        <ele>487.2</ele>
        <time>2024-11-17T09:23:35Z</time>
      </trkpt>
      <trkpt lat="48.18196" lon="6.78894">
        <ele>488.8</ele>
        <time>2024-11-17T09:23:43Z</time>
      </trkpt>
      <trkpt lat="48.18187" lon="6.78898">
        <ele>490.3</ele>
        <time>2024-11-17T09:23:52Z</time>
      </trkpt>
      <trkpt lat="48.18177" lon="6.78903">
        <ele>491.7</ele>
        <time>2024-11-17T09:23:59Z</time>
      </trkpt>
      <trkpt lat="48.18169" lon="6.78909">
        <ele>492.8</ele>
        <time>2024-11-17T09:24:09Z</time>
      </trkpt>
      <trkpt lat="48.1816" lon="6.78914">
        <ele>493.9</ele>
        <time>2024-11-17T09:24:16Z</time>
      </trkpt>
      <trkpt lat="48.18153" lon="6.78922">
        <ele>494.9</ele>
        <time>2024-11-17T09:24:23Z</time>
      </trkpt>
      <trkpt lat="48.18145" lon="6.7893">
        <ele>496.1</ele>
        <time>2024-11-17T09:24:31Z</time>
      </trkpt>
      <trkpt lat="48.18136" lon="6.78931">
        <ele>497.3</ele>
        <time>2024-11-17T09:24:38Z</time>
      </trkpt>
      <trkpt lat="48.18132" lon="6.78932">
        <ele>497.8</ele>
        <time>2024-11-17T09:24:47Z</time>
      </trkpt>
      <trkpt lat="48.18132" lon="6.78932">
        <ele>497.8</ele>
        <time>2024-11-17T09:24:48Z</time>
      </trkpt>
      <trkpt lat="48.18131" lon="6.78932">
        <ele>497.9</ele>
        <time>2024-11-17T09:25:02Z</time>
      </trkpt>
      <trkpt lat="48.18131" lon="6.78932">
        <ele>498</ele>
        <time>2024-11-17T09:25:03Z</time>
      </trkpt>
      <trkpt lat="48.1813" lon="6.78932">
        <ele>498.1</ele>
        <time>2024-11-17T09:25:04Z</time>
      </trkpt>
      <trkpt lat="48.18121" lon="6.78927">
        <ele>499.3</ele>
        <time>2024-11-17T09:25:13Z</time>
      </trkpt>
      <trkpt lat="48.18114" lon="6.78918">
        <ele>500.5</ele>
        <time>2024-11-17T09:25:22Z</time>
      </trkpt>
      <trkpt lat="48.18104" lon="6.78913">
        <ele>501.8</ele>
        <time>2024-11-17T09:25:28Z</time>
      </trkpt>
      <trkpt lat="48.18095" lon="6.78911">
        <ele>502.9</ele>
        <time>2024-11-17T09:25:36Z</time>
      </trkpt>
      <trkpt lat="48.18086" lon="6.78909">
        <ele>504.1</ele>
        <time>2024-11-17T09:25:45Z</time>
      </trkpt>
      <trkpt lat="48.18077" lon="6.78911">
        <ele>505.3</ele>
        <time>2024-11-17T09:25:52Z</time>
      </trkpt>
      <trkpt lat="48.18068" lon="6.78912">
        <ele>506.5</ele>
        <time>2024-11-17T09:26:00Z</time>
      </trkpt>
      <trkpt lat="48.18058" lon="6.78908">
        <ele>508.1</ele>
        <time>2024-11-17T09:26:07Z</time>
      </trkpt>
      <trkpt lat="48.18048" lon="6.78909">
        <ele>509.7</ele>
        <time>2024-11-17T09:26:15Z</time>
      </trkpt>
      <trkpt lat="48.18039" lon="6.78914">
        <ele>511.2</ele>
        <time>2024-11-17T09:26:24Z</time>
      </trkpt>
      <trkpt lat="48.1803" lon="6.78917">
        <ele>512.8</ele>
        <time>2024-11-17T09:26:31Z</time>
      </trkpt>
      <trkpt lat="48.18021" lon="6.78916">
        <ele>514.3</ele>
        <time>2024-11-17T09:26:44Z</time>
      </trkpt>
      <trkpt lat="48.18012" lon="6.7891">
        <ele>515.7</ele>
        <time>2024-11-17T09:26:52Z</time>
      </trkpt>
      <trkpt lat="48.18012" lon="6.7891">
        <ele>515.7</ele>
        <time>2024-11-17T09:26:54Z</time>
      </trkpt>
      <trkpt lat="48.18012" lon="6.7891">
        <ele>515.7</ele>
        <time>2024-11-17T09:26:55Z</time>
      </trkpt>
      <trkpt lat="48.18012" lon="6.7891">
        <ele>515.7</ele>
        <time>2024-11-17T09:26:56Z</time>
      </trkpt>
      <trkpt lat="48.18011" lon="6.7891">
        <ele>515.8</ele>
        <time>2024-11-17T09:27:17Z</time>
      </trkpt>
      <trkpt lat="48.18011" lon="6.78911">
        <ele>515.9</ele>
        <time>2024-11-17T09:27:18Z</time>
      </trkpt>
      <trkpt lat="48.18016" lon="6.78925">
        <ele>517.3</ele>
        <time>2024-11-17T09:27:26Z</time>
      </trkpt>
      <trkpt lat="48.18012" lon="6.78939">
        <ele>518.6</ele>
        <time>2024-11-17T09:27:35Z</time>
      </trkpt>
      <trkpt lat="48.18005" lon="6.7895">
        <ele>520</ele>
        <time>2024-11-17T09:27:42Z</time>
      </trkpt>
      <trkpt lat="48.18" lon="6.78961">
        <ele>521.3</ele>
        <time>2024-11-17T09:27:52Z</time>
      </trkpt>
      <trkpt lat="48.17991" lon="6.78967">
        <ele>522.9</ele>
        <time>2024-11-17T09:28:00Z</time>
      </trkpt>
      <trkpt lat="48.17986" lon="6.78979">
        <ele>524.5</ele>
        <time>2024-11-17T09:28:08Z</time>
      </trkpt>
      <trkpt lat="48.17981" lon="6.78992">
        <ele>526.1</ele>
        <time>2024-11-17T09:28:17Z</time>
      </trkpt>
      <trkpt lat="48.17973" lon="6.79">
        <ele>527.5</ele>
        <time>2024-11-17T09:28:24Z</time>
      </trkpt>
      <trkpt lat="48.17964" lon="6.79007">
        <ele>528.9</ele>
        <time>2024-11-17T09:28:32Z</time>
      </trkpt>
      <trkpt lat="48.17955" lon="6.7901">
        <ele>530.1</ele>
        <time>2024-11-17T09:28:42Z</time>
      </trkpt>
      <trkpt lat="48.17946" lon="6.79015">
        <ele>531.1</ele>
        <time>2024-11-17T09:28:50Z</time>
      </trkpt>
      <trkpt lat="48.17936" lon="6.79021">
        <ele>532.1</ele>
        <time>2024-11-17T09:28:57Z</time>
      </trkpt>
      <trkpt lat="48.17927" lon="6.79027">
        <ele>532.9</ele>
        <time>2024-11-17T09:29:05Z</time>
      </trkpt>
      <trkpt lat="48.1792" lon="6.79036">
        <ele>533.6</ele>
        <time>2024-11-17T09:29:14Z</time>
      </trkpt>
      <trkpt lat="48.17914" lon="6.79046">
        <ele>534.3</ele>
        <time>2024-11-17T09:29:26Z</time>
      </trkpt>
      <trkpt lat="48.17906" lon="6.79056">
        <ele>535.3</ele>
        <time>2024-11-17T09:29:33Z</time>
      </trkpt>
      <trkpt lat="48.17898" lon="6.79062">
        <ele>536.3</ele>
        <time>2024-11-17T09:29:41Z</time>
      </trkpt>
      <trkpt lat="48.17891" lon="6.79073">
        <ele>537.4</ele>
        <time>2024-11-17T09:29:48Z</time>
      </trkpt>
      <trkpt lat="48.17884" lon="6.79083">
        <ele>538.3</ele>
        <time>2024-11-17T09:29:55Z</time>
      </trkpt>
      <trkpt lat="48.17879" lon="6.79096">
        <ele>539.3</ele>
        <time>2024-11-17T09:30:04Z</time>
      </trkpt>
      <trkpt lat="48.17877" lon="6.7911">
        <ele>540.5</ele>
        <time>2024-11-17T09:30:11Z</time>
      </trkpt>
      <trkpt lat="48.17873" lon="6.79125">
        <ele>541.9</ele>
        <time>2024-11-17T09:30:20Z</time>
      </trkpt>
      <trkpt lat="48.17868" lon="6.79138">
        <ele>543.4</ele>
        <time>2024-11-17T09:30:28Z</time>
      </trkpt>
      <trkpt lat="48.17862" lon="6.7915">
        <ele>544.7</ele>
        <time>2024-11-17T09:30:37Z</time>
      </trkpt>
      <trkpt lat="48.17854" lon="6.7916">
        <ele>545.8</ele>
        <time>2024-11-17T09:30:45Z</time>
      </trkpt>
      <trkpt lat="48.17847" lon="6.79169">
        <ele>546.8</ele>
        <time>2024-11-17T09:30:52Z</time>
      </trkpt>
      <trkpt lat="48.17845" lon="6.79172">
        <ele>547.2</ele>
        <time>2024-11-17T09:30:59Z</time>
      </trkpt>
      <trkpt lat="48.17845" lon="6.79172">
        <ele>547.2</ele>
        <time>2024-11-17T09:31:00Z</time>
      </trkpt>
      <trkpt lat="48.17845" lon="6.79172">
        <ele>547.2</ele>
        <time>2024-11-17T09:31:01Z</time>
      </trkpt>
      <trkpt lat="48.17843" lon="6.79174">
        <ele>547.4</ele>
        <time>2024-11-17T09:31:13Z</time>
      </trkpt>
      <trkpt lat="48.17842" lon="6.79175">
        <ele>547.5</ele>
        <time>2024-11-17T09:31:14Z</time>
      </trkpt>
      <trkpt lat="48.17835" lon="6.79183">
        <ele>548.8</ele>
        <time>2024-11-17T09:31:22Z</time>
      </trkpt>
      <trkpt lat="48.17825" lon="6.79179">
        <ele>549.5</ele>
        <time>2024-11-17T09:31:31Z</time>
      </trkpt>
      <trkpt lat="48.17816" lon="6.79176">
        <ele>550.3</ele>
        <time>2024-11-17T09:31:39Z</time>
      </trkpt>
      <trkpt lat="48.17807" lon="6.79172">
        <ele>551.2</ele>
        <time>2024-11-17T09:31:47Z</time>
      </trkpt>
      <trkpt lat="48.17798" lon="6.79169">
        <ele>552.3</ele>
        <time>2024-11-17T09:31:55Z</time>
      </trkpt>
      <trkpt lat="48.17789" lon="6.79167">
        <ele>553.6</ele>
        <time>2024-11-17T09:32:03Z</time>
      </trkpt>
      <trkpt lat="48.1778" lon="6.79168">
        <ele>554.9</ele>
        <time>2024-11-17T09:32:11Z</time>
      </trkpt>
      <trkpt lat="48.17771" lon="6.79174">
        <ele>556.3</ele>
        <time>2024-11-17T09:32:21Z</time>
      </trkpt>
      <trkpt lat="48.17763" lon="6.79181">
        <ele>557.7</ele>
        <time>2024-11-17T09:32:29Z</time>
      </trkpt>
      <trkpt lat="48.17754" lon="6.79185">
        <ele>558.9</ele>
        <time>2024-11-17T09:32:37Z</time>
      </trkpt>
      <trkpt lat="48.17744" lon="6.79183">
        <ele>560.1</ele>
        <time>2024-11-17T09:32:45Z</time>
      </trkpt>
      <trkpt lat="48.17735" lon="6.79179">
        <ele>561.2</ele>
        <time>2024-11-17T09:32:54Z</time>
      </trkpt>
      <trkpt lat="48.17728" lon="6.79169">
        <ele>562.5</ele>
        <time>2024-11-17T09:33:05Z</time>
      </trkpt>
      <trkpt lat="48.17721" lon="6.79161">
        <ele>563.8</ele>
        <time>2024-11-17T09:33:13Z</time>
      </trkpt>
      <trkpt lat="48.17714" lon="6.79151">
        <ele>565</ele>
        <time>2024-11-17T09:33:23Z</time>
      </trkpt>
      <trkpt lat="48.17707" lon="6.79143">
        <ele>566.3</ele>
        <time>2024-11-17T09:33:33Z</time>
      </trkpt>
      <trkpt lat="48.177" lon="6.79133">
        <ele>567.6</ele>
        <time>2024-11-17T09:33:43Z</time>
      </trkpt>
      <trkpt lat="48.17693" lon="6.79124">
        <ele>569</ele>
        <time>2024-11-17T09:33:54Z</time>
      </trkpt>
      <trkpt lat="48.17684" lon="6.79119">
        <ele>570.5</ele>
        <time>2024-11-17T09:34:03Z</time>
      </trkpt>
      <trkpt lat="48.17676" lon="6.79112">
        <ele>571.9</ele>
        <time>2024-11-17T09:34:11Z</time>
      </trkpt>
      <trkpt lat="48.17666" lon="6.79107">
        <ele>573.3</ele>
        <time>2024-11-17T09:34:19Z</time>
      </trkpt>
      <trkpt lat="48.17658" lon="6.791">
        <ele>574.6</ele>
        <time>2024-11-17T09:34:28Z</time>
      </trkpt>
      <trkpt lat="48.1765" lon="6.79093">
        <ele>575.8</ele>
        <time>2024-11-17T09:34:37Z</time>
      </trkpt>
      <trkpt lat="48.17642" lon="6.79086">
        <ele>576.9</ele>
        <time>2024-11-17T09:34:46Z</time>
      </trkpt>
      <trkpt lat="48.17634" lon="6.79079">
        <ele>578</ele>
        <time>2024-11-17T09:34:54Z</time>
      </trkpt>
      <trkpt lat="48.17626" lon="6.79073">
        <ele>579</ele>
        <time>2024-11-17T09:35:03Z</time>
      </trkpt>
      <trkpt lat="48.17617" lon="6.79067">
        <ele>580.1</ele>
        <time>2024-11-17T09:35:10Z</time>
      </trkpt>
      <trkpt lat="48.17609" lon="6.79062">
        <ele>581.3</ele>
        <time>2024-11-17T09:35:18Z</time>
      </trkpt>
      <trkpt lat="48.176" lon="6.79057">
        <ele>582.6</ele>
        <time>2024-11-17T09:35:26Z</time>
      </trkpt>
      <trkpt lat="48.1759" lon="6.79054">
        <ele>583.9</ele>
        <time>2024-11-17T09:35:35Z</time>
      </trkpt>
      <trkpt lat="48.17581" lon="6.7905">
        <ele>585.2</ele>
        <time>2024-11-17T09:35:43Z</time>
      </trkpt>
      <trkpt lat="48.17573" lon="6.79045">
        <ele>586.5</ele>
        <time>2024-11-17T09:35:50Z</time>
      </trkpt>
      <trkpt lat="48.17563" lon="6.79041">
        <ele>587.9</ele>
        <time>2024-11-17T09:36:02Z</time>
      </trkpt>
      <trkpt lat="48.17554" lon="6.79038">
        <ele>589.3</ele>
        <time>2024-11-17T09:36:13Z</time>
      </trkpt>
      <trkpt lat="48.17545" lon="6.79039">
        <ele>590.4</ele>
        <time>2024-11-17T09:36:25Z</time>
      </trkpt>
      <trkpt lat="48.17535" lon="6.79041">
        <ele>591.5</ele>
        <time>2024-11-17T09:36:34Z</time>
      </trkpt>
      <trkpt lat="48.17526" lon="6.79037">
        <ele>592.5</ele>
        <time>2024-11-17T09:36:43Z</time>
      </trkpt>
      <trkpt lat="48.17516" lon="6.79038">
        <ele>593.5</ele>
        <time>2024-11-17T09:36:52Z</time>
      </trkpt>
      <trkpt lat="48.17507" lon="6.79037">
        <ele>594.4</ele>
        <time>2024-11-17T09:36:59Z</time>
      </trkpt>
      <trkpt lat="48.17497" lon="6.79037">
        <ele>595.4</ele>
        <time>2024-11-17T09:37:06Z</time>
      </trkpt>
      <trkpt lat="48.17487" lon="6.79036">
        <ele>596.3</ele>
        <time>2024-11-17T09:37:14Z</time>
      </trkpt>
      <trkpt lat="48.17478" lon="6.79039">
        <ele>597.2</ele>
        <time>2024-11-17T09:37:24Z</time>
      </trkpt>
      <trkpt lat="48.17469" lon="6.79038">
        <ele>598</ele>
        <time>2024-11-17T09:37:33Z</time>
      </trkpt>
      <trkpt lat="48.1746" lon="6.7904">
        <ele>598.7</ele>
        <time>2024-11-17T09:37:40Z</time>
      </trkpt>
      <trkpt lat="48.17451" lon="6.79048">
        <ele>599.6</ele>
        <time>2024-11-17T09:37:47Z</time>
      </trkpt>
      <trkpt lat="48.17442" lon="6.79053">
        <ele>600.5</ele>
        <time>2024-11-17T09:37:55Z</time>
      </trkpt>
      <trkpt lat="48.17434" lon="6.7906">
        <ele>601.4</ele>
        <time>2024-11-17T09:38:03Z</time>
      </trkpt>
      <trkpt lat="48.17425" lon="6.79063">
        <ele>602.3</ele>
        <time>2024-11-17T09:38:12Z</time>
      </trkpt>
      <trkpt lat="48.17416" lon="6.79065">
        <ele>603.3</ele>
        <time>2024-11-17T09:38:22Z</time>
      </trkpt>
      <trkpt lat="48.17407" lon="6.79062">
        <ele>604.2</ele>
        <time>2024-11-17T09:38:31Z</time>
      </trkpt>
      <trkpt lat="48.17397" lon="6.79059">
        <ele>605.2</ele>
        <time>2024-11-17T09:38:40Z</time>
      </trkpt>
      <trkpt lat="48.17388" lon="6.79057">
        <ele>606.3</ele>
        <time>2024-11-17T09:38:48Z</time>
      </trkpt>
      <trkpt lat="48.17378" lon="6.79056">
        <ele>607.4</ele>
        <time>2024-11-17T09:38:57Z</time>
      </trkpt>
      <trkpt lat="48.17369" lon="6.79056">
        <ele>608.8</ele>
        <time>2024-11-17T09:39:06Z</time>
      </trkpt>
      <trkpt lat="48.17361" lon="6.79063">
        <ele>610.2</ele>
        <time>2024-11-17T09:39:15Z</time>
      </trkpt>
      <trkpt lat="48.17352" lon="6.79068">
        <ele>611.6</ele>
        <time>2024-11-17T09:39:25Z</time>
      </trkpt>
      <trkpt lat="48.17344" lon="6.79075">
        <ele>613</ele>
        <time>2024-11-17T09:39:35Z</time>
      </trkpt>
      <trkpt lat="48.17335" lon="6.7908">
        <ele>614.4</ele>
        <time>2024-11-17T09:39:45Z</time>
      </trkpt>
      <trkpt lat="48.17326" lon="6.79081">
        <ele>615.7</ele>
        <time>2024-11-17T09:39:55Z</time>
      </trkpt>
      <trkpt lat="48.17325" lon="6.79082">
        <ele>615.9</ele>
        <time>2024-11-17T09:40:00Z</time>
      </trkpt>
      <trkpt lat="48.17325" lon="6.79082">
        <ele>615.9</ele>
        <time>2024-11-17T09:40:01Z</time>
      </trkpt>
      <trkpt lat="48.17324" lon="6.79082">
        <ele>616</ele>
        <time>2024-11-17T09:40:09Z</time>
      </trkpt>
      <trkpt lat="48.17323" lon="6.7908">
        <ele>616.1</ele>
        <time>2024-11-17T09:40:10Z</time>
      </trkpt>
      <trkpt lat="48.17323" lon="6.79079">
        <ele>616.2</ele>
        <time>2024-11-17T09:40:11Z</time>
      </trkpt>
      <trkpt lat="48.17317" lon="6.79067">
        <ele>617.3</ele>
        <time>2024-11-17T09:40:20Z</time>
      </trkpt>
      <trkpt lat="48.17313" lon="6.79054">
        <ele>618.1</ele>
        <time>2024-11-17T09:40:28Z</time>
      </trkpt>
      <trkpt lat="48.17308" lon="6.79041">
        <ele>618.9</ele>
        <time>2024-11-17T09:40:36Z</time>
      </trkpt>
      <trkpt lat="48.17304" lon="6.79028">
        <ele>619.5</ele>
        <time>2024-11-17T09:40:44Z</time>
      </trkpt>
      <trkpt lat="48.17299" lon="6.79014">
        <ele>620</ele>
        <time>2024-11-17T09:40:52Z</time>
      </trkpt>
      <trkpt lat="48.17294" lon="6.79002">
        <ele>620.5</ele>
        <time>2024-11-17T09:41:00Z</time>
      </trkpt>
      <trkpt lat="48.17289" lon="6.78989">
        <ele>621</ele>
        <time>2024-11-17T09:41:08Z</time>
      </trkpt>
      <trkpt lat="48.17284" lon="6.78976">
        <ele>621.5</ele>
        <time>2024-11-17T09:41:16Z</time>
      </trkpt>
      <trkpt lat="48.1728" lon="6.78964">
        <ele>622.1</ele>
        <time>2024-11-17T09:41:24Z</time>
      </trkpt>
      <trkpt lat="48.17277" lon="6.78951">
        <ele>622.7</ele>
        <time>2024-11-17T09:41:32Z</time>
      </trkpt>
      <trkpt lat="48.17272" lon="6.78938">
        <ele>623.2</ele>
        <time>2024-11-17T09:41:40Z</time>
      </trkpt>
      <trkpt lat="48.17267" lon="6.78926">
        <ele>623.7</ele>
        <time>2024-11-17T09:41:48Z</time>
      </trkpt>
      <trkpt lat="48.17261" lon="6.78914">
        <ele>624</ele>
        <time>2024-11-17T09:41:57Z</time>
      </trkpt>
      <trkpt lat="48.17257" lon="6.78902">
        <ele>624.2</ele>
        <time>2024-11-17T09:42:05Z</time>
      </trkpt>
      <trkpt lat="48.17251" lon="6.7889">
        <ele>624.3</ele>
        <time>2024-11-17T09:42:14Z</time>
      </trkpt>
      <trkpt lat="48.17245" lon="6.7888">
        <ele>624.4</ele>
        <time>2024-11-17T09:42:22Z</time>
      </trkpt>
      <trkpt lat="48.17238" lon="6.78871">
        <ele>624.5</ele>
        <time>2024-11-17T09:42:30Z</time>
      </trkpt>
      <trkpt lat="48.17228" lon="6.78869">
        <ele>624.8</ele>
        <time>2024-11-17T09:42:39Z</time>
      </trkpt>
      <trkpt lat="48.17219" lon="6.78871">
        <ele>625.2</ele>
        <time>2024-11-17T09:42:48Z</time>
      </trkpt>
      <trkpt lat="48.17217" lon="6.78872">
        <ele>625.2</ele>
        <time>2024-11-17T09:42:55Z</time>
      </trkpt>
      <trkpt lat="48.17217" lon="6.78872">
        <ele>625.2</ele>
        <time>2024-11-17T09:42:56Z</time>
      </trkpt>
      <trkpt lat="48.17216" lon="6.7887">
        <ele>625.1</ele>
        <time>2024-11-17T09:44:08Z</time>
      </trkpt>
      <trkpt lat="48.17215" lon="6.7887">
        <ele>625</ele>
        <time>2024-11-17T09:44:09Z</time>
      </trkpt>
      <trkpt lat="48.17207" lon="6.78863">
        <ele>624.1</ele>
        <time>2024-11-17T09:44:19Z</time>
      </trkpt>
      <trkpt lat="48.17201" lon="6.78851">
        <ele>622.7</ele>
        <time>2024-11-17T09:44:29Z</time>
      </trkpt>
      <trkpt lat="48.172" lon="6.78837">
        <ele>621.1</ele>
        <time>2024-11-17T09:44:38Z</time>
      </trkpt>
      <trkpt lat="48.17202" lon="6.78822">
        <ele>619.7</ele>
        <time>2024-11-17T09:44:46Z</time>
      </trkpt>
      <trkpt lat="48.17207" lon="6.78811">
        <ele>618.7</ele>
        <time>2024-11-17T09:44:54Z</time>
      </trkpt>
      <trkpt lat="48.17209" lon="6.78797">
        <ele>617.7</ele>
        <time>2024-11-17T09:45:05Z</time>
      </trkpt>
      <trkpt lat="48.17214" lon="6.78785">
        <ele>616.7</ele>
        <time>2024-11-17T09:45:14Z</time>
      </trkpt>
      <trkpt lat="48.17219" lon="6.78774">
        <ele>615.6</ele>
        <time>2024-11-17T09:45:23Z</time>
      </trkpt>
      <trkpt lat="48.17223" lon="6.78761">
        <ele>614.1</ele>
        <time>2024-11-17T09:45:31Z</time>
      </trkpt>
      <trkpt lat="48.17227" lon="6.78747">
        <ele>612.4</ele>
        <time>2024-11-17T09:45:40Z</time>
      </trkpt>
      <trkpt lat="48.1723" lon="6.78734">
        <ele>610.8</ele>
        <time>2024-11-17T09:45:48Z</time>
      </trkpt>
      <trkpt lat="48.17232" lon="6.7872">
        <ele>609.2</ele>
        <time>2024-11-17T09:45:56Z</time>
      </trkpt>
      <trkpt lat="48.17233" lon="6.78705">
        <ele>607.8</ele>
        <time>2024-11-17T09:46:04Z</time>
      </trkpt>
      <trkpt lat="48.17236" lon="6.78691">
        <ele>606.5</ele>
        <time>2024-11-17T09:46:12Z</time>
      </trkpt>
      <trkpt lat="48.17235" lon="6.78676">
        <ele>605.2</ele>
        <time>2024-11-17T09:46:20Z</time>
      </trkpt>
      <trkpt lat="48.17237" lon="6.78662">
        <ele>604.1</ele>
        <time>2024-11-17T09:46:28Z</time>
      </trkpt>
      <trkpt lat="48.17238" lon="6.78648">
        <ele>603</ele>
        <time>2024-11-17T09:46:36Z</time>
      </trkpt>
      <trkpt lat="48.17241" lon="6.78634">
        <ele>602.8</ele>
        <time>2024-11-17T09:46:44Z</time>
      </trkpt>
      <trkpt lat="48.17243" lon="6.7862">
        <ele>602.5</ele>
        <time>2024-11-17T09:46:52Z</time>
      </trkpt>
      <trkpt lat="48.17246" lon="6.78606">
        <ele>602.4</ele>
        <time>2024-11-17T09:47:00Z</time>
      </trkpt>
      <trkpt lat="48.17246" lon="6.78592">
        <ele>601.6</ele>
        <time>2024-11-17T09:47:08Z</time>
      </trkpt>
      <trkpt lat="48.17246" lon="6.78578">
        <ele>600.7</ele>
        <time>2024-11-17T09:47:16Z</time>
      </trkpt>
      <trkpt lat="48.17248" lon="6.78564">
        <ele>600.4</ele>
        <time>2024-11-17T09:47:23Z</time>
      </trkpt>
      <trkpt lat="48.17247" lon="6.78549">
        <ele>598.7</ele>
        <time>2024-11-17T09:47:33Z</time>
      </trkpt>
      <trkpt lat="48.17249" lon="6.78536">
        <ele>599.3</ele>
        <time>2024-11-17T09:47:39Z</time>
      </trkpt>
      <trkpt lat="48.1725" lon="6.78522">
        <ele>600</ele>
        <time>2024-11-17T09:47:48Z</time>
      </trkpt>
      <trkpt lat="48.17254" lon="6.78509">
        <ele>600.5</ele>
        <time>2024-11-17T09:47:57Z</time>
      </trkpt>
      <trkpt lat="48.17259" lon="6.78497">
        <ele>601.5</ele>
        <time>2024-11-17T09:48:05Z</time>
      </trkpt>
      <trkpt lat="48.17263" lon="6.78485">
        <ele>601.1</ele>
        <time>2024-11-17T09:48:12Z</time>
      </trkpt>
      <trkpt lat="48.17263" lon="6.7848">
        <ele>600.6</ele>
        <time>2024-11-17T09:48:19Z</time>
      </trkpt>
      <trkpt lat="48.17263" lon="6.78481">
        <ele>600.5</ele>
        <time>2024-11-17T09:48:20Z</time>
      </trkpt>
      <trkpt lat="48.17263" lon="6.78481">
        <ele>600.5</ele>
        <time>2024-11-17T09:48:21Z</time>
      </trkpt>
      <trkpt lat="48.1726" lon="6.7848">
        <ele>599.6</ele>
        <time>2024-11-17T09:48:54Z</time>
      </trkpt>
      <trkpt lat="48.1726" lon="6.7848">
        <ele>599.6</ele>
        <time>2024-11-17T09:48:55Z</time>
      </trkpt>
      <trkpt lat="48.1726" lon="6.7848">
        <ele>599.5</ele>
        <time>2024-11-17T09:48:56Z</time>
      </trkpt>
      <trkpt lat="48.1726" lon="6.7848">
        <ele>599.5</ele>
        <time>2024-11-17T09:48:57Z</time>
      </trkpt>
      <trkpt lat="48.17259" lon="6.78481">
        <ele>599.4</ele>
        <time>2024-11-17T09:48:58Z</time>
      </trkpt>
      <trkpt lat="48.17259" lon="6.78482">
        <ele>599.4</ele>
        <time>2024-11-17T09:48:59Z</time>
      </trkpt>
      <trkpt lat="48.17261" lon="6.78479">
        <ele>600.2</ele>
        <time>2024-11-17T09:49:13Z</time>
      </trkpt>
      <trkpt lat="48.17262" lon="6.78478">
        <ele>599.6</ele>
        <time>2024-11-17T09:49:14Z</time>
      </trkpt>
      <trkpt lat="48.17263" lon="6.78462">
        <ele>598.2</ele>
        <time>2024-11-17T09:49:26Z</time>
      </trkpt>
      <trkpt lat="48.17262" lon="6.78449">
        <ele>596.8</ele>
        <time>2024-11-17T09:49:34Z</time>
      </trkpt>
      <trkpt lat="48.17258" lon="6.78436">
        <ele>593.3</ele>
        <time>2024-11-17T09:49:44Z</time>
      </trkpt>
      <trkpt lat="48.17256" lon="6.78421">
        <ele>591.9</ele>
        <time>2024-11-17T09:49:54Z</time>
      </trkpt>
      <trkpt lat="48.17256" lon="6.78407">
        <ele>590.5</ele>
        <time>2024-11-17T09:50:02Z</time>
      </trkpt>
      <trkpt lat="48.17257" lon="6.78393">
        <ele>588.7</ele>
        <time>2024-11-17T09:50:09Z</time>
      </trkpt>
      <trkpt lat="48.17257" lon="6.78389">
        <ele>587.3</ele>
        <time>2024-11-17T09:50:12Z</time>
      </trkpt>
      <trkpt lat="48.17256" lon="6.78388">
        <ele>587.3</ele>
        <time>2024-11-17T09:50:13Z</time>
      </trkpt>
      <trkpt lat="48.17254" lon="6.78386">
        <ele>586.3</ele>
        <time>2024-11-17T09:50:25Z</time>
      </trkpt>
      <trkpt lat="48.17254" lon="6.78385">
        <ele>586.3</ele>
        <time>2024-11-17T09:50:26Z</time>
      </trkpt>
      <trkpt lat="48.17256" lon="6.78371">
        <ele>584.9</ele>
        <time>2024-11-17T09:50:38Z</time>
      </trkpt>
      <trkpt lat="48.17256" lon="6.78371">
        <ele>584.8</ele>
        <time>2024-11-17T09:50:40Z</time>
      </trkpt>
      <trkpt lat="48.17255" lon="6.7837">
        <ele>583.8</ele>
        <time>2024-11-17T09:50:41Z</time>
      </trkpt>
      <trkpt lat="48.17258" lon="6.78363">
        <ele>584.3</ele>
        <time>2024-11-17T09:51:50Z</time>
      </trkpt>
      <trkpt lat="48.17258" lon="6.78363">
        <ele>584.2</ele>
        <time>2024-11-17T09:51:51Z</time>
      </trkpt>
      <trkpt lat="48.17258" lon="6.78364">
        <ele>584.2</ele>
        <time>2024-11-17T09:51:52Z</time>
      </trkpt>
      <trkpt lat="48.17249" lon="6.78359">
        <ele>580.7</ele>
        <time>2024-11-17T09:52:04Z</time>
      </trkpt>
      <trkpt lat="48.1724" lon="6.78355">
        <ele>577.5</ele>
        <time>2024-11-17T09:52:12Z</time>
      </trkpt>
      <trkpt lat="48.17232" lon="6.78346">
        <ele>574.2</ele>
        <time>2024-11-17T09:52:24Z</time>
      </trkpt>
      <trkpt lat="48.17226" lon="6.78337">
        <ele>571.7</ele>
        <time>2024-11-17T09:52:34Z</time>
      </trkpt>
      <trkpt lat="48.17221" lon="6.78325">
        <ele>569.6</ele>
        <time>2024-11-17T09:52:47Z</time>
      </trkpt>
      <trkpt lat="48.17212" lon="6.78319">
        <ele>565.9</ele>
        <time>2024-11-17T09:52:57Z</time>
      </trkpt>
      <trkpt lat="48.17203" lon="6.78315">
        <ele>563.4</ele>
        <time>2024-11-17T09:53:06Z</time>
      </trkpt>
      <trkpt lat="48.17194" lon="6.78321">
        <ele>561.5</ele>
        <time>2024-11-17T09:53:14Z</time>
      </trkpt>
      <trkpt lat="48.17189" lon="6.78332">
        <ele>560.9</ele>
        <time>2024-11-17T09:53:20Z</time>
      </trkpt>
      <trkpt lat="48.17187" lon="6.78347">
        <ele>560.2</ele>
        <time>2024-11-17T09:53:27Z</time>
      </trkpt>
      <trkpt lat="48.17185" lon="6.78362">
        <ele>559.7</ele>
        <time>2024-11-17T09:53:35Z</time>
      </trkpt>
      <trkpt lat="48.17186" lon="6.78377">
        <ele>559.7</ele>
        <time>2024-11-17T09:53:43Z</time>
      </trkpt>
      <trkpt lat="48.17186" lon="6.78392">
        <ele>559.8</ele>
        <time>2024-11-17T09:53:51Z</time>
      </trkpt>
      <trkpt lat="48.17183" lon="6.78405">
        <ele>560.1</ele>
        <time>2024-11-17T09:53:58Z</time>
      </trkpt>
      <trkpt lat="48.17177" lon="6.78418">
        <ele>560.5</ele>
        <time>2024-11-17T09:54:06Z</time>
      </trkpt>
      <trkpt lat="48.17172" lon="6.78428">
        <ele>560.9</ele>
        <time>2024-11-17T09:54:13Z</time>
      </trkpt>
      <trkpt lat="48.17169" lon="6.78442">
        <ele>561</ele>
        <time>2024-11-17T09:54:21Z</time>
      </trkpt>
      <trkpt lat="48.17162" lon="6.78453">
        <ele>561</ele>
        <time>2024-11-17T09:54:29Z</time>
      </trkpt>
      <trkpt lat="48.17156" lon="6.78463">
        <ele>561.1</ele>
        <time>2024-11-17T09:54:38Z</time>
      </trkpt>
      <trkpt lat="48.17149" lon="6.78475">
        <ele>561.3</ele>
        <time>2024-11-17T09:54:46Z</time>
      </trkpt>
      <trkpt lat="48.1714" lon="6.7848">
        <ele>561.6</ele>
        <time>2024-11-17T09:54:54Z</time>
      </trkpt>
      <trkpt lat="48.17132" lon="6.78485">
        <ele>561.7</ele>
        <time>2024-11-17T09:55:02Z</time>
      </trkpt>
      <trkpt lat="48.17123" lon="6.78491">
        <ele>561.9</ele>
        <time>2024-11-17T09:55:10Z</time>
      </trkpt>
      <trkpt lat="48.17114" lon="6.78496">
        <ele>562.1</ele>
        <time>2024-11-17T09:55:19Z</time>
      </trkpt>
      <trkpt lat="48.17106" lon="6.78504">
        <ele>562.4</ele>
        <time>2024-11-17T09:55:27Z</time>
      </trkpt>
      <trkpt lat="48.17097" lon="6.78509">
        <ele>562.8</ele>
        <time>2024-11-17T09:55:35Z</time>
      </trkpt>
      <trkpt lat="48.17088" lon="6.78513">
        <ele>563.1</ele>
        <time>2024-11-17T09:55:43Z</time>
      </trkpt>
      <trkpt lat="48.17079" lon="6.78516">
        <ele>563.3</ele>
        <time>2024-11-17T09:55:51Z</time>
      </trkpt>
      <trkpt lat="48.1707" lon="6.78518">
        <ele>563.5</ele>
        <time>2024-11-17T09:55:59Z</time>
      </trkpt>
      <trkpt lat="48.1706" lon="6.78523">
        <ele>563.6</ele>
        <time>2024-11-17T09:56:07Z</time>
      </trkpt>
      <trkpt lat="48.1705" lon="6.78526">
        <ele>563.6</ele>
        <time>2024-11-17T09:56:15Z</time>
      </trkpt>
      <trkpt lat="48.17041" lon="6.7853">
        <ele>563.7</ele>
        <time>2024-11-17T09:56:23Z</time>
      </trkpt>
      <trkpt lat="48.17033" lon="6.78533">
        <ele>563.9</ele>
        <time>2024-11-17T09:56:31Z</time>
      </trkpt>
      <trkpt lat="48.17023" lon="6.78537">
        <ele>564.1</ele>
        <time>2024-11-17T09:56:39Z</time>
      </trkpt>
      <trkpt lat="48.17014" lon="6.7854">
        <ele>564.4</ele>
        <time>2024-11-17T09:56:47Z</time>
      </trkpt>
      <trkpt lat="48.17004" lon="6.78544">
        <ele>564.7</ele>
        <time>2024-11-17T09:56:56Z</time>
      </trkpt>
      <trkpt lat="48.16994" lon="6.78546">
        <ele>565</ele>
        <time>2024-11-17T09:57:04Z</time>
      </trkpt>
      <trkpt lat="48.16984" lon="6.78548">
        <ele>565.4</ele>
        <time>2024-11-17T09:57:12Z</time>
      </trkpt>
      <trkpt lat="48.16975" lon="6.7855">
        <ele>565.7</ele>
        <time>2024-11-17T09:57:26Z</time>
      </trkpt>
      <trkpt lat="48.16965" lon="6.78553">
        <ele>565.9</ele>
        <time>2024-11-17T09:57:33Z</time>
      </trkpt>
      <trkpt lat="48.16955" lon="6.78555">
        <ele>566</ele>
        <time>2024-11-17T09:57:40Z</time>
      </trkpt>
      <trkpt lat="48.16945" lon="6.78556">
        <ele>566.3</ele>
        <time>2024-11-17T09:57:48Z</time>
      </trkpt>
      <trkpt lat="48.16935" lon="6.78555">
        <ele>566.6</ele>
        <time>2024-11-17T09:57:55Z</time>
      </trkpt>
      <trkpt lat="48.16926" lon="6.78553">
        <ele>567</ele>
        <time>2024-11-17T09:58:02Z</time>
      </trkpt>
      <trkpt lat="48.16916" lon="6.78553">
        <ele>567.4</ele>
        <time>2024-11-17T09:58:10Z</time>
      </trkpt>
      <trkpt lat="48.16907" lon="6.78551">
        <ele>567.8</ele>
        <time>2024-11-17T09:58:17Z</time>
      </trkpt>
      <trkpt lat="48.16897" lon="6.78549">
        <ele>568.2</ele>
        <time>2024-11-17T09:58:24Z</time>
      </trkpt>
      <trkpt lat="48.16888" lon="6.78546">
        <ele>568.7</ele>
        <time>2024-11-17T09:58:32Z</time>
      </trkpt>
      <trkpt lat="48.16879" lon="6.78543">
        <ele>569.2</ele>
        <time>2024-11-17T09:58:40Z</time>
      </trkpt>
      <trkpt lat="48.1687" lon="6.78538">
        <ele>569.7</ele>
        <time>2024-11-17T09:58:47Z</time>
      </trkpt>
      <trkpt lat="48.16861" lon="6.78532">
        <ele>570.2</ele>
        <time>2024-11-17T09:58:55Z</time>
      </trkpt>
      <trkpt lat="48.16852" lon="6.78528">
        <ele>570.6</ele>
        <time>2024-11-17T09:59:02Z</time>
      </trkpt>
      <trkpt lat="48.16843" lon="6.78527">
        <ele>571.1</ele>
        <time>2024-11-17T09:59:11Z</time>
      </trkpt>
      <trkpt lat="48.16834" lon="6.78524">
        <ele>571.5</ele>
        <time>2024-11-17T09:59:19Z</time>
      </trkpt>
      <trkpt lat="48.16825" lon="6.78525">
        <ele>571.9</ele>
        <time>2024-11-17T09:59:27Z</time>
      </trkpt>
      <trkpt lat="48.16816" lon="6.78527">
        <ele>572.2</ele>
        <time>2024-11-17T09:59:35Z</time>
      </trkpt>
      <trkpt lat="48.16813" lon="6.78528">
        <ele>572.3</ele>
        <time>2024-11-17T09:59:49Z</time>
      </trkpt>
      <trkpt lat="48.16813" lon="6.78528">
        <ele>572.3</ele>
        <time>2024-11-17T09:59:50Z</time>
      </trkpt>
      <trkpt lat="48.16813" lon="6.78528">
        <ele>572.3</ele>
        <time>2024-11-17T09:59:51Z</time>
      </trkpt>
      <trkpt lat="48.16812" lon="6.7853">
        <ele>572.4</ele>
        <time>2024-11-17T10:00:15Z</time>
      </trkpt>
      <trkpt lat="48.16812" lon="6.7853">
        <ele>572.4</ele>
        <time>2024-11-17T10:00:16Z</time>
      </trkpt>
      <trkpt lat="48.16812" lon="6.78531">
        <ele>572.4</ele>
        <time>2024-11-17T10:00:17Z</time>
      </trkpt>
      <trkpt lat="48.16812" lon="6.78531">
        <ele>572.4</ele>
        <time>2024-11-17T10:00:18Z</time>
      </trkpt>
      <trkpt lat="48.16811" lon="6.78531">
        <ele>572.4</ele>
        <time>2024-11-17T10:00:19Z</time>
      </trkpt>
      <trkpt lat="48.1681" lon="6.78531">
        <ele>572.5</ele>
        <time>2024-11-17T10:00:20Z</time>
      </trkpt>
      <trkpt lat="48.16809" lon="6.7853">
        <ele>572.5</ele>
        <time>2024-11-17T10:00:21Z</time>
      </trkpt>
      <trkpt lat="48.168" lon="6.78528">
        <ele>572.8</ele>
        <time>2024-11-17T10:00:33Z</time>
      </trkpt>
      <trkpt lat="48.16791" lon="6.78532">
        <ele>573.1</ele>
        <time>2024-11-17T10:00:39Z</time>
      </trkpt>
      <trkpt lat="48.16781" lon="6.78536">
        <ele>573.3</ele>
        <time>2024-11-17T10:00:47Z</time>
      </trkpt>
      <trkpt lat="48.16772" lon="6.78541">
        <ele>573.5</ele>
        <time>2024-11-17T10:00:55Z</time>
      </trkpt>
      <trkpt lat="48.16766" lon="6.78551">
        <ele>573.5</ele>
        <time>2024-11-17T10:01:04Z</time>
      </trkpt>
      <trkpt lat="48.16758" lon="6.78561">
        <ele>573.6</ele>
        <time>2024-11-17T10:01:11Z</time>
      </trkpt>
      <trkpt lat="48.1675" lon="6.78567">
        <ele>573.7</ele>
        <time>2024-11-17T10:01:21Z</time>
      </trkpt>
      <trkpt lat="48.16741" lon="6.78572">
        <ele>573.7</ele>
        <time>2024-11-17T10:01:32Z</time>
      </trkpt>
      <trkpt lat="48.16731" lon="6.78573">
        <ele>568.6</ele>
        <time>2024-11-17T10:01:41Z</time>
      </trkpt>
      <trkpt lat="48.16722" lon="6.78575">
        <ele>564.8</ele>
        <time>2024-11-17T10:01:51Z</time>
      </trkpt>
      <trkpt lat="48.16713" lon="6.78572">
        <ele>559.5</ele>
        <time>2024-11-17T10:01:59Z</time>
      </trkpt>
      <trkpt lat="48.16704" lon="6.78571">
        <ele>555.3</ele>
        <time>2024-11-17T10:02:08Z</time>
      </trkpt>
      <trkpt lat="48.16694" lon="6.78571">
        <ele>551.4</ele>
        <time>2024-11-17T10:02:16Z</time>
      </trkpt>
      <trkpt lat="48.16684" lon="6.7857">
        <ele>548.1</ele>
        <time>2024-11-17T10:02:26Z</time>
      </trkpt>
      <trkpt lat="48.16675" lon="6.78572">
        <ele>545.3</ele>
        <time>2024-11-17T10:02:34Z</time>
      </trkpt>
      <trkpt lat="48.16666" lon="6.78569">
        <ele>543.2</ele>
        <time>2024-11-17T10:02:44Z</time>
      </trkpt>
      <trkpt lat="48.16663" lon="6.78555">
        <ele>541.8</ele>
        <time>2024-11-17T10:02:56Z</time>
      </trkpt>
      <trkpt lat="48.16668" lon="6.78544">
        <ele>540.4</ele>
        <time>2024-11-17T10:03:04Z</time>
      </trkpt>
      <trkpt lat="48.16674" lon="6.78531">
        <ele>539</ele>
        <time>2024-11-17T10:03:13Z</time>
      </trkpt>
      <trkpt lat="48.16681" lon="6.78522">
        <ele>537.7</ele>
        <time>2024-11-17T10:03:22Z</time>
      </trkpt>
      <trkpt lat="48.1669" lon="6.78512">
        <ele>536.1</ele>
        <time>2024-11-17T10:03:31Z</time>
      </trkpt>
      <trkpt lat="48.16695" lon="6.78501">
        <ele>534.8</ele>
        <time>2024-11-17T10:03:37Z</time>
      </trkpt>
      <trkpt lat="48.16703" lon="6.78493">
        <ele>533.4</ele>
        <time>2024-11-17T10:03:43Z</time>
      </trkpt>
      <trkpt lat="48.16711" lon="6.78484">
        <ele>532</ele>
        <time>2024-11-17T10:03:50Z</time>
      </trkpt>
      <trkpt lat="48.16717" lon="6.78473">
        <ele>530.6</ele>
        <time>2024-11-17T10:03:57Z</time>
      </trkpt>
      <trkpt lat="48.16719" lon="6.78458">
        <ele>529.2</ele>
        <time>2024-11-17T10:04:06Z</time>
      </trkpt>
      <trkpt lat="48.16724" lon="6.78448">
        <ele>527.9</ele>
        <time>2024-11-17T10:04:14Z</time>
      </trkpt>
      <trkpt lat="48.16727" lon="6.78433">
        <ele>526.5</ele>
        <time>2024-11-17T10:04:24Z</time>
      </trkpt>
      <trkpt lat="48.16731" lon="6.78421">
        <ele>525.3</ele>
        <time>2024-11-17T10:04:32Z</time>
      </trkpt>
      <trkpt lat="48.16735" lon="6.78408">
        <ele>523.9</ele>
        <time>2024-11-17T10:04:40Z</time>
      </trkpt>
      <trkpt lat="48.16737" lon="6.78394">
        <ele>522.7</ele>
        <time>2024-11-17T10:04:48Z</time>
      </trkpt>
      <trkpt lat="48.1674" lon="6.78381">
        <ele>521.4</ele>
        <time>2024-11-17T10:04:56Z</time>
      </trkpt>
      <trkpt lat="48.1674" lon="6.78367">
        <ele>520.2</ele>
        <time>2024-11-17T10:05:04Z</time>
      </trkpt>
      <trkpt lat="48.1674" lon="6.78352">
        <ele>518.9</ele>
        <time>2024-11-17T10:05:12Z</time>
      </trkpt>
      <trkpt lat="48.16739" lon="6.78338">
        <ele>517.7</ele>
        <time>2024-11-17T10:05:20Z</time>
      </trkpt>
      <trkpt lat="48.16741" lon="6.78323">
        <ele>516.3</ele>
        <time>2024-11-17T10:05:29Z</time>
      </trkpt>
      <trkpt lat="48.16745" lon="6.7831">
        <ele>515.1</ele>
        <time>2024-11-17T10:05:38Z</time>
      </trkpt>
      <trkpt lat="48.16749" lon="6.78297">
        <ele>513.8</ele>
        <time>2024-11-17T10:05:48Z</time>
      </trkpt>
      <trkpt lat="48.16754" lon="6.78285">
        <ele>512.6</ele>
        <time>2024-11-17T10:05:57Z</time>
      </trkpt>
      <trkpt lat="48.16756" lon="6.78271">
        <ele>511.4</ele>
        <time>2024-11-17T10:06:06Z</time>
      </trkpt>
      <trkpt lat="48.16757" lon="6.78257">
        <ele>510.2</ele>
        <time>2024-11-17T10:06:15Z</time>
      </trkpt>
      <trkpt lat="48.16761" lon="6.78244">
        <ele>508.9</ele>
        <time>2024-11-17T10:06:24Z</time>
      </trkpt>
      <trkpt lat="48.16763" lon="6.7823">
        <ele>507.7</ele>
        <time>2024-11-17T10:06:33Z</time>
      </trkpt>
      <trkpt lat="48.16764" lon="6.78216">
        <ele>506.3</ele>
        <time>2024-11-17T10:06:42Z</time>
      </trkpt>
      <trkpt lat="48.16764" lon="6.78202">
        <ele>505.1</ele>
        <time>2024-11-17T10:06:51Z</time>
      </trkpt>
      <trkpt lat="48.16767" lon="6.78187">
        <ele>503.7</ele>
        <time>2024-11-17T10:07:00Z</time>
      </trkpt>
      <trkpt lat="48.16771" lon="6.78175">
        <ele>502.4</ele>
        <time>2024-11-17T10:07:08Z</time>
      </trkpt>
      <trkpt lat="48.16775" lon="6.78161">
        <ele>501</ele>
        <time>2024-11-17T10:07:17Z</time>
      </trkpt>
      <trkpt lat="48.16779" lon="6.78147">
        <ele>499.6</ele>
        <time>2024-11-17T10:07:26Z</time>
      </trkpt>
      <trkpt lat="48.16782" lon="6.78134">
        <ele>498.4</ele>
        <time>2024-11-17T10:07:35Z</time>
      </trkpt>
      <trkpt lat="48.16786" lon="6.78121">
        <ele>497.2</ele>
        <time>2024-11-17T10:07:43Z</time>
      </trkpt>
      <trkpt lat="48.16791" lon="6.78109">
        <ele>496</ele>
        <time>2024-11-17T10:07:51Z</time>
      </trkpt>
      <trkpt lat="48.16796" lon="6.78097">
        <ele>494.8</ele>
        <time>2024-11-17T10:08:00Z</time>
      </trkpt>
      <trkpt lat="48.16801" lon="6.78083">
        <ele>493.7</ele>
        <time>2024-11-17T10:08:09Z</time>
      </trkpt>
      <trkpt lat="48.16805" lon="6.78072">
        <ele>492.7</ele>
        <time>2024-11-17T10:08:17Z</time>
      </trkpt>
      <trkpt lat="48.16811" lon="6.78061">
        <ele>491.7</ele>
        <time>2024-11-17T10:08:26Z</time>
      </trkpt>
      <trkpt lat="48.16816" lon="6.78048">
        <ele>490.7</ele>
        <time>2024-11-17T10:08:35Z</time>
      </trkpt>
      <trkpt lat="48.16822" lon="6.78036">
        <ele>489.7</ele>
        <time>2024-11-17T10:08:43Z</time>
      </trkpt>
      <trkpt lat="48.16827" lon="6.78024">
        <ele>488.7</ele>
        <time>2024-11-17T10:08:52Z</time>
      </trkpt>
      <trkpt lat="48.16831" lon="6.7801">
        <ele>487.9</ele>
        <time>2024-11-17T10:09:01Z</time>
      </trkpt>
      <trkpt lat="48.16834" lon="6.77995">
        <ele>487.3</ele>
        <time>2024-11-17T10:09:09Z</time>
      </trkpt>
      <trkpt lat="48.16837" lon="6.77981">
        <ele>486.6</ele>
        <time>2024-11-17T10:09:18Z</time>
      </trkpt>
      <trkpt lat="48.16834" lon="6.77967">
        <ele>486</ele>
        <time>2024-11-17T10:09:26Z</time>
      </trkpt>
      <trkpt lat="48.16833" lon="6.77953">
        <ele>485.4</ele>
        <time>2024-11-17T10:09:34Z</time>
      </trkpt>
      <trkpt lat="48.1683" lon="6.77938">
        <ele>484.7</ele>
        <time>2024-11-17T10:09:43Z</time>
      </trkpt>
      <trkpt lat="48.16828" lon="6.77925">
        <ele>484.1</ele>
        <time>2024-11-17T10:09:51Z</time>
      </trkpt>
      <trkpt lat="48.16826" lon="6.77911">
        <ele>483.5</ele>
        <time>2024-11-17T10:09:59Z</time>
      </trkpt>
      <trkpt lat="48.16825" lon="6.77897">
        <ele>482.9</ele>
        <time>2024-11-17T10:10:07Z</time>
      </trkpt>
      <trkpt lat="48.16825" lon="6.77882">
        <ele>482.4</ele>
        <time>2024-11-17T10:10:15Z</time>
      </trkpt>
      <trkpt lat="48.16826" lon="6.77869">
        <ele>481.9</ele>
        <time>2024-11-17T10:10:23Z</time>
      </trkpt>
      <trkpt lat="48.16826" lon="6.77854">
        <ele>481.4</ele>
        <time>2024-11-17T10:10:31Z</time>
      </trkpt>
      <trkpt lat="48.16827" lon="6.7784">
        <ele>481</ele>
        <time>2024-11-17T10:10:39Z</time>
      </trkpt>
      <trkpt lat="48.16826" lon="6.77825">
        <ele>480.6</ele>
        <time>2024-11-17T10:10:47Z</time>
      </trkpt>
      <trkpt lat="48.16826" lon="6.77812">
        <ele>480.2</ele>
        <time>2024-11-17T10:10:55Z</time>
      </trkpt>
      <trkpt lat="48.16825" lon="6.77797">
        <ele>479.8</ele>
        <time>2024-11-17T10:11:04Z</time>
      </trkpt>
      <trkpt lat="48.16823" lon="6.77783">
        <ele>479.5</ele>
        <time>2024-11-17T10:11:12Z</time>
      </trkpt>
      <trkpt lat="48.16822" lon="6.7777">
        <ele>479.1</ele>
        <time>2024-11-17T10:11:20Z</time>
      </trkpt>
      <trkpt lat="48.16819" lon="6.77757">
        <ele>478.7</ele>
        <time>2024-11-17T10:11:28Z</time>
      </trkpt>
      <trkpt lat="48.16815" lon="6.77744">
        <ele>478.2</ele>
        <time>2024-11-17T10:11:36Z</time>
      </trkpt>
      <trkpt lat="48.1681" lon="6.77732">
        <ele>477.8</ele>
        <time>2024-11-17T10:11:44Z</time>
      </trkpt>
      <trkpt lat="48.16803" lon="6.77721">
        <ele>477.3</ele>
        <time>2024-11-17T10:11:52Z</time>
      </trkpt>
      <trkpt lat="48.16796" lon="6.7771">
        <ele>476.9</ele>
        <time>2024-11-17T10:12:00Z</time>
      </trkpt>
      <trkpt lat="48.16791" lon="6.77699">
        <ele>476.5</ele>
        <time>2024-11-17T10:12:08Z</time>
      </trkpt>
      <trkpt lat="48.16786" lon="6.77687">
        <ele>476.2</ele>
        <time>2024-11-17T10:12:16Z</time>
      </trkpt>
      <trkpt lat="48.16782" lon="6.77674">
        <ele>476</ele>
        <time>2024-11-17T10:12:24Z</time>
      </trkpt>
      <trkpt lat="48.16779" lon="6.77661">
        <ele>475.8</ele>
        <time>2024-11-17T10:12:32Z</time>
      </trkpt>
      <trkpt lat="48.16777" lon="6.77648">
        <ele>475.5</ele>
        <time>2024-11-17T10:12:40Z</time>
      </trkpt>
      <trkpt lat="48.16774" lon="6.77634">
        <ele>475.3</ele>
        <time>2024-11-17T10:12:48Z</time>
      </trkpt>
      <trkpt lat="48.1677" lon="6.7762">
        <ele>475.1</ele>
        <time>2024-11-17T10:12:57Z</time>
      </trkpt>
      <trkpt lat="48.16766" lon="6.77606">
        <ele>474.9</ele>
        <time>2024-11-17T10:13:07Z</time>
      </trkpt>
      <trkpt lat="48.16761" lon="6.77594">
        <ele>474.7</ele>
        <time>2024-11-17T10:13:15Z</time>
      </trkpt>
      <trkpt lat="48.16756" lon="6.77582">
        <ele>474.5</ele>
        <time>2024-11-17T10:13:23Z</time>
      </trkpt>
      <trkpt lat="48.1675" lon="6.77573">
        <ele>474.4</ele>
        <time>2024-11-17T10:13:37Z</time>
      </trkpt>
      <trkpt lat="48.1675" lon="6.77573">
        <ele>474.4</ele>
        <time>2024-11-17T10:13:38Z</time>
      </trkpt>
      <trkpt lat="48.1675" lon="6.77573">
        <ele>474.4</ele>
        <time>2024-11-17T10:13:39Z</time>
      </trkpt>
      <trkpt lat="48.1675" lon="6.77573">
        <ele>474.3</ele>
        <time>2024-11-17T10:13:45Z</time>
      </trkpt>
      <trkpt lat="48.1675" lon="6.77573">
        <ele>474.3</ele>
        <time>2024-11-17T10:13:46Z</time>
      </trkpt>
      <trkpt lat="48.1675" lon="6.77573">
        <ele>474.3</ele>
        <time>2024-11-17T10:13:50Z</time>
      </trkpt>
      <trkpt lat="48.1675" lon="6.77573">
        <ele>474.3</ele>
        <time>2024-11-17T10:13:51Z</time>
      </trkpt>
      <trkpt lat="48.16749" lon="6.77571">
        <ele>474.3</ele>
        <time>2024-11-17T10:14:02Z</time>
      </trkpt>
      <trkpt lat="48.16748" lon="6.77571">
        <ele>474.3</ele>
        <time>2024-11-17T10:14:03Z</time>
      </trkpt>
      <trkpt lat="48.16746" lon="6.77573">
        <ele>474.2</ele>
        <time>2024-11-17T10:14:10Z</time>
      </trkpt>
      <trkpt lat="48.16746" lon="6.77573">
        <ele>474.2</ele>
        <time>2024-11-17T10:14:11Z</time>
      </trkpt>
      <trkpt lat="48.16746" lon="6.77573">
        <ele>474.2</ele>
        <time>2024-11-17T10:14:12Z</time>
      </trkpt>
      <trkpt lat="48.16745" lon="6.77574">
        <ele>474.2</ele>
        <time>2024-11-17T10:14:59Z</time>
      </trkpt>
      <trkpt lat="48.16745" lon="6.77574">
        <ele>474.2</ele>
        <time>2024-11-17T10:15:00Z</time>
      </trkpt>
      <trkpt lat="48.16745" lon="6.77574">
        <ele>474.2</ele>
        <time>2024-11-17T10:15:01Z</time>
      </trkpt>
      <trkpt lat="48.16745" lon="6.77574">
        <ele>474.2</ele>
        <time>2024-11-17T10:15:02Z</time>
      </trkpt>
      <trkpt lat="48.16745" lon="6.77574">
        <ele>474.2</ele>
        <time>2024-11-17T10:15:03Z</time>
      </trkpt>
      <trkpt lat="48.16745" lon="6.77574">
        <ele>474.2</ele>
        <time>2024-11-17T10:15:04Z</time>
      </trkpt>
      <trkpt lat="48.16744" lon="6.77573">
        <ele>474.2</ele>
        <time>2024-11-17T10:16:15Z</time>
      </trkpt>
      <trkpt lat="48.16744" lon="6.77573">
        <ele>474.2</ele>
        <time>2024-11-17T10:16:16Z</time>
      </trkpt>
      <trkpt lat="48.16744" lon="6.77573">
        <ele>474.2</ele>
        <time>2024-11-17T10:16:17Z</time>
      </trkpt>
      <trkpt lat="48.16744" lon="6.77573">
        <ele>474.2</ele>
        <time>2024-11-17T10:16:18Z</time>
      </trkpt>
      <trkpt lat="48.16744" lon="6.77573">
        <ele>474.2</ele>
        <time>2024-11-17T10:16:37Z</time>
      </trkpt>
      <trkpt lat="48.16744" lon="6.77573">
        <ele>474.2</ele>
        <time>2024-11-17T10:16:38Z</time>
      </trkpt>
      <trkpt lat="48.16744" lon="6.77573">
        <ele>474.2</ele>
        <time>2024-11-17T10:16:39Z</time>
      </trkpt>
      <trkpt lat="48.16744" lon="6.77573">
        <ele>474.2</ele>
        <time>2024-11-17T10:16:40Z</time>
      </trkpt>
      <trkpt lat="48.16744" lon="6.77573">
        <ele>474.2</ele>
        <time>2024-11-17T10:16:41Z</time>
      </trkpt>
      <trkpt lat="48.16744" lon="6.77573">
        <ele>474.2</ele>
        <time>2024-11-17T10:17:04Z</time>
      </trkpt>
      <trkpt lat="48.16744" lon="6.77573">
        <ele>474.2</ele>
        <time>2024-11-17T10:17:05Z</time>
      </trkpt>
      <trkpt lat="48.16744" lon="6.77573">
        <ele>474.2</ele>
        <time>2024-11-17T10:17:06Z</time>
      </trkpt>
      <trkpt lat="48.16744" lon="6.77573">
        <ele>474.2</ele>
        <time>2024-11-17T10:17:07Z</time>
      </trkpt>
      <trkpt lat="48.16744" lon="6.77573">
        <ele>474.2</ele>
        <time>2024-11-17T10:17:08Z</time>
      </trkpt>
      <trkpt lat="48.16744" lon="6.77573">
        <ele>474.2</ele>
        <time>2024-11-17T10:17:09Z</time>
      </trkpt>
      <trkpt lat="48.16744" lon="6.77573">
        <ele>474.2</ele>
        <time>2024-11-17T10:17:15Z</time>
      </trkpt>
      <trkpt lat="48.16744" lon="6.77573">
        <ele>474.2</ele>
        <time>2024-11-17T10:17:16Z</time>
      </trkpt>
      <trkpt lat="48.16744" lon="6.77573">
        <ele>474.2</ele>
        <time>2024-11-17T10:17:17Z</time>
      </trkpt>
      <trkpt lat="48.16744" lon="6.77574">
        <ele>474.2</ele>
        <time>2024-11-17T10:17:18Z</time>
      </trkpt>
      <trkpt lat="48.16744" lon="6.77574">
        <ele>474.2</ele>
        <time>2024-11-17T10:17:19Z</time>
      </trkpt>
      <trkpt lat="48.16744" lon="6.77574">
        <ele>474.2</ele>
        <time>2024-11-17T10:17:30Z</time>
      </trkpt>
      <trkpt lat="48.16744" lon="6.77574">
        <ele>474.2</ele>
        <time>2024-11-17T10:17:31Z</time>
      </trkpt>
      <trkpt lat="48.16744" lon="6.77574">
        <ele>474.2</ele>
        <time>2024-11-17T10:17:32Z</time>
      </trkpt>
      <trkpt lat="48.16744" lon="6.77574">
        <ele>474.2</ele>
        <time>2024-11-17T10:17:33Z</time>
      </trkpt>
      <trkpt lat="48.16744" lon="6.77574">
        <ele>474.2</ele>
        <time>2024-11-17T10:17:34Z</time>
      </trkpt>
      <trkpt lat="48.16744" lon="6.77575">
        <ele>474.2</ele>
        <time>2024-11-17T10:18:53Z</time>
      </trkpt>
      <trkpt lat="48.16744" lon="6.77575">
        <ele>474.2</ele>
        <time>2024-11-17T10:18:54Z</time>
      </trkpt>
      <trkpt lat="48.16744" lon="6.77575">
        <ele>474.1</ele>
        <time>2024-11-17T10:18:57Z</time>
      </trkpt>
      <trkpt lat="48.16744" lon="6.77575">
        <ele>474.1</ele>
        <time>2024-11-17T10:18:58Z</time>
      </trkpt>
      <trkpt lat="48.16746" lon="6.77577">
        <ele>474.1</ele>
        <time>2024-11-17T10:22:47Z</time>
      </trkpt>
      <trkpt lat="48.16746" lon="6.77577">
        <ele>474.1</ele>
        <time>2024-11-17T10:22:48Z</time>
      </trkpt>
      <trkpt lat="48.16746" lon="6.77577">
        <ele>474.1</ele>
        <time>2024-11-17T10:22:49Z</time>
      </trkpt>
      <trkpt lat="48.16746" lon="6.77577">
        <ele>474.1</ele>
        <time>2024-11-17T10:22:50Z</time>
      </trkpt>
      <trkpt lat="48.16746" lon="6.77577">
        <ele>474.1</ele>
        <time>2024-11-17T10:22:51Z</time>
      </trkpt>
      <trkpt lat="48.16744" lon="6.77575">
        <ele>474.1</ele>
        <time>2024-11-17T10:23:29Z</time>
      </trkpt>
      <trkpt lat="48.16744" lon="6.77575">
        <ele>474.1</ele>
        <time>2024-11-17T10:23:30Z</time>
      </trkpt>
      <trkpt lat="48.16744" lon="6.77575">
        <ele>474.1</ele>
        <time>2024-11-17T10:23:31Z</time>
      </trkpt>
      <trkpt lat="48.16744" lon="6.77575">
        <ele>474.1</ele>
        <time>2024-11-17T10:23:32Z</time>
      </trkpt>
      <trkpt lat="48.16744" lon="6.77575">
        <ele>474.1</ele>
        <time>2024-11-17T10:23:33Z</time>
      </trkpt>
      <trkpt lat="48.16744" lon="6.77575">
        <ele>474.1</ele>
        <time>2024-11-17T10:23:34Z</time>
      </trkpt>
      <trkpt lat="48.16744" lon="6.77575">
        <ele>474.1</ele>
        <time>2024-11-17T10:23:57Z</time>
      </trkpt>
      <trkpt lat="48.16744" lon="6.77575">
        <ele>474.1</ele>
        <time>2024-11-17T10:23:58Z</time>
      </trkpt>
      <trkpt lat="48.16744" lon="6.77575">
        <ele>474.1</ele>
        <time>2024-11-17T10:23:59Z</time>
      </trkpt>
      <trkpt lat="48.16744" lon="6.77575">
        <ele>474.1</ele>
        <time>2024-11-17T10:24:00Z</time>
      </trkpt>
      <trkpt lat="48.16744" lon="6.77575">
        <ele>474.1</ele>
        <time>2024-11-17T10:24:01Z</time>
      </trkpt>
      <trkpt lat="48.16744" lon="6.77575">
        <ele>474.1</ele>
        <time>2024-11-17T10:24:13Z</time>
      </trkpt>
      <trkpt lat="48.16744" lon="6.77575">
        <ele>474.1</ele>
        <time>2024-11-17T10:24:14Z</time>
      </trkpt>
      <trkpt lat="48.16744" lon="6.77575">
        <ele>474.1</ele>
        <time>2024-11-17T10:24:15Z</time>
      </trkpt>
      <trkpt lat="48.16744" lon="6.77575">
        <ele>474.1</ele>
        <time>2024-11-17T10:24:16Z</time>
      </trkpt>
      <trkpt lat="48.16743" lon="6.77574">
        <ele>474</ele>
        <time>2024-11-17T10:25:30Z</time>
      </trkpt>
      <trkpt lat="48.16743" lon="6.77574">
        <ele>474</ele>
        <time>2024-11-17T10:25:31Z</time>
      </trkpt>
      <trkpt lat="48.16743" lon="6.77574">
        <ele>474</ele>
        <time>2024-11-17T10:25:32Z</time>
      </trkpt>
      <trkpt lat="48.16743" lon="6.77574">
        <ele>474</ele>
        <time>2024-11-17T10:25:33Z</time>
      </trkpt>
      <trkpt lat="48.16743" lon="6.77574">
        <ele>474</ele>
        <time>2024-11-17T10:25:34Z</time>
      </trkpt>
      <trkpt lat="48.16743" lon="6.77575">
        <ele>474</ele>
        <time>2024-11-17T10:27:00Z</time>
      </trkpt>
      <trkpt lat="48.16743" lon="6.77575">
        <ele>474</ele>
        <time>2024-11-17T10:27:01Z</time>
      </trkpt>
      <trkpt lat="48.16743" lon="6.77575">
        <ele>474</ele>
        <time>2024-11-17T10:27:02Z</time>
      </trkpt>
      <trkpt lat="48.16743" lon="6.77575">
        <ele>474</ele>
        <time>2024-11-17T10:27:03Z</time>
      </trkpt>
      <trkpt lat="48.16743" lon="6.77575">
        <ele>474</ele>
        <time>2024-11-17T10:27:04Z</time>
      </trkpt>
      <trkpt lat="48.16743" lon="6.77575">
        <ele>474</ele>
        <time>2024-11-17T10:27:44Z</time>
      </trkpt>
      <trkpt lat="48.16743" lon="6.77575">
        <ele>474</ele>
        <time>2024-11-17T10:27:45Z</time>
      </trkpt>
      <trkpt lat="48.16743" lon="6.77574">
        <ele>474</ele>
        <time>2024-11-17T10:27:46Z</time>
      </trkpt>
      <trkpt lat="48.16743" lon="6.77574">
        <ele>474</ele>
        <time>2024-11-17T10:27:57Z</time>
      </trkpt>
      <trkpt lat="48.16743" lon="6.77574">
        <ele>474</ele>
        <time>2024-11-17T10:27:58Z</time>
      </trkpt>
      <trkpt lat="48.16744" lon="6.77573">
        <ele>474</ele>
        <time>2024-11-17T10:28:12Z</time>
      </trkpt>
      <trkpt lat="48.16745" lon="6.77573">
        <ele>474</ele>
        <time>2024-11-17T10:28:13Z</time>
      </trkpt>
      <trkpt lat="48.16752" lon="6.77581">
        <ele>474.2</ele>
        <time>2024-11-17T10:28:21Z</time>
      </trkpt>
      <trkpt lat="48.16758" lon="6.77594">
        <ele>474.5</ele>
        <time>2024-11-17T10:28:30Z</time>
      </trkpt>
      <trkpt lat="48.16762" lon="6.77606">
        <ele>474.7</ele>
        <time>2024-11-17T10:28:39Z</time>
      </trkpt>
      <trkpt lat="48.16767" lon="6.7762">
        <ele>474.9</ele>
        <time>2024-11-17T10:28:48Z</time>
      </trkpt>
      <trkpt lat="48.16769" lon="6.77633">
        <ele>475.1</ele>
        <time>2024-11-17T10:28:57Z</time>
      </trkpt>
      <trkpt lat="48.16771" lon="6.77647">
        <ele>475.3</ele>
        <time>2024-11-17T10:29:05Z</time>
      </trkpt>
      <trkpt lat="48.16775" lon="6.7766">
        <ele>475.6</ele>
        <time>2024-11-17T10:29:13Z</time>
      </trkpt>
      <trkpt lat="48.16777" lon="6.77674">
        <ele>475.8</ele>
        <time>2024-11-17T10:29:22Z</time>
      </trkpt>
      <trkpt lat="48.16781" lon="6.77688">
        <ele>476.1</ele>
        <time>2024-11-17T10:29:30Z</time>
      </trkpt>
      <trkpt lat="48.16785" lon="6.777">
        <ele>476.4</ele>
        <time>2024-11-17T10:29:38Z</time>
      </trkpt>
      <trkpt lat="48.16786" lon="6.77715">
        <ele>476.8</ele>
        <time>2024-11-17T10:29:48Z</time>
      </trkpt>
      <trkpt lat="48.16782" lon="6.77728">
        <ele>477</ele>
        <time>2024-11-17T10:29:57Z</time>
      </trkpt>
      <trkpt lat="48.16775" lon="6.77739">
        <ele>477.3</ele>
        <time>2024-11-17T10:30:06Z</time>
      </trkpt>
      <trkpt lat="48.16767" lon="6.77745">
        <ele>477.5</ele>
        <time>2024-11-17T10:30:14Z</time>
      </trkpt>
      <trkpt lat="48.16758" lon="6.77751">
        <ele>477.9</ele>
        <time>2024-11-17T10:30:21Z</time>
      </trkpt>
      <trkpt lat="48.16749" lon="6.77756">
        <ele>478.4</ele>
        <time>2024-11-17T10:30:30Z</time>
      </trkpt>
      <trkpt lat="48.16741" lon="6.77762">
        <ele>479</ele>
        <time>2024-11-17T10:30:38Z</time>
      </trkpt>
      <trkpt lat="48.16733" lon="6.77769">
        <ele>479.7</ele>
        <time>2024-11-17T10:30:46Z</time>
      </trkpt>
      <trkpt lat="48.16727" lon="6.7778">
        <ele>480.4</ele>
        <time>2024-11-17T10:30:54Z</time>
      </trkpt>
      <trkpt lat="48.16724" lon="6.77793">
        <ele>481.1</ele>
        <time>2024-11-17T10:31:02Z</time>
      </trkpt>
      <trkpt lat="48.16723" lon="6.77808">
        <ele>481.8</ele>
        <time>2024-11-17T10:31:10Z</time>
      </trkpt>
      <trkpt lat="48.16722" lon="6.77821">
        <ele>482.4</ele>
        <time>2024-11-17T10:31:17Z</time>
      </trkpt>
      <trkpt lat="48.16722" lon="6.77836">
        <ele>483.1</ele>
        <time>2024-11-17T10:31:24Z</time>
      </trkpt>
      <trkpt lat="48.16722" lon="6.77851">
        <ele>483.8</ele>
        <time>2024-11-17T10:31:32Z</time>
      </trkpt>
      <trkpt lat="48.16723" lon="6.77865">
        <ele>484.6</ele>
        <time>2024-11-17T10:31:40Z</time>
      </trkpt>
      <trkpt lat="48.16723" lon="6.77879">
        <ele>485.3</ele>
        <time>2024-11-17T10:31:48Z</time>
      </trkpt>
      <trkpt lat="48.16722" lon="6.77892">
        <ele>486.1</ele>
        <time>2024-11-17T10:31:56Z</time>
      </trkpt>
      <trkpt lat="48.1672" lon="6.77906">
        <ele>486.9</ele>
        <time>2024-11-17T10:32:04Z</time>
      </trkpt>
      <trkpt lat="48.16718" lon="6.7792">
        <ele>487.7</ele>
        <time>2024-11-17T10:32:12Z</time>
      </trkpt>
      <trkpt lat="48.16715" lon="6.77934">
        <ele>488.7</ele>
        <time>2024-11-17T10:32:21Z</time>
      </trkpt>
      <trkpt lat="48.16711" lon="6.77948">
        <ele>489.8</ele>
        <time>2024-11-17T10:32:29Z</time>
      </trkpt>
      <trkpt lat="48.16709" lon="6.77961">
        <ele>490.8</ele>
        <time>2024-11-17T10:32:37Z</time>
      </trkpt>
      <trkpt lat="48.16705" lon="6.77975">
        <ele>492</ele>
        <time>2024-11-17T10:32:46Z</time>
      </trkpt>
      <trkpt lat="48.167" lon="6.77988">
        <ele>493.5</ele>
        <time>2024-11-17T10:32:55Z</time>
      </trkpt>
      <trkpt lat="48.167" lon="6.77988">
        <ele>493.5</ele>
        <time>2024-11-17T10:33:00Z</time>
      </trkpt>
      <trkpt lat="48.16699" lon="6.77988">
        <ele>493.5</ele>
        <time>2024-11-17T10:33:01Z</time>
      </trkpt>
      <trkpt lat="48.16697" lon="6.77991">
        <ele>493.8</ele>
        <time>2024-11-17T10:33:05Z</time>
      </trkpt>
      <trkpt lat="48.16696" lon="6.77991">
        <ele>493.9</ele>
        <time>2024-11-17T10:33:06Z</time>
      </trkpt>
      <trkpt lat="48.16687" lon="6.7799">
        <ele>494.7</ele>
        <time>2024-11-17T10:33:14Z</time>
      </trkpt>
      <trkpt lat="48.16678" lon="6.77985">
        <ele>495.4</ele>
        <time>2024-11-17T10:33:22Z</time>
      </trkpt>
      <trkpt lat="48.16669" lon="6.77981">
        <ele>496.1</ele>
        <time>2024-11-17T10:33:30Z</time>
      </trkpt>
      <trkpt lat="48.16659" lon="6.77977">
        <ele>496.9</ele>
        <time>2024-11-17T10:33:38Z</time>
      </trkpt>
      <trkpt lat="48.1665" lon="6.77975">
        <ele>497.7</ele>
        <time>2024-11-17T10:33:46Z</time>
      </trkpt>
      <trkpt lat="48.1664" lon="6.77977">
        <ele>498.5</ele>
        <time>2024-11-17T10:33:54Z</time>
      </trkpt>
      <trkpt lat="48.1663" lon="6.77978">
        <ele>499.2</ele>
        <time>2024-11-17T10:34:02Z</time>
      </trkpt>
      <trkpt lat="48.16621" lon="6.77977">
        <ele>499.9</ele>
        <time>2024-11-17T10:34:09Z</time>
      </trkpt>
      <trkpt lat="48.16611" lon="6.77978">
        <ele>500.7</ele>
        <time>2024-11-17T10:34:16Z</time>
      </trkpt>
      <trkpt lat="48.16602" lon="6.77981">
        <ele>501.8</ele>
        <time>2024-11-17T10:34:23Z</time>
      </trkpt>
      <trkpt lat="48.16593" lon="6.77985">
        <ele>502.8</ele>
        <time>2024-11-17T10:34:30Z</time>
      </trkpt>
      <trkpt lat="48.16584" lon="6.7799">
        <ele>504</ele>
        <time>2024-11-17T10:34:38Z</time>
      </trkpt>
      <trkpt lat="48.16575" lon="6.77997">
        <ele>505.2</ele>
        <time>2024-11-17T10:34:46Z</time>
      </trkpt>
      <trkpt lat="48.16566" lon="6.78002">
        <ele>506.2</ele>
        <time>2024-11-17T10:34:54Z</time>
      </trkpt>
      <trkpt lat="48.16557" lon="6.78009">
        <ele>507.9</ele>
        <time>2024-11-17T10:35:02Z</time>
      </trkpt>
      <trkpt lat="48.16548" lon="6.78014">
        <ele>508.5</ele>
        <time>2024-11-17T10:35:09Z</time>
      </trkpt>
      <trkpt lat="48.16539" lon="6.78019">
        <ele>508.9</ele>
        <time>2024-11-17T10:35:17Z</time>
      </trkpt>
      <trkpt lat="48.16531" lon="6.78027">
        <ele>509.8</ele>
        <time>2024-11-17T10:35:25Z</time>
      </trkpt>
      <trkpt lat="48.16524" lon="6.78035">
        <ele>510.7</ele>
        <time>2024-11-17T10:35:33Z</time>
      </trkpt>
      <trkpt lat="48.16513" lon="6.78039">
        <ele>510.4</ele>
        <time>2024-11-17T10:35:40Z</time>
      </trkpt>
      <trkpt lat="48.16504" lon="6.78038">
        <ele>509.7</ele>
        <time>2024-11-17T10:35:45Z</time>
      </trkpt>
      <trkpt lat="48.16495" lon="6.78045">
        <ele>509.6</ele>
        <time>2024-11-17T10:35:54Z</time>
      </trkpt>
      <trkpt lat="48.16488" lon="6.78055">
        <ele>510.8</ele>
        <time>2024-11-17T10:36:03Z</time>
      </trkpt>
      <trkpt lat="48.1648" lon="6.7806">
        <ele>510.9</ele>
        <time>2024-11-17T10:36:10Z</time>
      </trkpt>
      <trkpt lat="48.16472" lon="6.78068">
        <ele>511.9</ele>
        <time>2024-11-17T10:36:17Z</time>
      </trkpt>
      <trkpt lat="48.16467" lon="6.7808">
        <ele>513.5</ele>
        <time>2024-11-17T10:36:25Z</time>
      </trkpt>
      <trkpt lat="48.16462" lon="6.78092">
        <ele>514.3</ele>
        <time>2024-11-17T10:36:32Z</time>
      </trkpt>
      <trkpt lat="48.16456" lon="6.78103">
        <ele>515.6</ele>
        <time>2024-11-17T10:36:38Z</time>
      </trkpt>
      <trkpt lat="48.16451" lon="6.78115">
        <ele>517</ele>
        <time>2024-11-17T10:36:45Z</time>
      </trkpt>
      <trkpt lat="48.16444" lon="6.78127">
        <ele>517.6</ele>
        <time>2024-11-17T10:36:52Z</time>
      </trkpt>
      <trkpt lat="48.16438" lon="6.78137">
        <ele>518.7</ele>
        <time>2024-11-17T10:36:59Z</time>
      </trkpt>
      <trkpt lat="48.16432" lon="6.78149">
        <ele>519.7</ele>
        <time>2024-11-17T10:37:06Z</time>
      </trkpt>
      <trkpt lat="48.16428" lon="6.78161">
        <ele>520.8</ele>
        <time>2024-11-17T10:37:14Z</time>
      </trkpt>
      <trkpt lat="48.16436" lon="6.78169">
        <ele>522.4</ele>
        <time>2024-11-17T10:37:21Z</time>
      </trkpt>
      <trkpt lat="48.16445" lon="6.78168">
        <ele>523.5</ele>
        <time>2024-11-17T10:37:29Z</time>
      </trkpt>
      <trkpt lat="48.16455" lon="6.78165">
        <ele>524.1</ele>
        <time>2024-11-17T10:37:37Z</time>
      </trkpt>
      <trkpt lat="48.16464" lon="6.78159">
        <ele>524.2</ele>
        <time>2024-11-17T10:37:45Z</time>
      </trkpt>
      <trkpt lat="48.16474" lon="6.78157">
        <ele>525.1</ele>
        <time>2024-11-17T10:37:52Z</time>
      </trkpt>
      <trkpt lat="48.16485" lon="6.78156">
        <ele>525.1</ele>
        <time>2024-11-17T10:37:58Z</time>
      </trkpt>
      <trkpt lat="48.16494" lon="6.78155">
        <ele>525.7</ele>
        <time>2024-11-17T10:38:04Z</time>
      </trkpt>
      <trkpt lat="48.16504" lon="6.78158">
        <ele>527.1</ele>
        <time>2024-11-17T10:38:11Z</time>
      </trkpt>
      <trkpt lat="48.16512" lon="6.78165">
        <ele>528.1</ele>
        <time>2024-11-17T10:38:18Z</time>
      </trkpt>
      <trkpt lat="48.1652" lon="6.78172">
        <ele>529.3</ele>
        <time>2024-11-17T10:38:25Z</time>
      </trkpt>
      <trkpt lat="48.16528" lon="6.7818">
        <ele>530.3</ele>
        <time>2024-11-17T10:38:32Z</time>
      </trkpt>
      <trkpt lat="48.16536" lon="6.78188">
        <ele>531.2</ele>
        <time>2024-11-17T10:38:40Z</time>
      </trkpt>
      <trkpt lat="48.16544" lon="6.78196">
        <ele>532.4</ele>
        <time>2024-11-17T10:38:47Z</time>
      </trkpt>
      <trkpt lat="48.16551" lon="6.78205">
        <ele>533.8</ele>
        <time>2024-11-17T10:38:54Z</time>
      </trkpt>
      <trkpt lat="48.16558" lon="6.78215">
        <ele>535.8</ele>
        <time>2024-11-17T10:39:02Z</time>
      </trkpt>
      <trkpt lat="48.16563" lon="6.78228">
        <ele>538</ele>
        <time>2024-11-17T10:39:10Z</time>
      </trkpt>
      <trkpt lat="48.16567" lon="6.7824">
        <ele>540.3</ele>
        <time>2024-11-17T10:39:18Z</time>
      </trkpt>
      <trkpt lat="48.16573" lon="6.78252">
        <ele>542.7</ele>
        <time>2024-11-17T10:39:27Z</time>
      </trkpt>
      <trkpt lat="48.16579" lon="6.78262">
        <ele>544.5</ele>
        <time>2024-11-17T10:39:35Z</time>
      </trkpt>
      <trkpt lat="48.16583" lon="6.78276">
        <ele>546.7</ele>
        <time>2024-11-17T10:39:43Z</time>
      </trkpt>
      <trkpt lat="48.16588" lon="6.78289">
        <ele>548.8</ele>
        <time>2024-11-17T10:39:51Z</time>
      </trkpt>
      <trkpt lat="48.16586" lon="6.78302">
        <ele>551</ele>
        <time>2024-11-17T10:40:07Z</time>
      </trkpt>
      <trkpt lat="48.16584" lon="6.78301">
        <ele>551.1</ele>
        <time>2024-11-17T10:40:12Z</time>
      </trkpt>
      <trkpt lat="48.16584" lon="6.78302">
        <ele>551.1</ele>
        <time>2024-11-17T10:40:13Z</time>
      </trkpt>
      <trkpt lat="48.16583" lon="6.78298">
        <ele>550.5</ele>
        <time>2024-11-17T10:40:27Z</time>
      </trkpt>
      <trkpt lat="48.16583" lon="6.78298">
        <ele>550.5</ele>
        <time>2024-11-17T10:40:28Z</time>
      </trkpt>
      <trkpt lat="48.16583" lon="6.78298">
        <ele>550.6</ele>
        <time>2024-11-17T10:40:29Z</time>
      </trkpt>
      <trkpt lat="48.16583" lon="6.78298">
        <ele>550.7</ele>
        <time>2024-11-17T10:40:30Z</time>
      </trkpt>
      <trkpt lat="48.16583" lon="6.78299">
        <ele>551.5</ele>
        <time>2024-11-17T10:40:31Z</time>
      </trkpt>
      <trkpt lat="48.16584" lon="6.783">
        <ele>551.6</ele>
        <time>2024-11-17T10:40:40Z</time>
      </trkpt>
      <trkpt lat="48.16584" lon="6.78301">
        <ele>551.7</ele>
        <time>2024-11-17T10:40:41Z</time>
      </trkpt>
      <trkpt lat="48.16581" lon="6.78314">
        <ele>553.9</ele>
        <time>2024-11-17T10:40:59Z</time>
      </trkpt>
      <trkpt lat="48.16577" lon="6.78327">
        <ele>555.9</ele>
        <time>2024-11-17T10:41:08Z</time>
      </trkpt>
      <trkpt lat="48.16575" lon="6.78331">
        <ele>556.7</ele>
        <time>2024-11-17T10:41:15Z</time>
      </trkpt>
      <trkpt lat="48.16575" lon="6.78331">
        <ele>556.8</ele>
        <time>2024-11-17T10:41:16Z</time>
      </trkpt>
      <trkpt lat="48.16575" lon="6.78331">
        <ele>556.9</ele>
        <time>2024-11-17T10:41:42Z</time>
      </trkpt>
      <trkpt lat="48.16575" lon="6.78333">
        <ele>557</ele>
        <time>2024-11-17T10:41:43Z</time>
      </trkpt>
      <trkpt lat="48.16574" lon="6.78334">
        <ele>557.8</ele>
        <time>2024-11-17T10:41:49Z</time>
      </trkpt>
      <trkpt lat="48.16574" lon="6.78334">
        <ele>557.9</ele>
        <time>2024-11-17T10:41:50Z</time>
      </trkpt>
      <trkpt lat="48.16573" lon="6.78334">
        <ele>558</ele>
        <time>2024-11-17T10:41:51Z</time>
      </trkpt>
      <trkpt lat="48.16573" lon="6.78334">
        <ele>558.1</ele>
        <time>2024-11-17T10:41:52Z</time>
      </trkpt>
      <trkpt lat="48.16572" lon="6.78335">
        <ele>558.1</ele>
        <time>2024-11-17T10:41:53Z</time>
      </trkpt>
      <trkpt lat="48.16571" lon="6.78337">
        <ele>558.2</ele>
        <time>2024-11-17T10:41:54Z</time>
      </trkpt>
      <trkpt lat="48.16567" lon="6.78349">
        <ele>560.5</ele>
        <time>2024-11-17T10:42:03Z</time>
      </trkpt>
      <trkpt lat="48.16561" lon="6.78359">
        <ele>562.7</ele>
        <time>2024-11-17T10:42:14Z</time>
      </trkpt>
      <trkpt lat="48.16557" lon="6.78372">
        <ele>564.5</ele>
        <time>2024-11-17T10:42:24Z</time>
      </trkpt>
      <trkpt lat="48.16552" lon="6.78384">
        <ele>565.6</ele>
        <time>2024-11-17T10:42:35Z</time>
      </trkpt>
      <trkpt lat="48.16549" lon="6.78388">
        <ele>566.2</ele>
        <time>2024-11-17T10:42:48Z</time>
      </trkpt>
      <trkpt lat="48.16549" lon="6.7839">
        <ele>566.8</ele>
        <time>2024-11-17T10:42:49Z</time>
      </trkpt>
      <trkpt lat="48.16549" lon="6.78391">
        <ele>566.9</ele>
        <time>2024-11-17T10:42:50Z</time>
      </trkpt>
      <trkpt lat="48.16549" lon="6.78393">
        <ele>567</ele>
        <time>2024-11-17T10:42:51Z</time>
      </trkpt>
      <trkpt lat="48.16542" lon="6.78403">
        <ele>568.9</ele>
        <time>2024-11-17T10:43:03Z</time>
      </trkpt>
      <trkpt lat="48.16537" lon="6.78415">
        <ele>571.2</ele>
        <time>2024-11-17T10:43:14Z</time>
      </trkpt>
      <trkpt lat="48.16532" lon="6.78428">
        <ele>574.4</ele>
        <time>2024-11-17T10:43:27Z</time>
      </trkpt>
      <trkpt lat="48.16526" lon="6.78439">
        <ele>576.6</ele>
        <time>2024-11-17T10:43:37Z</time>
      </trkpt>
      <trkpt lat="48.16522" lon="6.78451">
        <ele>579.2</ele>
        <time>2024-11-17T10:43:50Z</time>
      </trkpt>
      <trkpt lat="48.16516" lon="6.78462">
        <ele>580.8</ele>
        <time>2024-11-17T10:44:00Z</time>
      </trkpt>
      <trkpt lat="48.16509" lon="6.7847">
        <ele>582.5</ele>
        <time>2024-11-17T10:44:09Z</time>
      </trkpt>
      <trkpt lat="48.16501" lon="6.78476">
        <ele>584.2</ele>
        <time>2024-11-17T10:44:17Z</time>
      </trkpt>
      <trkpt lat="48.16493" lon="6.78483">
        <ele>585.1</ele>
        <time>2024-11-17T10:44:26Z</time>
      </trkpt>
      <trkpt lat="48.16486" lon="6.78493">
        <ele>586.4</ele>
        <time>2024-11-17T10:44:35Z</time>
      </trkpt>
      <trkpt lat="48.1648" lon="6.78505">
        <ele>587.5</ele>
        <time>2024-11-17T10:44:42Z</time>
      </trkpt>
      <trkpt lat="48.16476" lon="6.78518">
        <ele>588.3</ele>
        <time>2024-11-17T10:44:49Z</time>
      </trkpt>
      <trkpt lat="48.1647" lon="6.7853">
        <ele>589</ele>
        <time>2024-11-17T10:44:57Z</time>
      </trkpt>
      <trkpt lat="48.16463" lon="6.78541">
        <ele>589.6</ele>
        <time>2024-11-17T10:45:06Z</time>
      </trkpt>
      <trkpt lat="48.16456" lon="6.78551">
        <ele>590</ele>
        <time>2024-11-17T10:45:15Z</time>
      </trkpt>
      <trkpt lat="48.16449" lon="6.7856">
        <ele>589.9</ele>
        <time>2024-11-17T10:45:23Z</time>
      </trkpt>
      <trkpt lat="48.16442" lon="6.78571">
        <ele>589.9</ele>
        <time>2024-11-17T10:45:32Z</time>
      </trkpt>
      <trkpt lat="48.16435" lon="6.78582">
        <ele>590.1</ele>
        <time>2024-11-17T10:45:41Z</time>
      </trkpt>
      <trkpt lat="48.16428" lon="6.7859">
        <ele>590.7</ele>
        <time>2024-11-17T10:45:50Z</time>
      </trkpt>
      <trkpt lat="48.16421" lon="6.786">
        <ele>591.3</ele>
        <time>2024-11-17T10:46:00Z</time>
      </trkpt>
      <trkpt lat="48.16412" lon="6.78607">
        <ele>592.2</ele>
        <time>2024-11-17T10:46:08Z</time>
      </trkpt>
      <trkpt lat="48.16405" lon="6.78615">
        <ele>593.3</ele>
        <time>2024-11-17T10:46:16Z</time>
      </trkpt>
      <trkpt lat="48.16396" lon="6.78622">
        <ele>594.6</ele>
        <time>2024-11-17T10:46:24Z</time>
      </trkpt>
      <trkpt lat="48.16387" lon="6.78628">
        <ele>596</ele>
        <time>2024-11-17T10:46:32Z</time>
      </trkpt>
      <trkpt lat="48.16381" lon="6.78639">
        <ele>597.8</ele>
        <time>2024-11-17T10:46:41Z</time>
      </trkpt>
      <trkpt lat="48.16372" lon="6.78642">
        <ele>599.2</ele>
        <time>2024-11-17T10:46:51Z</time>
      </trkpt>
      <trkpt lat="48.16363" lon="6.78643">
        <ele>600.4</ele>
        <time>2024-11-17T10:46:57Z</time>
      </trkpt>
      <trkpt lat="48.16354" lon="6.78647">
        <ele>602.7</ele>
        <time>2024-11-17T10:47:06Z</time>
      </trkpt>
      <trkpt lat="48.16344" lon="6.7865">
        <ele>604</ele>
        <time>2024-11-17T10:47:14Z</time>
      </trkpt>
      <trkpt lat="48.16335" lon="6.78655">
        <ele>606.4</ele>
        <time>2024-11-17T10:47:23Z</time>
      </trkpt>
      <trkpt lat="48.16328" lon="6.78664">
        <ele>609.1</ele>
        <time>2024-11-17T10:47:32Z</time>
      </trkpt>
      <trkpt lat="48.16319" lon="6.78666">
        <ele>610.6</ele>
        <time>2024-11-17T10:47:40Z</time>
      </trkpt>
      <trkpt lat="48.16309" lon="6.78667">
        <ele>612.5</ele>
        <time>2024-11-17T10:47:50Z</time>
      </trkpt>
      <trkpt lat="48.163" lon="6.78672">
        <ele>615.5</ele>
        <time>2024-11-17T10:47:59Z</time>
      </trkpt>
      <trkpt lat="48.16291" lon="6.78676">
        <ele>618.1</ele>
        <time>2024-11-17T10:48:06Z</time>
      </trkpt>
      <trkpt lat="48.16285" lon="6.78679">
        <ele>619.8</ele>
        <time>2024-11-17T10:48:19Z</time>
      </trkpt>
      <trkpt lat="48.16284" lon="6.7868">
        <ele>619.8</ele>
        <time>2024-11-17T10:48:20Z</time>
      </trkpt>
      <trkpt lat="48.16284" lon="6.78681">
        <ele>620.2</ele>
        <time>2024-11-17T10:48:21Z</time>
      </trkpt>
      <trkpt lat="48.16283" lon="6.78682">
        <ele>620.3</ele>
        <time>2024-11-17T10:48:22Z</time>
      </trkpt>
      <trkpt lat="48.16283" lon="6.78683">
        <ele>620.4</ele>
        <time>2024-11-17T10:48:23Z</time>
      </trkpt>
      <trkpt lat="48.16277" lon="6.78694">
        <ele>622.5</ele>
        <time>2024-11-17T10:48:33Z</time>
      </trkpt>
      <trkpt lat="48.16274" lon="6.78707">
        <ele>624.4</ele>
        <time>2024-11-17T10:48:41Z</time>
      </trkpt>
      <trkpt lat="48.16269" lon="6.7872">
        <ele>625.2</ele>
        <time>2024-11-17T10:48:49Z</time>
      </trkpt>
      <trkpt lat="48.16263" lon="6.78731">
        <ele>626.2</ele>
        <time>2024-11-17T10:48:58Z</time>
      </trkpt>
      <trkpt lat="48.16258" lon="6.78743">
        <ele>626.7</ele>
        <time>2024-11-17T10:49:08Z</time>
      </trkpt>
      <trkpt lat="48.16255" lon="6.78758">
        <ele>625.6</ele>
        <time>2024-11-17T10:49:17Z</time>
      </trkpt>
      <trkpt lat="48.16251" lon="6.78772">
        <ele>625.3</ele>
        <time>2024-11-17T10:49:27Z</time>
      </trkpt>
      <trkpt lat="48.16246" lon="6.78784">
        <ele>624.6</ele>
        <time>2024-11-17T10:49:37Z</time>
      </trkpt>
      <trkpt lat="48.16242" lon="6.78797">
        <ele>624.6</ele>
        <time>2024-11-17T10:49:46Z</time>
      </trkpt>
      <trkpt lat="48.16235" lon="6.78807">
        <ele>625.1</ele>
        <time>2024-11-17T10:49:54Z</time>
      </trkpt>
      <trkpt lat="48.16233" lon="6.78821">
        <ele>624.9</ele>
        <time>2024-11-17T10:50:03Z</time>
      </trkpt>
      <trkpt lat="48.16232" lon="6.7883">
        <ele>624.8</ele>
        <time>2024-11-17T10:50:15Z</time>
      </trkpt>
      <trkpt lat="48.16232" lon="6.7883">
        <ele>624.8</ele>
        <time>2024-11-17T10:50:16Z</time>
      </trkpt>
      <trkpt lat="48.16232" lon="6.78832">
        <ele>624.7</ele>
        <time>2024-11-17T10:50:22Z</time>
      </trkpt>
      <trkpt lat="48.16232" lon="6.78833">
        <ele>624.7</ele>
        <time>2024-11-17T10:50:23Z</time>
      </trkpt>
      <trkpt lat="48.16231" lon="6.78834">
        <ele>624.7</ele>
        <time>2024-11-17T10:50:24Z</time>
      </trkpt>
      <trkpt lat="48.16226" lon="6.78846">
        <ele>624.5</ele>
        <time>2024-11-17T10:50:34Z</time>
      </trkpt>
      <trkpt lat="48.1622" lon="6.78857">
        <ele>624.3</ele>
        <time>2024-11-17T10:50:44Z</time>
      </trkpt>
      <trkpt lat="48.16218" lon="6.7886">
        <ele>624.2</ele>
        <time>2024-11-17T10:50:53Z</time>
      </trkpt>
      <trkpt lat="48.16218" lon="6.7886">
        <ele>624.2</ele>
        <time>2024-11-17T10:50:54Z</time>
      </trkpt>
      <trkpt lat="48.16217" lon="6.78861">
        <ele>624.2</ele>
        <time>2024-11-17T10:51:00Z</time>
      </trkpt>
      <trkpt lat="48.16217" lon="6.78861">
        <ele>624.2</ele>
        <time>2024-11-17T10:51:01Z</time>
      </trkpt>
      <trkpt lat="48.16217" lon="6.78861">
        <ele>624.2</ele>
        <time>2024-11-17T10:51:02Z</time>
      </trkpt>
      <trkpt lat="48.16216" lon="6.78861">
        <ele>624.2</ele>
        <time>2024-11-17T10:51:03Z</time>
      </trkpt>
      <trkpt lat="48.16215" lon="6.78862">
        <ele>624.1</ele>
        <time>2024-11-17T10:51:04Z</time>
      </trkpt>
      <trkpt lat="48.16215" lon="6.78863">
        <ele>624.1</ele>
        <time>2024-11-17T10:51:05Z</time>
      </trkpt>
      <trkpt lat="48.16214" lon="6.78864">
        <ele>624.1</ele>
        <time>2024-11-17T10:51:06Z</time>
      </trkpt>
      <trkpt lat="48.16207" lon="6.78872">
        <ele>623.8</ele>
        <time>2024-11-17T10:51:13Z</time>
      </trkpt>
      <trkpt lat="48.16199" lon="6.78881">
        <ele>623.6</ele>
        <time>2024-11-17T10:51:21Z</time>
      </trkpt>
      <trkpt lat="48.16191" lon="6.78889">
        <ele>623.4</ele>
        <time>2024-11-17T10:51:29Z</time>
      </trkpt>
      <trkpt lat="48.16184" lon="6.78899">
        <ele>623.3</ele>
        <time>2024-11-17T10:51:37Z</time>
      </trkpt>
      <trkpt lat="48.16176" lon="6.78909">
        <ele>623.3</ele>
        <time>2024-11-17T10:51:45Z</time>
      </trkpt>
      <trkpt lat="48.1617" lon="6.7892">
        <ele>623.3</ele>
        <time>2024-11-17T10:51:53Z</time>
      </trkpt>
      <trkpt lat="48.16163" lon="6.78931">
        <ele>623.4</ele>
        <time>2024-11-17T10:52:01Z</time>
      </trkpt>
      <trkpt lat="48.16157" lon="6.78944">
        <ele>623.5</ele>
        <time>2024-11-17T10:52:10Z</time>
      </trkpt>
      <trkpt lat="48.16152" lon="6.78955">
        <ele>623.6</ele>
        <time>2024-11-17T10:52:18Z</time>
      </trkpt>
      <trkpt lat="48.16147" lon="6.78967">
        <ele>623.7</ele>
        <time>2024-11-17T10:52:26Z</time>
      </trkpt>
      <trkpt lat="48.16143" lon="6.78979">
        <ele>623.9</ele>
        <time>2024-11-17T10:52:34Z</time>
      </trkpt>
      <trkpt lat="48.16138" lon="6.78992">
        <ele>624</ele>
        <time>2024-11-17T10:52:43Z</time>
      </trkpt>
      <trkpt lat="48.16133" lon="6.79004">
        <ele>624</ele>
        <time>2024-11-17T10:52:51Z</time>
      </trkpt>
      <trkpt lat="48.16129" lon="6.79013">
        <ele>623.9</ele>
        <time>2024-11-17T10:53:02Z</time>
      </trkpt>
      <trkpt lat="48.16129" lon="6.79013">
        <ele>623.9</ele>
        <time>2024-11-17T10:53:03Z</time>
      </trkpt>
      <trkpt lat="48.16129" lon="6.79014">
        <ele>623.9</ele>
        <time>2024-11-17T10:53:07Z</time>
      </trkpt>
      <trkpt lat="48.16129" lon="6.79014">
        <ele>623.8</ele>
        <time>2024-11-17T10:53:08Z</time>
      </trkpt>
      <trkpt lat="48.16121" lon="6.79022">
        <ele>625.8</ele>
        <time>2024-11-17T10:53:18Z</time>
      </trkpt>
      <trkpt lat="48.16113" lon="6.79032">
        <ele>628.2</ele>
        <time>2024-11-17T10:53:27Z</time>
      </trkpt>
      <trkpt lat="48.16108" lon="6.79044">
        <ele>629.4</ele>
        <time>2024-11-17T10:53:36Z</time>
      </trkpt>
      <trkpt lat="48.16102" lon="6.79056">
        <ele>631.2</ele>
        <time>2024-11-17T10:53:45Z</time>
      </trkpt>
      <trkpt lat="48.16095" lon="6.79066">
        <ele>633</ele>
        <time>2024-11-17T10:53:54Z</time>
      </trkpt>
      <trkpt lat="48.16089" lon="6.79077">
        <ele>634</ele>
        <time>2024-11-17T10:54:02Z</time>
      </trkpt>
      <trkpt lat="48.16083" lon="6.79088">
        <ele>635.1</ele>
        <time>2024-11-17T10:54:10Z</time>
      </trkpt>
      <trkpt lat="48.16079" lon="6.791">
        <ele>636.3</ele>
        <time>2024-11-17T10:54:18Z</time>
      </trkpt>
      <trkpt lat="48.16073" lon="6.79112">
        <ele>637.5</ele>
        <time>2024-11-17T10:54:27Z</time>
      </trkpt>
      <trkpt lat="48.16067" lon="6.79124">
        <ele>638.6</ele>
        <time>2024-11-17T10:54:36Z</time>
      </trkpt>
      <trkpt lat="48.16061" lon="6.79135">
        <ele>639.5</ele>
        <time>2024-11-17T10:54:44Z</time>
      </trkpt>
      <trkpt lat="48.16056" lon="6.79147">
        <ele>640</ele>
        <time>2024-11-17T10:54:52Z</time>
      </trkpt>
      <trkpt lat="48.16052" lon="6.7916">
        <ele>641</ele>
        <time>2024-11-17T10:55:00Z</time>
      </trkpt>
      <trkpt lat="48.16048" lon="6.79173">
        <ele>641.7</ele>
        <time>2024-11-17T10:55:08Z</time>
      </trkpt>
      <trkpt lat="48.16041" lon="6.79184">
        <ele>643.6</ele>
        <time>2024-11-17T10:55:17Z</time>
      </trkpt>
      <trkpt lat="48.16034" lon="6.79192">
        <ele>645</ele>
        <time>2024-11-17T10:55:24Z</time>
      </trkpt>
      <trkpt lat="48.16028" lon="6.79202">
        <ele>646.5</ele>
        <time>2024-11-17T10:55:32Z</time>
      </trkpt>
      <trkpt lat="48.16023" lon="6.79215">
        <ele>648.2</ele>
        <time>2024-11-17T10:55:41Z</time>
      </trkpt>
      <trkpt lat="48.16018" lon="6.79228">
        <ele>649.9</ele>
        <time>2024-11-17T10:55:50Z</time>
      </trkpt>
      <trkpt lat="48.16013" lon="6.7924">
        <ele>651.4</ele>
        <time>2024-11-17T10:55:59Z</time>
      </trkpt>
      <trkpt lat="48.1601" lon="6.79254">
        <ele>653.8</ele>
        <time>2024-11-17T10:56:08Z</time>
      </trkpt>
      <trkpt lat="48.16007" lon="6.79268">
        <ele>655.6</ele>
        <time>2024-11-17T10:56:17Z</time>
      </trkpt>
      <trkpt lat="48.16005" lon="6.79282">
        <ele>657.4</ele>
        <time>2024-11-17T10:56:26Z</time>
      </trkpt>
      <trkpt lat="48.16006" lon="6.79287">
        <ele>657.9</ele>
        <time>2024-11-17T10:56:35Z</time>
      </trkpt>
      <trkpt lat="48.16006" lon="6.79287">
        <ele>657.9</ele>
        <time>2024-11-17T10:56:36Z</time>
      </trkpt>
      <trkpt lat="48.16006" lon="6.79287">
        <ele>657.9</ele>
        <time>2024-11-17T10:56:37Z</time>
      </trkpt>
      <trkpt lat="48.16006" lon="6.7929">
        <ele>658.5</ele>
        <time>2024-11-17T10:56:52Z</time>
      </trkpt>
      <trkpt lat="48.16006" lon="6.79292">
        <ele>658.4</ele>
        <time>2024-11-17T10:56:53Z</time>
      </trkpt>
      <trkpt lat="48.16007" lon="6.79306">
        <ele>660.4</ele>
        <time>2024-11-17T10:57:01Z</time>
      </trkpt>
      <trkpt lat="48.16008" lon="6.79321">
        <ele>662.5</ele>
        <time>2024-11-17T10:57:11Z</time>
      </trkpt>
      <trkpt lat="48.16011" lon="6.79335">
        <ele>663.9</ele>
        <time>2024-11-17T10:57:20Z</time>
      </trkpt>
      <trkpt lat="48.16015" lon="6.79349">
        <ele>665.2</ele>
        <time>2024-11-17T10:57:29Z</time>
      </trkpt>
      <trkpt lat="48.16018" lon="6.79362">
        <ele>666.3</ele>
        <time>2024-11-17T10:57:38Z</time>
      </trkpt>
      <trkpt lat="48.16023" lon="6.79375">
        <ele>667</ele>
        <time>2024-11-17T10:57:46Z</time>
      </trkpt>
      <trkpt lat="48.16027" lon="6.79388">
        <ele>668.3</ele>
        <time>2024-11-17T10:57:55Z</time>
      </trkpt>
      <trkpt lat="48.1603" lon="6.79401">
        <ele>670.1</ele>
        <time>2024-11-17T10:58:03Z</time>
      </trkpt>
      <trkpt lat="48.16034" lon="6.79413">
        <ele>671.9</ele>
        <time>2024-11-17T10:58:11Z</time>
      </trkpt>
      <trkpt lat="48.16038" lon="6.79427">
        <ele>673.9</ele>
        <time>2024-11-17T10:58:20Z</time>
      </trkpt>
      <trkpt lat="48.16042" lon="6.79439">
        <ele>675.6</ele>
        <time>2024-11-17T10:58:29Z</time>
      </trkpt>
      <trkpt lat="48.16047" lon="6.79452">
        <ele>677.4</ele>
        <time>2024-11-17T10:58:37Z</time>
      </trkpt>
      <trkpt lat="48.16053" lon="6.79463">
        <ele>678.7</ele>
        <time>2024-11-17T10:58:45Z</time>
      </trkpt>
      <trkpt lat="48.16058" lon="6.79474">
        <ele>679.3</ele>
        <time>2024-11-17T10:58:53Z</time>
      </trkpt>
      <trkpt lat="48.16067" lon="6.79482">
        <ele>679.7</ele>
        <time>2024-11-17T10:59:02Z</time>
      </trkpt>
      <trkpt lat="48.16077" lon="6.79489">
        <ele>679.8</ele>
        <time>2024-11-17T10:59:11Z</time>
      </trkpt>
      <trkpt lat="48.16085" lon="6.79493">
        <ele>679.3</ele>
        <time>2024-11-17T10:59:19Z</time>
      </trkpt>
      <trkpt lat="48.16095" lon="6.79498">
        <ele>678.8</ele>
        <time>2024-11-17T10:59:29Z</time>
      </trkpt>
      <trkpt lat="48.16104" lon="6.79502">
        <ele>678.3</ele>
        <time>2024-11-17T10:59:38Z</time>
      </trkpt>
      <trkpt lat="48.16113" lon="6.79503">
        <ele>677.4</ele>
        <time>2024-11-17T10:59:46Z</time>
      </trkpt>
      <trkpt lat="48.16123" lon="6.795">
        <ele>676.5</ele>
        <time>2024-11-17T10:59:56Z</time>
      </trkpt>
      <trkpt lat="48.16133" lon="6.795">
        <ele>675.9</ele>
        <time>2024-11-17T11:00:04Z</time>
      </trkpt>
      <trkpt lat="48.16143" lon="6.79501">
        <ele>676</ele>
        <time>2024-11-17T11:00:11Z</time>
      </trkpt>
      <trkpt lat="48.16152" lon="6.79501">
        <ele>676.1</ele>
        <time>2024-11-17T11:00:19Z</time>
      </trkpt>
      <trkpt lat="48.16161" lon="6.795">
        <ele>676.1</ele>
        <time>2024-11-17T11:00:26Z</time>
      </trkpt>
      <trkpt lat="48.16171" lon="6.795">
        <ele>675.5</ele>
        <time>2024-11-17T11:00:35Z</time>
      </trkpt>
      <trkpt lat="48.1618" lon="6.795">
        <ele>675.4</ele>
        <time>2024-11-17T11:00:46Z</time>
      </trkpt>
      <trkpt lat="48.16189" lon="6.79502">
        <ele>675.5</ele>
        <time>2024-11-17T11:00:56Z</time>
      </trkpt>
      <trkpt lat="48.16199" lon="6.79502">
        <ele>675.1</ele>
        <time>2024-11-17T11:01:04Z</time>
      </trkpt>
      <trkpt lat="48.16208" lon="6.795">
        <ele>674.5</ele>
        <time>2024-11-17T11:01:13Z</time>
      </trkpt>
      <trkpt lat="48.16218" lon="6.79499">
        <ele>673.6</ele>
        <time>2024-11-17T11:01:23Z</time>
      </trkpt>
      <trkpt lat="48.16227" lon="6.79497">
        <ele>673.2</ele>
        <time>2024-11-17T11:01:31Z</time>
      </trkpt>
      <trkpt lat="48.16237" lon="6.795">
        <ele>672.8</ele>
        <time>2024-11-17T11:01:40Z</time>
      </trkpt>
      <trkpt lat="48.16245" lon="6.79504">
        <ele>673.1</ele>
        <time>2024-11-17T11:01:46Z</time>
      </trkpt>
      <trkpt lat="48.16255" lon="6.79502">
        <ele>672.9</ele>
        <time>2024-11-17T11:01:52Z</time>
      </trkpt>
      <trkpt lat="48.16265" lon="6.795">
        <ele>672</ele>
        <time>2024-11-17T11:02:00Z</time>
      </trkpt>
      <trkpt lat="48.16274" lon="6.79499">
        <ele>671.5</ele>
        <time>2024-11-17T11:02:09Z</time>
      </trkpt>
      <trkpt lat="48.16283" lon="6.795">
        <ele>671</ele>
        <time>2024-11-17T11:02:17Z</time>
      </trkpt>
      <trkpt lat="48.16293" lon="6.79501">
        <ele>671.4</ele>
        <time>2024-11-17T11:02:26Z</time>
      </trkpt>
      <trkpt lat="48.16303" lon="6.79504">
        <ele>671.3</ele>
        <time>2024-11-17T11:02:34Z</time>
      </trkpt>
      <trkpt lat="48.16313" lon="6.79506">
        <ele>672</ele>
        <time>2024-11-17T11:02:43Z</time>
      </trkpt>
      <trkpt lat="48.16322" lon="6.79508">
        <ele>672.2</ele>
        <time>2024-11-17T11:02:52Z</time>
      </trkpt>
      <trkpt lat="48.16331" lon="6.79508">
        <ele>672.6</ele>
        <time>2024-11-17T11:03:00Z</time>
      </trkpt>
      <trkpt lat="48.16341" lon="6.79507">
        <ele>672.9</ele>
        <time>2024-11-17T11:03:11Z</time>
      </trkpt>
      <trkpt lat="48.16351" lon="6.79508">
        <ele>673</ele>
        <time>2024-11-17T11:03:18Z</time>
      </trkpt>
      <trkpt lat="48.1636" lon="6.79504">
        <ele>672.6</ele>
        <time>2024-11-17T11:03:24Z</time>
      </trkpt>
      <trkpt lat="48.16369" lon="6.79499">
        <ele>672.2</ele>
        <time>2024-11-17T11:03:31Z</time>
      </trkpt>
      <trkpt lat="48.16377" lon="6.79494">
        <ele>671.7</ele>
        <time>2024-11-17T11:03:38Z</time>
      </trkpt>
      <trkpt lat="48.16385" lon="6.79487">
        <ele>670.9</ele>
        <time>2024-11-17T11:03:46Z</time>
      </trkpt>
      <trkpt lat="48.16392" lon="6.79478">
        <ele>669.8</ele>
        <time>2024-11-17T11:03:54Z</time>
      </trkpt>
      <trkpt lat="48.164" lon="6.7947">
        <ele>669</ele>
        <time>2024-11-17T11:04:03Z</time>
      </trkpt>
      <trkpt lat="48.1641" lon="6.79465">
        <ele>668.1</ele>
        <time>2024-11-17T11:04:12Z</time>
      </trkpt>
      <trkpt lat="48.16418" lon="6.79459">
        <ele>667.8</ele>
        <time>2024-11-17T11:04:20Z</time>
      </trkpt>
      <trkpt lat="48.16427" lon="6.79452">
        <ele>667.4</ele>
        <time>2024-11-17T11:04:28Z</time>
      </trkpt>
      <trkpt lat="48.16436" lon="6.79448">
        <ele>667.4</ele>
        <time>2024-11-17T11:04:38Z</time>
      </trkpt>
      <trkpt lat="48.16445" lon="6.79443">
        <ele>667.4</ele>
        <time>2024-11-17T11:04:46Z</time>
      </trkpt>
      <trkpt lat="48.16454" lon="6.79439">
        <ele>667.7</ele>
        <time>2024-11-17T11:04:55Z</time>
      </trkpt>
      <trkpt lat="48.16462" lon="6.79429">
        <ele>667.2</ele>
        <time>2024-11-17T11:05:04Z</time>
      </trkpt>
      <trkpt lat="48.16467" lon="6.7942">
        <ele>666.9</ele>
        <time>2024-11-17T11:05:15Z</time>
      </trkpt>
      <trkpt lat="48.16467" lon="6.7942">
        <ele>666.8</ele>
        <time>2024-11-17T11:05:16Z</time>
      </trkpt>
      <trkpt lat="48.16468" lon="6.79418">
        <ele>666.4</ele>
        <time>2024-11-17T11:05:47Z</time>
      </trkpt>
      <trkpt lat="48.16468" lon="6.79418">
        <ele>666.4</ele>
        <time>2024-11-17T11:05:48Z</time>
      </trkpt>
      <trkpt lat="48.16468" lon="6.79417">
        <ele>666.3</ele>
        <time>2024-11-17T11:05:52Z</time>
      </trkpt>
      <trkpt lat="48.16468" lon="6.79417">
        <ele>666.3</ele>
        <time>2024-11-17T11:05:53Z</time>
      </trkpt>
      <trkpt lat="48.16469" lon="6.79418">
        <ele>666.6</ele>
        <time>2024-11-17T11:06:02Z</time>
      </trkpt>
      <trkpt lat="48.16469" lon="6.79418">
        <ele>666.5</ele>
        <time>2024-11-17T11:06:03Z</time>
      </trkpt>
      <trkpt lat="48.1647" lon="6.79419">
        <ele>666.9</ele>
        <time>2024-11-17T11:06:04Z</time>
      </trkpt>
      <trkpt lat="48.16478" lon="6.79429">
        <ele>668.4</ele>
        <time>2024-11-17T11:06:12Z</time>
      </trkpt>
      <trkpt lat="48.16485" lon="6.79439">
        <ele>669.2</ele>
        <time>2024-11-17T11:06:20Z</time>
      </trkpt>
      <trkpt lat="48.16491" lon="6.7945">
        <ele>669.8</ele>
        <time>2024-11-17T11:06:28Z</time>
      </trkpt>
      <trkpt lat="48.16495" lon="6.79462">
        <ele>670.3</ele>
        <time>2024-11-17T11:06:36Z</time>
      </trkpt>
      <trkpt lat="48.16501" lon="6.79474">
        <ele>670.7</ele>
        <time>2024-11-17T11:06:44Z</time>
      </trkpt>
      <trkpt lat="48.16503" lon="6.79487">
        <ele>671.3</ele>
        <time>2024-11-17T11:06:51Z</time>
      </trkpt>
      <trkpt lat="48.16512" lon="6.7949">
        <ele>671.5</ele>
        <time>2024-11-17T11:06:58Z</time>
      </trkpt>
      <trkpt lat="48.16521" lon="6.79487">
        <ele>671.5</ele>
        <time>2024-11-17T11:07:06Z</time>
      </trkpt>
      <trkpt lat="48.16529" lon="6.7948">
        <ele>671.4</ele>
        <time>2024-11-17T11:07:14Z</time>
      </trkpt>
      <trkpt lat="48.16539" lon="6.79477">
        <ele>671.2</ele>
        <time>2024-11-17T11:07:22Z</time>
      </trkpt>
      <trkpt lat="48.16548" lon="6.79472">
        <ele>671</ele>
        <time>2024-11-17T11:07:31Z</time>
      </trkpt>
      <trkpt lat="48.16557" lon="6.79467">
        <ele>670.7</ele>
        <time>2024-11-17T11:07:38Z</time>
      </trkpt>
      <trkpt lat="48.16566" lon="6.79463">
        <ele>670.3</ele>
        <time>2024-11-17T11:07:46Z</time>
      </trkpt>
      <trkpt lat="48.16575" lon="6.79459">
        <ele>669.8</ele>
        <time>2024-11-17T11:07:53Z</time>
      </trkpt>
      <trkpt lat="48.16584" lon="6.79454">
        <ele>669.3</ele>
        <time>2024-11-17T11:08:01Z</time>
      </trkpt>
      <trkpt lat="48.16594" lon="6.7945">
        <ele>668.9</ele>
        <time>2024-11-17T11:08:10Z</time>
      </trkpt>
      <trkpt lat="48.16602" lon="6.79446">
        <ele>668.5</ele>
        <time>2024-11-17T11:08:18Z</time>
      </trkpt>
      <trkpt lat="48.16611" lon="6.79441">
        <ele>668.1</ele>
        <time>2024-11-17T11:08:24Z</time>
      </trkpt>
      <trkpt lat="48.16619" lon="6.79434">
        <ele>668.3</ele>
        <time>2024-11-17T11:08:32Z</time>
      </trkpt>
      <trkpt lat="48.16625" lon="6.79423">
        <ele>668.4</ele>
        <time>2024-11-17T11:08:39Z</time>
      </trkpt>
      <trkpt lat="48.16634" lon="6.79418">
        <ele>668.4</ele>
        <time>2024-11-17T11:08:46Z</time>
      </trkpt>
      <trkpt lat="48.16644" lon="6.79416">
        <ele>668.4</ele>
        <time>2024-11-17T11:08:53Z</time>
      </trkpt>
      <trkpt lat="48.16651" lon="6.79407">
        <ele>668.4</ele>
        <time>2024-11-17T11:09:01Z</time>
      </trkpt>
      <trkpt lat="48.1666" lon="6.79401">
        <ele>668.3</ele>
        <time>2024-11-17T11:09:10Z</time>
      </trkpt>
      <trkpt lat="48.16668" lon="6.79393">
        <ele>668.3</ele>
        <time>2024-11-17T11:09:19Z</time>
      </trkpt>
      <trkpt lat="48.16676" lon="6.79384">
        <ele>668.2</ele>
        <time>2024-11-17T11:09:27Z</time>
      </trkpt>
      <trkpt lat="48.16684" lon="6.79379">
        <ele>668</ele>
        <time>2024-11-17T11:09:35Z</time>
      </trkpt>
      <trkpt lat="48.16692" lon="6.79371">
        <ele>667.8</ele>
        <time>2024-11-17T11:09:43Z</time>
      </trkpt>
      <trkpt lat="48.16701" lon="6.79366">
        <ele>667.6</ele>
        <time>2024-11-17T11:09:51Z</time>
      </trkpt>
      <trkpt lat="48.16709" lon="6.79358">
        <ele>667.4</ele>
        <time>2024-11-17T11:09:59Z</time>
      </trkpt>
      <trkpt lat="48.16718" lon="6.79351">
        <ele>667.2</ele>
        <time>2024-11-17T11:10:07Z</time>
      </trkpt>
      <trkpt lat="48.16727" lon="6.79345">
        <ele>667.1</ele>
        <time>2024-11-17T11:10:16Z</time>
      </trkpt>
      <trkpt lat="48.16736" lon="6.79338">
        <ele>667</ele>
        <time>2024-11-17T11:10:25Z</time>
      </trkpt>
      <trkpt lat="48.16745" lon="6.79332">
        <ele>667</ele>
        <time>2024-11-17T11:10:33Z</time>
      </trkpt>
      <trkpt lat="48.16754" lon="6.79325">
        <ele>667</ele>
        <time>2024-11-17T11:10:41Z</time>
      </trkpt>
      <trkpt lat="48.16762" lon="6.79318">
        <ele>667</ele>
        <time>2024-11-17T11:10:49Z</time>
      </trkpt>
      <trkpt lat="48.16771" lon="6.79311">
        <ele>666.9</ele>
        <time>2024-11-17T11:10:56Z</time>
      </trkpt>
      <trkpt lat="48.16779" lon="6.79305">
        <ele>666.7</ele>
        <time>2024-11-17T11:11:04Z</time>
      </trkpt>
      <trkpt lat="48.16787" lon="6.79298">
        <ele>666.3</ele>
        <time>2024-11-17T11:11:12Z</time>
      </trkpt>
      <trkpt lat="48.16795" lon="6.79292">
        <ele>665.8</ele>
        <time>2024-11-17T11:11:21Z</time>
      </trkpt>
      <trkpt lat="48.16805" lon="6.79288">
        <ele>665.2</ele>
        <time>2024-11-17T11:11:30Z</time>
      </trkpt>
      <trkpt lat="48.16814" lon="6.7928">
        <ele>664.6</ele>
        <time>2024-11-17T11:11:38Z</time>
      </trkpt>
      <trkpt lat="48.16822" lon="6.79274">
        <ele>664</ele>
        <time>2024-11-17T11:11:47Z</time>
      </trkpt>
      <trkpt lat="48.16832" lon="6.7927">
        <ele>663.3</ele>
        <time>2024-11-17T11:11:55Z</time>
      </trkpt>
      <trkpt lat="48.16841" lon="6.79265">
        <ele>662.6</ele>
        <time>2024-11-17T11:12:04Z</time>
      </trkpt>
      <trkpt lat="48.16848" lon="6.79257">
        <ele>661.8</ele>
        <time>2024-11-17T11:12:13Z</time>
      </trkpt>
      <trkpt lat="48.16856" lon="6.79249">
        <ele>661.1</ele>
        <time>2024-11-17T11:12:22Z</time>
      </trkpt>
      <trkpt lat="48.16864" lon="6.79241">
        <ele>660.4</ele>
        <time>2024-11-17T11:12:31Z</time>
      </trkpt>
      <trkpt lat="48.16872" lon="6.79234">
        <ele>659.8</ele>
        <time>2024-11-17T11:12:40Z</time>
      </trkpt>
      <trkpt lat="48.1688" lon="6.79228">
        <ele>659.3</ele>
        <time>2024-11-17T11:12:48Z</time>
      </trkpt>
      <trkpt lat="48.1689" lon="6.79224">
        <ele>658.9</ele>
        <time>2024-11-17T11:12:57Z</time>
      </trkpt>
      <trkpt lat="48.16898" lon="6.79219">
        <ele>658.6</ele>
        <time>2024-11-17T11:13:05Z</time>
      </trkpt>
      <trkpt lat="48.16907" lon="6.79213">
        <ele>658.2</ele>
        <time>2024-11-17T11:13:14Z</time>
      </trkpt>
      <trkpt lat="48.16916" lon="6.79206">
        <ele>657.8</ele>
        <time>2024-11-17T11:13:23Z</time>
      </trkpt>
      <trkpt lat="48.16924" lon="6.79198">
        <ele>657.4</ele>
        <time>2024-11-17T11:13:33Z</time>
      </trkpt>
      <trkpt lat="48.16933" lon="6.79193">
        <ele>656.9</ele>
        <time>2024-11-17T11:13:42Z</time>
      </trkpt>
      <trkpt lat="48.16941" lon="6.79184">
        <ele>656.3</ele>
        <time>2024-11-17T11:13:52Z</time>
      </trkpt>
      <trkpt lat="48.16949" lon="6.79179">
        <ele>655.6</ele>
        <time>2024-11-17T11:14:01Z</time>
      </trkpt>
      <trkpt lat="48.16957" lon="6.79173">
        <ele>654.8</ele>
        <time>2024-11-17T11:14:11Z</time>
      </trkpt>
      <trkpt lat="48.16967" lon="6.79167">
        <ele>653.9</ele>
        <time>2024-11-17T11:14:21Z</time>
      </trkpt>
      <trkpt lat="48.16975" lon="6.79162">
        <ele>653.2</ele>
        <time>2024-11-17T11:14:30Z</time>
      </trkpt>
      <trkpt lat="48.16984" lon="6.79156">
        <ele>652.5</ele>
        <time>2024-11-17T11:14:40Z</time>
      </trkpt>
      <trkpt lat="48.16992" lon="6.79149">
        <ele>651.9</ele>
        <time>2024-11-17T11:14:50Z</time>
      </trkpt>
      <trkpt lat="48.17001" lon="6.79145">
        <ele>651.3</ele>
        <time>2024-11-17T11:15:00Z</time>
      </trkpt>
      <trkpt lat="48.17009" lon="6.79139">
        <ele>650.6</ele>
        <time>2024-11-17T11:15:10Z</time>
      </trkpt>
      <trkpt lat="48.17018" lon="6.79135">
        <ele>649.9</ele>
        <time>2024-11-17T11:15:20Z</time>
      </trkpt>
      <trkpt lat="48.17027" lon="6.79129">
        <ele>649.1</ele>
        <time>2024-11-17T11:15:30Z</time>
      </trkpt>
      <trkpt lat="48.17037" lon="6.79126">
        <ele>648.1</ele>
        <time>2024-11-17T11:15:39Z</time>
      </trkpt>
      <trkpt lat="48.17045" lon="6.79119">
        <ele>647.4</ele>
        <time>2024-11-17T11:15:48Z</time>
      </trkpt>
      <trkpt lat="48.17051" lon="6.79112">
        <ele>646.6</ele>
        <time>2024-11-17T11:16:00Z</time>
      </trkpt>
      <trkpt lat="48.17051" lon="6.79112">
        <ele>646.6</ele>
        <time>2024-11-17T11:16:01Z</time>
      </trkpt>
      <trkpt lat="48.17051" lon="6.79112">
        <ele>646.6</ele>
        <time>2024-11-17T11:16:02Z</time>
      </trkpt>
      <trkpt lat="48.17053" lon="6.7911">
        <ele>646.4</ele>
        <time>2024-11-17T11:16:29Z</time>
      </trkpt>
      <trkpt lat="48.17053" lon="6.79109">
        <ele>646.3</ele>
        <time>2024-11-17T11:16:30Z</time>
      </trkpt>
      <trkpt lat="48.17053" lon="6.79107">
        <ele>646.2</ele>
        <time>2024-11-17T11:16:31Z</time>
      </trkpt>
      <trkpt lat="48.17059" lon="6.79096">
        <ele>645.2</ele>
        <time>2024-11-17T11:16:41Z</time>
      </trkpt>
      <trkpt lat="48.1706" lon="6.79096">
        <ele>645.2</ele>
        <time>2024-11-17T11:16:48Z</time>
      </trkpt>
      <trkpt lat="48.1706" lon="6.79096">
        <ele>645.2</ele>
        <time>2024-11-17T11:16:49Z</time>
      </trkpt>
      <trkpt lat="48.17061" lon="6.79095">
        <ele>645.1</ele>
        <time>2024-11-17T11:17:27Z</time>
      </trkpt>
      <trkpt lat="48.17061" lon="6.79094">
        <ele>645</ele>
        <time>2024-11-17T11:17:28Z</time>
      </trkpt>
      <trkpt lat="48.17065" lon="6.7909">
        <ele>644.5</ele>
        <time>2024-11-17T11:17:37Z</time>
      </trkpt>
      <trkpt lat="48.17065" lon="6.7909">
        <ele>644.5</ele>
        <time>2024-11-17T11:17:38Z</time>
      </trkpt>
      <trkpt lat="48.17065" lon="6.7909">
        <ele>644.5</ele>
        <time>2024-11-17T11:17:44Z</time>
      </trkpt>
      <trkpt lat="48.17066" lon="6.79089">
        <ele>644.4</ele>
        <time>2024-11-17T11:17:45Z</time>
      </trkpt>
      <trkpt lat="48.17067" lon="6.79088">
        <ele>644.3</ele>
        <time>2024-11-17T11:17:46Z</time>
      </trkpt>
      <trkpt lat="48.17074" lon="6.79078">
        <ele>643.3</ele>
        <time>2024-11-17T11:17:56Z</time>
      </trkpt>
      <trkpt lat="48.17081" lon="6.79069">
        <ele>642.3</ele>
        <time>2024-11-17T11:18:06Z</time>
      </trkpt>
      <trkpt lat="48.17088" lon="6.79058">
        <ele>641.4</ele>
        <time>2024-11-17T11:18:15Z</time>
      </trkpt>
      <trkpt lat="48.17095" lon="6.79049">
        <ele>640.6</ele>
        <time>2024-11-17T11:18:24Z</time>
      </trkpt>
      <trkpt lat="48.17096" lon="6.79047">
        <ele>640.4</ele>
        <time>2024-11-17T11:18:32Z</time>
      </trkpt>
      <trkpt lat="48.17096" lon="6.79047">
        <ele>640.4</ele>
        <time>2024-11-17T11:18:33Z</time>
      </trkpt>
      <trkpt lat="48.17097" lon="6.79045">
        <ele>640.2</ele>
        <time>2024-11-17T11:18:52Z</time>
      </trkpt>
      <trkpt lat="48.17098" lon="6.79044">
        <ele>640.1</ele>
        <time>2024-11-17T11:18:53Z</time>
      </trkpt>
      <trkpt lat="48.17104" lon="6.79033">
        <ele>639.2</ele>
        <time>2024-11-17T11:19:04Z</time>
      </trkpt>
      <trkpt lat="48.17111" lon="6.79022">
        <ele>638.1</ele>
        <time>2024-11-17T11:19:14Z</time>
      </trkpt>
      <trkpt lat="48.17117" lon="6.79012">
        <ele>637</ele>
        <time>2024-11-17T11:19:24Z</time>
      </trkpt>
      <trkpt lat="48.17117" lon="6.79011">
        <ele>636.9</ele>
        <time>2024-11-17T11:19:29Z</time>
      </trkpt>
      <trkpt lat="48.17117" lon="6.79011">
        <ele>636.9</ele>
        <time>2024-11-17T11:19:30Z</time>
      </trkpt>
      <trkpt lat="48.17117" lon="6.79011">
        <ele>636.9</ele>
        <time>2024-11-17T11:19:31Z</time>
      </trkpt>
      <trkpt lat="48.1712" lon="6.79009">
        <ele>636.6</ele>
        <time>2024-11-17T11:20:09Z</time>
      </trkpt>
      <trkpt lat="48.1712" lon="6.79008">
        <ele>636.5</ele>
        <time>2024-11-17T11:20:10Z</time>
      </trkpt>
      <trkpt lat="48.17122" lon="6.79008">
        <ele>636.4</ele>
        <time>2024-11-17T11:20:11Z</time>
      </trkpt>
      <trkpt lat="48.17128" lon="6.78997">
        <ele>635.3</ele>
        <time>2024-11-17T11:20:19Z</time>
      </trkpt>
      <trkpt lat="48.17133" lon="6.78984">
        <ele>634.2</ele>
        <time>2024-11-17T11:20:28Z</time>
      </trkpt>
      <trkpt lat="48.17137" lon="6.7897">
        <ele>633.2</ele>
        <time>2024-11-17T11:20:38Z</time>
      </trkpt>
      <trkpt lat="48.1714" lon="6.78956">
        <ele>632.3</ele>
        <time>2024-11-17T11:20:46Z</time>
      </trkpt>
      <trkpt lat="48.17146" lon="6.78946">
        <ele>631.2</ele>
        <time>2024-11-17T11:20:54Z</time>
      </trkpt>
      <trkpt lat="48.17151" lon="6.78934">
        <ele>630.2</ele>
        <time>2024-11-17T11:21:02Z</time>
      </trkpt>
      <trkpt lat="48.17155" lon="6.78921">
        <ele>629.2</ele>
        <time>2024-11-17T11:21:12Z</time>
      </trkpt>
      <trkpt lat="48.17147" lon="6.78916">
        <ele>628.8</ele>
        <time>2024-11-17T11:21:20Z</time>
      </trkpt>
      <trkpt lat="48.17138" lon="6.78921">
        <ele>629.1</ele>
        <time>2024-11-17T11:21:28Z</time>
      </trkpt>
      <trkpt lat="48.17129" lon="6.78926">
        <ele>629.4</ele>
        <time>2024-11-17T11:21:36Z</time>
      </trkpt>
      <trkpt lat="48.17119" lon="6.78931">
        <ele>629.6</ele>
        <time>2024-11-17T11:21:44Z</time>
      </trkpt>
      <trkpt lat="48.1711" lon="6.78935">
        <ele>629.6</ele>
        <time>2024-11-17T11:21:52Z</time>
      </trkpt>
      <trkpt lat="48.171" lon="6.78938">
        <ele>629.6</ele>
        <time>2024-11-17T11:22:00Z</time>
      </trkpt>
      <trkpt lat="48.1709" lon="6.7894">
        <ele>629.6</ele>
        <time>2024-11-17T11:22:08Z</time>
      </trkpt>
      <trkpt lat="48.17081" lon="6.78942">
        <ele>629.6</ele>
        <time>2024-11-17T11:22:16Z</time>
      </trkpt>
      <trkpt lat="48.17071" lon="6.78944">
        <ele>629.6</ele>
        <time>2024-11-17T11:22:24Z</time>
      </trkpt>
      <trkpt lat="48.17062" lon="6.78944">
        <ele>629.6</ele>
        <time>2024-11-17T11:22:32Z</time>
      </trkpt>
      <trkpt lat="48.17053" lon="6.78945">
        <ele>629.7</ele>
        <time>2024-11-17T11:22:40Z</time>
      </trkpt>
      <trkpt lat="48.17043" lon="6.78945">
        <ele>629.7</ele>
        <time>2024-11-17T11:22:48Z</time>
      </trkpt>
      <trkpt lat="48.17034" lon="6.78946">
        <ele>629.7</ele>
        <time>2024-11-17T11:22:56Z</time>
      </trkpt>
      <trkpt lat="48.17025" lon="6.78946">
        <ele>629.7</ele>
        <time>2024-11-17T11:23:04Z</time>
      </trkpt>
      <trkpt lat="48.17016" lon="6.78946">
        <ele>629.7</ele>
        <time>2024-11-17T11:23:12Z</time>
      </trkpt>
      <trkpt lat="48.17006" lon="6.78944">
        <ele>629.7</ele>
        <time>2024-11-17T11:23:20Z</time>
      </trkpt>
      <trkpt lat="48.16997" lon="6.78942">
        <ele>629.7</ele>
        <time>2024-11-17T11:23:28Z</time>
      </trkpt>
      <trkpt lat="48.16988" lon="6.78939">
        <ele>629.8</ele>
        <time>2024-11-17T11:23:36Z</time>
      </trkpt>
      <trkpt lat="48.16978" lon="6.78938">
        <ele>629.8</ele>
        <time>2024-11-17T11:23:44Z</time>
      </trkpt>
      <trkpt lat="48.16969" lon="6.78937">
        <ele>629.8</ele>
        <time>2024-11-17T11:23:52Z</time>
      </trkpt>
      <trkpt lat="48.16959" lon="6.7894">
        <ele>629.8</ele>
        <time>2024-11-17T11:24:01Z</time>
      </trkpt>
      <trkpt lat="48.16949" lon="6.78941">
        <ele>629.7</ele>
        <time>2024-11-17T11:24:09Z</time>
      </trkpt>
      <trkpt lat="48.1694" lon="6.78942">
        <ele>629.7</ele>
        <time>2024-11-17T11:24:18Z</time>
      </trkpt>
      <trkpt lat="48.1693" lon="6.78942">
        <ele>629.6</ele>
        <time>2024-11-17T11:24:26Z</time>
      </trkpt>
      <trkpt lat="48.16921" lon="6.78943">
        <ele>629.6</ele>
        <time>2024-11-17T11:24:34Z</time>
      </trkpt>
      <trkpt lat="48.16912" lon="6.78943">
        <ele>629.5</ele>
        <time>2024-11-17T11:24:42Z</time>
      </trkpt>
      <trkpt lat="48.16903" lon="6.78942">
        <ele>629.5</ele>
        <time>2024-11-17T11:24:50Z</time>
      </trkpt>
      <trkpt lat="48.16894" lon="6.7894">
        <ele>629.4</ele>
        <time>2024-11-17T11:24:58Z</time>
      </trkpt>
      <trkpt lat="48.16885" lon="6.78938">
        <ele>629.4</ele>
        <time>2024-11-17T11:25:06Z</time>
      </trkpt>
      <trkpt lat="48.16875" lon="6.78937">
        <ele>629.4</ele>
        <time>2024-11-17T11:25:15Z</time>
      </trkpt>
      <trkpt lat="48.16866" lon="6.78935">
        <ele>629.3</ele>
        <time>2024-11-17T11:25:24Z</time>
      </trkpt>
      <trkpt lat="48.16856" lon="6.78934">
        <ele>629.3</ele>
        <time>2024-11-17T11:25:34Z</time>
      </trkpt>
      <trkpt lat="48.16847" lon="6.78935">
        <ele>629.3</ele>
        <time>2024-11-17T11:25:42Z</time>
      </trkpt>
      <trkpt lat="48.16838" lon="6.78938">
        <ele>629.3</ele>
        <time>2024-11-17T11:25:51Z</time>
      </trkpt>
      <trkpt lat="48.16828" lon="6.78936">
        <ele>629.2</ele>
        <time>2024-11-17T11:25:58Z</time>
      </trkpt>
      <trkpt lat="48.16819" lon="6.78935">
        <ele>629.2</ele>
        <time>2024-11-17T11:26:07Z</time>
      </trkpt>
      <trkpt lat="48.1681" lon="6.78935">
        <ele>629.3</ele>
        <time>2024-11-17T11:26:16Z</time>
      </trkpt>
      <trkpt lat="48.168" lon="6.78941">
        <ele>629.3</ele>
        <time>2024-11-17T11:26:25Z</time>
      </trkpt>
      <trkpt lat="48.16798" lon="6.78942">
        <ele>629.3</ele>
        <time>2024-11-17T11:26:30Z</time>
      </trkpt>
      <trkpt lat="48.16798" lon="6.78942">
        <ele>629.3</ele>
        <time>2024-11-17T11:26:31Z</time>
      </trkpt>
      <trkpt lat="48.16796" lon="6.78943">
        <ele>629.3</ele>
        <time>2024-11-17T11:27:55Z</time>
      </trkpt>
      <trkpt lat="48.16795" lon="6.78944">
        <ele>629.3</ele>
        <time>2024-11-17T11:27:56Z</time>
      </trkpt>
      <trkpt lat="48.16786" lon="6.78948">
        <ele>629.3</ele>
        <time>2024-11-17T11:28:05Z</time>
      </trkpt>
      <trkpt lat="48.16778" lon="6.78953">
        <ele>629.2</ele>
        <time>2024-11-17T11:28:14Z</time>
      </trkpt>
      <trkpt lat="48.16769" lon="6.78961">
        <ele>629.1</ele>
        <time>2024-11-17T11:28:23Z</time>
      </trkpt>
      <trkpt lat="48.1676" lon="6.78965">
        <ele>629</ele>
        <time>2024-11-17T11:28:31Z</time>
      </trkpt>
      <trkpt lat="48.16751" lon="6.78973">
        <ele>628.9</ele>
        <time>2024-11-17T11:28:41Z</time>
      </trkpt>
      <trkpt lat="48.16742" lon="6.78978">
        <ele>628.9</ele>
        <time>2024-11-17T11:28:50Z</time>
      </trkpt>
      <trkpt lat="48.16733" lon="6.78984">
        <ele>628.8</ele>
        <time>2024-11-17T11:28:59Z</time>
      </trkpt>
      <trkpt lat="48.16724" lon="6.7899">
        <ele>628.8</ele>
        <time>2024-11-17T11:29:08Z</time>
      </trkpt>
      <trkpt lat="48.16716" lon="6.78997">
        <ele>628.7</ele>
        <time>2024-11-17T11:29:17Z</time>
      </trkpt>
      <trkpt lat="48.16707" lon="6.79002">
        <ele>628.7</ele>
        <time>2024-11-17T11:29:25Z</time>
      </trkpt>
      <trkpt lat="48.16698" lon="6.79006">
        <ele>628.6</ele>
        <time>2024-11-17T11:29:34Z</time>
      </trkpt>
      <trkpt lat="48.1669" lon="6.79012">
        <ele>628.6</ele>
        <time>2024-11-17T11:29:42Z</time>
      </trkpt>
      <trkpt lat="48.16681" lon="6.79017">
        <ele>628.6</ele>
        <time>2024-11-17T11:29:50Z</time>
      </trkpt>
      <trkpt lat="48.16673" lon="6.79023">
        <ele>628.6</ele>
        <time>2024-11-17T11:29:57Z</time>
      </trkpt>
      <trkpt lat="48.16665" lon="6.79032">
        <ele>628.5</ele>
        <time>2024-11-17T11:30:05Z</time>
      </trkpt>
      <trkpt lat="48.16656" lon="6.79037">
        <ele>628.4</ele>
        <time>2024-11-17T11:30:14Z</time>
      </trkpt>
      <trkpt lat="48.16648" lon="6.79043">
        <ele>628.4</ele>
        <time>2024-11-17T11:30:22Z</time>
      </trkpt>
      <trkpt lat="48.1664" lon="6.79049">
        <ele>628.3</ele>
        <time>2024-11-17T11:30:30Z</time>
      </trkpt>
      <trkpt lat="48.16632" lon="6.79057">
        <ele>628.3</ele>
        <time>2024-11-17T11:30:39Z</time>
      </trkpt>
      <trkpt lat="48.16623" lon="6.79063">
        <ele>628.3</ele>
        <time>2024-11-17T11:30:47Z</time>
      </trkpt>
      <trkpt lat="48.16615" lon="6.79068">
        <ele>628.3</ele>
        <time>2024-11-17T11:30:54Z</time>
      </trkpt>
      <trkpt lat="48.16606" lon="6.79074">
        <ele>628.2</ele>
        <time>2024-11-17T11:31:02Z</time>
      </trkpt>
      <trkpt lat="48.16598" lon="6.79083">
        <ele>628.1</ele>
        <time>2024-11-17T11:31:10Z</time>
      </trkpt>
      <trkpt lat="48.16592" lon="6.79089">
        <ele>627.9</ele>
        <time>2024-11-17T11:31:22Z</time>
      </trkpt>
      <trkpt lat="48.16592" lon="6.79089">
        <ele>627.9</ele>
        <time>2024-11-17T11:31:23Z</time>
      </trkpt>
      <trkpt lat="48.1659" lon="6.79091">
        <ele>627.9</ele>
        <time>2024-11-17T11:31:29Z</time>
      </trkpt>
      <trkpt lat="48.16589" lon="6.79092">
        <ele>627.8</ele>
        <time>2024-11-17T11:31:30Z</time>
      </trkpt>
      <trkpt lat="48.16588" lon="6.79093">
        <ele>627.8</ele>
        <time>2024-11-17T11:31:31Z</time>
      </trkpt>
      <trkpt lat="48.16579" lon="6.79098">
        <ele>627.7</ele>
        <time>2024-11-17T11:31:39Z</time>
      </trkpt>
      <trkpt lat="48.1657" lon="6.79103">
        <ele>627.6</ele>
        <time>2024-11-17T11:31:48Z</time>
      </trkpt>
      <trkpt lat="48.16562" lon="6.79109">
        <ele>627.5</ele>
        <time>2024-11-17T11:31:56Z</time>
      </trkpt>
      <trkpt lat="48.16553" lon="6.79117">
        <ele>627.4</ele>
        <time>2024-11-17T11:32:04Z</time>
      </trkpt>
      <trkpt lat="48.16545" lon="6.79124">
        <ele>627.4</ele>
        <time>2024-11-17T11:32:12Z</time>
      </trkpt>
      <trkpt lat="48.16535" lon="6.79129">
        <ele>627.2</ele>
        <time>2024-11-17T11:32:20Z</time>
      </trkpt>
      <trkpt lat="48.16527" lon="6.79134">
        <ele>627.1</ele>
        <time>2024-11-17T11:32:28Z</time>
      </trkpt>
      <trkpt lat="48.16517" lon="6.79136">
        <ele>627</ele>
        <time>2024-11-17T11:32:37Z</time>
      </trkpt>
      <trkpt lat="48.1651" lon="6.79144">
        <ele>626.9</ele>
        <time>2024-11-17T11:32:43Z</time>
      </trkpt>
      <trkpt lat="48.16501" lon="6.79146">
        <ele>626.8</ele>
        <time>2024-11-17T11:32:49Z</time>
      </trkpt>
      <trkpt lat="48.16491" lon="6.79149">
        <ele>626.8</ele>
        <time>2024-11-17T11:32:58Z</time>
      </trkpt>
      <trkpt lat="48.16482" lon="6.7915">
        <ele>626.7</ele>
        <time>2024-11-17T11:33:06Z</time>
      </trkpt>
      <trkpt lat="48.16472" lon="6.7915">
        <ele>626.6</ele>
        <time>2024-11-17T11:33:15Z</time>
      </trkpt>
      <trkpt lat="48.16463" lon="6.79155">
        <ele>626.4</ele>
        <time>2024-11-17T11:33:23Z</time>
      </trkpt>
      <trkpt lat="48.16453" lon="6.79156">
        <ele>626.3</ele>
        <time>2024-11-17T11:33:31Z</time>
      </trkpt>
      <trkpt lat="48.16444" lon="6.79159">
        <ele>626.1</ele>
        <time>2024-11-17T11:33:40Z</time>
      </trkpt>
      <trkpt lat="48.16435" lon="6.7916">
        <ele>626</ele>
        <time>2024-11-17T11:33:48Z</time>
      </trkpt>
      <trkpt lat="48.16426" lon="6.79163">
        <ele>625.9</ele>
        <time>2024-11-17T11:33:56Z</time>
      </trkpt>
      <trkpt lat="48.16416" lon="6.79164">
        <ele>625.7</ele>
        <time>2024-11-17T11:34:05Z</time>
      </trkpt>
      <trkpt lat="48.16407" lon="6.79167">
        <ele>625.6</ele>
        <time>2024-11-17T11:34:15Z</time>
      </trkpt>
      <trkpt lat="48.16396" lon="6.79167">
        <ele>625.4</ele>
        <time>2024-11-17T11:34:24Z</time>
      </trkpt>
      <trkpt lat="48.16387" lon="6.7917">
        <ele>625.2</ele>
        <time>2024-11-17T11:34:32Z</time>
      </trkpt>
      <trkpt lat="48.16377" lon="6.79173">
        <ele>625</ele>
        <time>2024-11-17T11:34:40Z</time>
      </trkpt>
      <trkpt lat="48.16368" lon="6.79177">
        <ele>624.8</ele>
        <time>2024-11-17T11:34:50Z</time>
      </trkpt>
      <trkpt lat="48.16359" lon="6.79179">
        <ele>624.6</ele>
        <time>2024-11-17T11:34:57Z</time>
      </trkpt>
      <trkpt lat="48.1635" lon="6.7918">
        <ele>624.4</ele>
        <time>2024-11-17T11:35:06Z</time>
      </trkpt>
      <trkpt lat="48.16341" lon="6.79182">
        <ele>624.2</ele>
        <time>2024-11-17T11:35:17Z</time>
      </trkpt>
      <trkpt lat="48.16332" lon="6.79185">
        <ele>624</ele>
        <time>2024-11-17T11:35:25Z</time>
      </trkpt>
      <trkpt lat="48.16322" lon="6.79186">
        <ele>623.8</ele>
        <time>2024-11-17T11:35:33Z</time>
      </trkpt>
      <trkpt lat="48.16313" lon="6.79182">
        <ele>623.5</ele>
        <time>2024-11-17T11:35:40Z</time>
      </trkpt>
      <trkpt lat="48.16304" lon="6.79184">
        <ele>623.3</ele>
        <time>2024-11-17T11:35:48Z</time>
      </trkpt>
      <trkpt lat="48.16294" lon="6.79181">
        <ele>622.9</ele>
        <time>2024-11-17T11:35:57Z</time>
      </trkpt>
      <trkpt lat="48.16284" lon="6.79181">
        <ele>622.6</ele>
        <time>2024-11-17T11:36:06Z</time>
      </trkpt>
      <trkpt lat="48.16274" lon="6.79181">
        <ele>622.2</ele>
        <time>2024-11-17T11:36:12Z</time>
      </trkpt>
      <trkpt lat="48.16266" lon="6.79178">
        <ele>621.9</ele>
        <time>2024-11-17T11:36:19Z</time>
      </trkpt>
      <trkpt lat="48.16257" lon="6.79175">
        <ele>621.6</ele>
        <time>2024-11-17T11:36:28Z</time>
      </trkpt>
      <trkpt lat="48.16247" lon="6.79172">
        <ele>621.5</ele>
        <time>2024-11-17T11:36:38Z</time>
      </trkpt>
      <trkpt lat="48.16237" lon="6.7917">
        <ele>621.4</ele>
        <time>2024-11-17T11:36:47Z</time>
      </trkpt>
      <trkpt lat="48.16228" lon="6.79168">
        <ele>621.2</ele>
        <time>2024-11-17T11:36:55Z</time>
      </trkpt>
      <trkpt lat="48.16218" lon="6.79167">
        <ele>621.1</ele>
        <time>2024-11-17T11:37:01Z</time>
      </trkpt>
      <trkpt lat="48.16209" lon="6.79172">
        <ele>621</ele>
        <time>2024-11-17T11:37:09Z</time>
      </trkpt>
      <trkpt lat="48.162" lon="6.79175">
        <ele>620.9</ele>
        <time>2024-11-17T11:37:17Z</time>
      </trkpt>
      <trkpt lat="48.1619" lon="6.79176">
        <ele>620.7</ele>
        <time>2024-11-17T11:37:25Z</time>
      </trkpt>
      <trkpt lat="48.16181" lon="6.79177">
        <ele>620.6</ele>
        <time>2024-11-17T11:37:33Z</time>
      </trkpt>
      <trkpt lat="48.16171" lon="6.79176">
        <ele>620.5</ele>
        <time>2024-11-17T11:37:42Z</time>
      </trkpt>
      <trkpt lat="48.1617" lon="6.79174">
        <ele>620.4</ele>
        <time>2024-11-17T11:37:52Z</time>
      </trkpt>
      <trkpt lat="48.1617" lon="6.79174">
        <ele>620.4</ele>
        <time>2024-11-17T11:37:53Z</time>
      </trkpt>
      <trkpt lat="48.16171" lon="6.79173">
        <ele>620.4</ele>
        <time>2024-11-17T11:38:02Z</time>
      </trkpt>
      <trkpt lat="48.1617" lon="6.79173">
        <ele>620.4</ele>
        <time>2024-11-17T11:38:03Z</time>
      </trkpt>
      <trkpt lat="48.16161" lon="6.79171">
        <ele>620.3</ele>
        <time>2024-11-17T11:38:15Z</time>
      </trkpt>
      <trkpt lat="48.16159" lon="6.79173">
        <ele>620.2</ele>
        <time>2024-11-17T11:38:22Z</time>
      </trkpt>
      <trkpt lat="48.1616" lon="6.79173">
        <ele>620.2</ele>
        <time>2024-11-17T11:38:23Z</time>
      </trkpt>
      <trkpt lat="48.1616" lon="6.79173">
        <ele>620.2</ele>
        <time>2024-11-17T11:38:24Z</time>
      </trkpt>
      <trkpt lat="48.1616" lon="6.79173">
        <ele>620.2</ele>
        <time>2024-11-17T11:38:25Z</time>
      </trkpt>
      <trkpt lat="48.1616" lon="6.79174">
        <ele>620.2</ele>
        <time>2024-11-17T11:38:26Z</time>
      </trkpt>
      <trkpt lat="48.1616" lon="6.79175">
        <ele>620.2</ele>
        <time>2024-11-17T11:38:32Z</time>
      </trkpt>
      <trkpt lat="48.1616" lon="6.79174">
        <ele>620.2</ele>
        <time>2024-11-17T11:38:33Z</time>
      </trkpt>
      <trkpt lat="48.16155" lon="6.79163">
        <ele>620.1</ele>
        <time>2024-11-17T11:40:41Z</time>
      </trkpt>
      <trkpt lat="48.16156" lon="6.79165">
        <ele>620</ele>
        <time>2024-11-17T11:40:59Z</time>
      </trkpt>
      <trkpt lat="48.16155" lon="6.79166">
        <ele>620</ele>
        <time>2024-11-17T11:41:00Z</time>
      </trkpt>
      <trkpt lat="48.16156" lon="6.79167">
        <ele>620</ele>
        <time>2024-11-17T11:41:01Z</time>
      </trkpt>
      <trkpt lat="48.16156" lon="6.79167">
        <ele>620</ele>
        <time>2024-11-17T11:41:02Z</time>
      </trkpt>
      <trkpt lat="48.16156" lon="6.79168">
        <ele>620</ele>
        <time>2024-11-17T11:41:03Z</time>
      </trkpt>
      <trkpt lat="48.16149" lon="6.79173">
        <ele>619.8</ele>
        <time>2024-11-17T11:41:45Z</time>
      </trkpt>
      <trkpt lat="48.16149" lon="6.79174">
        <ele>619.8</ele>
        <time>2024-11-17T11:41:46Z</time>
      </trkpt>
      <trkpt lat="48.16147" lon="6.79173">
        <ele>619.8</ele>
        <time>2024-11-17T11:41:49Z</time>
      </trkpt>
      <trkpt lat="48.16147" lon="6.79174">
        <ele>619.8</ele>
        <time>2024-11-17T11:41:50Z</time>
      </trkpt>
      <trkpt lat="48.16147" lon="6.79173">
        <ele>619.8</ele>
        <time>2024-11-17T11:41:51Z</time>
      </trkpt>
      <trkpt lat="48.16148" lon="6.79172">
        <ele>619.8</ele>
        <time>2024-11-17T11:42:02Z</time>
      </trkpt>
      <trkpt lat="48.16148" lon="6.79173">
        <ele>619.8</ele>
        <time>2024-11-17T11:42:03Z</time>
      </trkpt>
      <trkpt lat="48.16148" lon="6.79173">
        <ele>619.8</ele>
        <time>2024-11-17T11:42:04Z</time>
      </trkpt>
      <trkpt lat="48.16148" lon="6.79173">
        <ele>619.8</ele>
        <time>2024-11-17T11:42:05Z</time>
      </trkpt>
      <trkpt lat="48.16148" lon="6.79173">
        <ele>619.8</ele>
        <time>2024-11-17T11:42:06Z</time>
      </trkpt>
      <trkpt lat="48.16148" lon="6.79173">
        <ele>619.8</ele>
        <time>2024-11-17T11:42:07Z</time>
      </trkpt>
      <trkpt lat="48.16149" lon="6.79176">
        <ele>619.7</ele>
        <time>2024-11-17T11:42:15Z</time>
      </trkpt>
      <trkpt lat="48.16149" lon="6.79176">
        <ele>619.7</ele>
        <time>2024-11-17T11:42:16Z</time>
      </trkpt>
      <trkpt lat="48.16149" lon="6.79177">
        <ele>619.7</ele>
        <time>2024-11-17T11:42:17Z</time>
      </trkpt>
      <trkpt lat="48.1615" lon="6.79177">
        <ele>619.7</ele>
        <time>2024-11-17T11:42:18Z</time>
      </trkpt>
      <trkpt lat="48.16144" lon="6.79172">
        <ele>619.6</ele>
        <time>2024-11-17T11:43:47Z</time>
      </trkpt>
      <trkpt lat="48.16144" lon="6.79171">
        <ele>619.6</ele>
        <time>2024-11-17T11:43:48Z</time>
      </trkpt>
      <trkpt lat="48.16149" lon="6.79174">
        <ele>619.5</ele>
        <time>2024-11-17T11:43:57Z</time>
      </trkpt>
      <trkpt lat="48.16149" lon="6.79174">
        <ele>619.5</ele>
        <time>2024-11-17T11:43:58Z</time>
      </trkpt>
      <trkpt lat="48.16141" lon="6.79182">
        <ele>619.3</ele>
        <time>2024-11-17T11:46:42Z</time>
      </trkpt>
      <trkpt lat="48.1615" lon="6.79183">
        <ele>619.1</ele>
        <time>2024-11-17T11:47:40Z</time>
      </trkpt>
      <trkpt lat="48.16156" lon="6.79193">
        <ele>618.9</ele>
        <time>2024-11-17T11:48:36Z</time>
      </trkpt>
      <trkpt lat="48.16161" lon="6.79205">
        <ele>618.7</ele>
        <time>2024-11-17T11:49:03Z</time>
      </trkpt>
      <trkpt lat="48.16153" lon="6.79198">
        <ele>618.5</ele>
        <time>2024-11-17T11:50:03Z</time>
      </trkpt>
      <trkpt lat="48.16149" lon="6.79185">
        <ele>618.3</ele>
        <time>2024-11-17T11:50:47Z</time>
      </trkpt>
      <trkpt lat="48.16153" lon="6.79185">
        <ele>618.1</ele>
        <time>2024-11-17T11:54:10Z</time>
      </trkpt>
      <trkpt lat="48.16153" lon="6.79184">
        <ele>618.1</ele>
        <time>2024-11-17T11:54:11Z</time>
      </trkpt>
      <trkpt lat="48.1616" lon="6.79174">
        <ele>617.9</ele>
        <time>2024-11-17T11:54:23Z</time>
      </trkpt>
      <trkpt lat="48.16168" lon="6.79167">
        <ele>617.7</ele>
        <time>2024-11-17T11:54:31Z</time>
      </trkpt>
      <trkpt lat="48.16177" lon="6.79166">
        <ele>616.9</ele>
        <time>2024-11-17T11:54:40Z</time>
      </trkpt>
      <trkpt lat="48.16186" lon="6.79162">
        <ele>616.1</ele>
        <time>2024-11-17T11:54:48Z</time>
      </trkpt>
      <trkpt lat="48.16195" lon="6.79161">
        <ele>615.4</ele>
        <time>2024-11-17T11:54:57Z</time>
      </trkpt>
      <trkpt lat="48.16205" lon="6.79157">
        <ele>614.6</ele>
        <time>2024-11-17T11:55:05Z</time>
      </trkpt>
      <trkpt lat="48.16213" lon="6.7915">
        <ele>614</ele>
        <time>2024-11-17T11:55:13Z</time>
      </trkpt>
      <trkpt lat="48.16222" lon="6.79143">
        <ele>613.3</ele>
        <time>2024-11-17T11:55:21Z</time>
      </trkpt>
      <trkpt lat="48.16229" lon="6.79135">
        <ele>612.8</ele>
        <time>2024-11-17T11:55:29Z</time>
      </trkpt>
      <trkpt lat="48.16235" lon="6.79125">
        <ele>612.2</ele>
        <time>2024-11-17T11:55:38Z</time>
      </trkpt>
      <trkpt lat="48.16244" lon="6.79119">
        <ele>611.6</ele>
        <time>2024-11-17T11:55:46Z</time>
      </trkpt>
      <trkpt lat="48.16251" lon="6.79111">
        <ele>611.1</ele>
        <time>2024-11-17T11:55:54Z</time>
      </trkpt>
      <trkpt lat="48.16259" lon="6.79104">
        <ele>610.6</ele>
        <time>2024-11-17T11:56:02Z</time>
      </trkpt>
      <trkpt lat="48.16264" lon="6.79093">
        <ele>610.1</ele>
        <time>2024-11-17T11:56:10Z</time>
      </trkpt>
      <trkpt lat="48.16272" lon="6.79084">
        <ele>609.5</ele>
        <time>2024-11-17T11:56:21Z</time>
      </trkpt>
      <trkpt lat="48.16282" lon="6.7908">
        <ele>608.9</ele>
        <time>2024-11-17T11:56:30Z</time>
      </trkpt>
      <trkpt lat="48.16291" lon="6.79077">
        <ele>608.3</ele>
        <time>2024-11-17T11:56:38Z</time>
      </trkpt>
      <trkpt lat="48.163" lon="6.79075">
        <ele>607.7</ele>
        <time>2024-11-17T11:56:45Z</time>
      </trkpt>
      <trkpt lat="48.16309" lon="6.79072">
        <ele>607</ele>
        <time>2024-11-17T11:56:53Z</time>
      </trkpt>
      <trkpt lat="48.16317" lon="6.79064">
        <ele>606.4</ele>
        <time>2024-11-17T11:57:03Z</time>
      </trkpt>
      <trkpt lat="48.16325" lon="6.79057">
        <ele>605.6</ele>
        <time>2024-11-17T11:57:12Z</time>
      </trkpt>
      <trkpt lat="48.16334" lon="6.7905">
        <ele>604.8</ele>
        <time>2024-11-17T11:57:23Z</time>
      </trkpt>
      <trkpt lat="48.16342" lon="6.79044">
        <ele>604</ele>
        <time>2024-11-17T11:57:31Z</time>
      </trkpt>
      <trkpt lat="48.16351" lon="6.79037">
        <ele>603.2</ele>
        <time>2024-11-17T11:57:39Z</time>
      </trkpt>
      <trkpt lat="48.1636" lon="6.79029">
        <ele>602.4</ele>
        <time>2024-11-17T11:57:48Z</time>
      </trkpt>
      <trkpt lat="48.16368" lon="6.79025">
        <ele>601.6</ele>
        <time>2024-11-17T11:57:56Z</time>
      </trkpt>
      <trkpt lat="48.16376" lon="6.79017">
        <ele>600.8</ele>
        <time>2024-11-17T11:58:05Z</time>
      </trkpt>
      <trkpt lat="48.16385" lon="6.79012">
        <ele>600</ele>
        <time>2024-11-17T11:58:13Z</time>
      </trkpt>
      <trkpt lat="48.16392" lon="6.79003">
        <ele>599.2</ele>
        <time>2024-11-17T11:58:21Z</time>
      </trkpt>
      <trkpt lat="48.16401" lon="6.78997">
        <ele>598.3</ele>
        <time>2024-11-17T11:58:30Z</time>
      </trkpt>
      <trkpt lat="48.16408" lon="6.78989">
        <ele>597.6</ele>
        <time>2024-11-17T11:58:37Z</time>
      </trkpt>
      <trkpt lat="48.16417" lon="6.78984">
        <ele>596.7</ele>
        <time>2024-11-17T11:58:46Z</time>
      </trkpt>
      <trkpt lat="48.16425" lon="6.78978">
        <ele>596</ele>
        <time>2024-11-17T11:58:56Z</time>
      </trkpt>
      <trkpt lat="48.16433" lon="6.7897">
        <ele>595.2</ele>
        <time>2024-11-17T11:59:05Z</time>
      </trkpt>
      <trkpt lat="48.16441" lon="6.78965">
        <ele>594.4</ele>
        <time>2024-11-17T11:59:12Z</time>
      </trkpt>
      <trkpt lat="48.16448" lon="6.78955">
        <ele>593.6</ele>
        <time>2024-11-17T11:59:21Z</time>
      </trkpt>
      <trkpt lat="48.16457" lon="6.7895">
        <ele>592.9</ele>
        <time>2024-11-17T11:59:29Z</time>
      </trkpt>
      <trkpt lat="48.16464" lon="6.78941">
        <ele>592.1</ele>
        <time>2024-11-17T11:59:39Z</time>
      </trkpt>
      <trkpt lat="48.16472" lon="6.78932">
        <ele>591.3</ele>
        <time>2024-11-17T11:59:48Z</time>
      </trkpt>
      <trkpt lat="48.1648" lon="6.78924">
        <ele>590.6</ele>
        <time>2024-11-17T11:59:58Z</time>
      </trkpt>
      <trkpt lat="48.16488" lon="6.78915">
        <ele>589.8</ele>
        <time>2024-11-17T12:00:09Z</time>
      </trkpt>
      <trkpt lat="48.16494" lon="6.78904">
        <ele>589.1</ele>
        <time>2024-11-17T12:00:21Z</time>
      </trkpt>
      <trkpt lat="48.16502" lon="6.78895">
        <ele>588.3</ele>
        <time>2024-11-17T12:00:29Z</time>
      </trkpt>
      <trkpt lat="48.16511" lon="6.78889">
        <ele>587.6</ele>
        <time>2024-11-17T12:00:38Z</time>
      </trkpt>
      <trkpt lat="48.16519" lon="6.78883">
        <ele>586.8</ele>
        <time>2024-11-17T12:00:50Z</time>
      </trkpt>
      <trkpt lat="48.16527" lon="6.78873">
        <ele>585.8</ele>
        <time>2024-11-17T12:00:56Z</time>
      </trkpt>
      <trkpt lat="48.16535" lon="6.78868">
        <ele>585</ele>
        <time>2024-11-17T12:01:04Z</time>
      </trkpt>
      <trkpt lat="48.16543" lon="6.78861">
        <ele>584.2</ele>
        <time>2024-11-17T12:01:13Z</time>
      </trkpt>
      <trkpt lat="48.16553" lon="6.78858">
        <ele>583.3</ele>
        <time>2024-11-17T12:01:20Z</time>
      </trkpt>
      <trkpt lat="48.16562" lon="6.78853">
        <ele>582.4</ele>
        <time>2024-11-17T12:01:27Z</time>
      </trkpt>
      <trkpt lat="48.1657" lon="6.78845">
        <ele>581.5</ele>
        <time>2024-11-17T12:01:35Z</time>
      </trkpt>
      <trkpt lat="48.16578" lon="6.78838">
        <ele>580.7</ele>
        <time>2024-11-17T12:01:44Z</time>
      </trkpt>
      <trkpt lat="48.16583" lon="6.78825">
        <ele>579.9</ele>
        <time>2024-11-17T12:01:53Z</time>
      </trkpt>
      <trkpt lat="48.16591" lon="6.78818">
        <ele>579.1</ele>
        <time>2024-11-17T12:02:02Z</time>
      </trkpt>
      <trkpt lat="48.166" lon="6.78812">
        <ele>578.3</ele>
        <time>2024-11-17T12:02:09Z</time>
      </trkpt>
      <trkpt lat="48.16608" lon="6.78805">
        <ele>577.6</ele>
        <time>2024-11-17T12:02:18Z</time>
      </trkpt>
      <trkpt lat="48.16616" lon="6.78796">
        <ele>576.8</ele>
        <time>2024-11-17T12:02:26Z</time>
      </trkpt>
      <trkpt lat="48.16622" lon="6.78786">
        <ele>576.1</ele>
        <time>2024-11-17T12:02:35Z</time>
      </trkpt>
      <trkpt lat="48.16629" lon="6.78777">
        <ele>575.4</ele>
        <time>2024-11-17T12:02:44Z</time>
      </trkpt>
      <trkpt lat="48.16636" lon="6.78767">
        <ele>574.7</ele>
        <time>2024-11-17T12:02:53Z</time>
      </trkpt>
      <trkpt lat="48.16644" lon="6.78759">
        <ele>574</ele>
        <time>2024-11-17T12:03:01Z</time>
      </trkpt>
      <trkpt lat="48.16652" lon="6.78751">
        <ele>573.2</ele>
        <time>2024-11-17T12:03:10Z</time>
      </trkpt>
      <trkpt lat="48.16659" lon="6.7874">
        <ele>572.4</ele>
        <time>2024-11-17T12:03:19Z</time>
      </trkpt>
      <trkpt lat="48.16667" lon="6.78735">
        <ele>571.7</ele>
        <time>2024-11-17T12:03:28Z</time>
      </trkpt>
      <trkpt lat="48.16676" lon="6.78727">
        <ele>571.7</ele>
        <time>2024-11-17T12:03:37Z</time>
      </trkpt>
      <trkpt lat="48.16683" lon="6.78718">
        <ele>571.9</ele>
        <time>2024-11-17T12:03:46Z</time>
      </trkpt>
      <trkpt lat="48.16691" lon="6.78711">
        <ele>572</ele>
        <time>2024-11-17T12:03:54Z</time>
      </trkpt>
      <trkpt lat="48.16699" lon="6.78704">
        <ele>572.1</ele>
        <time>2024-11-17T12:04:03Z</time>
      </trkpt>
      <trkpt lat="48.16707" lon="6.78696">
        <ele>572.1</ele>
        <time>2024-11-17T12:04:12Z</time>
      </trkpt>
      <trkpt lat="48.16715" lon="6.78689">
        <ele>572.2</ele>
        <time>2024-11-17T12:04:20Z</time>
      </trkpt>
      <trkpt lat="48.16723" lon="6.7868">
        <ele>572.5</ele>
        <time>2024-11-17T12:04:28Z</time>
      </trkpt>
      <trkpt lat="48.16731" lon="6.78672">
        <ele>572.8</ele>
        <time>2024-11-17T12:04:38Z</time>
      </trkpt>
      <trkpt lat="48.16737" lon="6.78661">
        <ele>573</ele>
        <time>2024-11-17T12:04:49Z</time>
      </trkpt>
      <trkpt lat="48.16744" lon="6.78652">
        <ele>573.3</ele>
        <time>2024-11-17T12:04:57Z</time>
      </trkpt>
      <trkpt lat="48.16751" lon="6.78641">
        <ele>573.4</ele>
        <time>2024-11-17T12:05:06Z</time>
      </trkpt>
      <trkpt lat="48.16759" lon="6.78633">
        <ele>573.5</ele>
        <time>2024-11-17T12:05:13Z</time>
      </trkpt>
      <trkpt lat="48.16767" lon="6.78624">
        <ele>573.6</ele>
        <time>2024-11-17T12:05:21Z</time>
      </trkpt>
      <trkpt lat="48.16772" lon="6.78612">
        <ele>573.7</ele>
        <time>2024-11-17T12:05:30Z</time>
      </trkpt>
      <trkpt lat="48.1678" lon="6.78605">
        <ele>573.7</ele>
        <time>2024-11-17T12:05:37Z</time>
      </trkpt>
      <trkpt lat="48.16788" lon="6.78597">
        <ele>573.6</ele>
        <time>2024-11-17T12:05:45Z</time>
      </trkpt>
      <trkpt lat="48.16793" lon="6.78585">
        <ele>573.5</ele>
        <time>2024-11-17T12:05:53Z</time>
      </trkpt>
      <trkpt lat="48.16799" lon="6.78575">
        <ele>573.4</ele>
        <time>2024-11-17T12:06:03Z</time>
      </trkpt>
      <trkpt lat="48.16806" lon="6.78565">
        <ele>573.2</ele>
        <time>2024-11-17T12:06:12Z</time>
      </trkpt>
      <trkpt lat="48.16815" lon="6.78562">
        <ele>573</ele>
        <time>2024-11-17T12:06:20Z</time>
      </trkpt>
      <trkpt lat="48.16822" lon="6.78551">
        <ele>572.7</ele>
        <time>2024-11-17T12:06:29Z</time>
      </trkpt>
      <trkpt lat="48.16827" lon="6.78539">
        <ele>572.4</ele>
        <time>2024-11-17T12:06:43Z</time>
      </trkpt>
      <trkpt lat="48.16836" lon="6.78538">
        <ele>572.1</ele>
        <time>2024-11-17T12:06:54Z</time>
      </trkpt>
      <trkpt lat="48.16845" lon="6.78537">
        <ele>571.7</ele>
        <time>2024-11-17T12:07:03Z</time>
      </trkpt>
      <trkpt lat="48.16855" lon="6.78538">
        <ele>571.3</ele>
        <time>2024-11-17T12:07:10Z</time>
      </trkpt>
      <trkpt lat="48.16864" lon="6.78541">
        <ele>570.8</ele>
        <time>2024-11-17T12:07:18Z</time>
      </trkpt>
      <trkpt lat="48.16874" lon="6.78544">
        <ele>570.3</ele>
        <time>2024-11-17T12:07:26Z</time>
      </trkpt>
      <trkpt lat="48.16882" lon="6.78549">
        <ele>569.8</ele>
        <time>2024-11-17T12:07:33Z</time>
      </trkpt>
      <trkpt lat="48.16891" lon="6.78553">
        <ele>569.3</ele>
        <time>2024-11-17T12:07:41Z</time>
      </trkpt>
      <trkpt lat="48.169" lon="6.78557">
        <ele>568.8</ele>
        <time>2024-11-17T12:07:49Z</time>
      </trkpt>
      <trkpt lat="48.1691" lon="6.78557">
        <ele>568.3</ele>
        <time>2024-11-17T12:07:56Z</time>
      </trkpt>
      <trkpt lat="48.16919" lon="6.78559">
        <ele>567.9</ele>
        <time>2024-11-17T12:08:02Z</time>
      </trkpt>
      <trkpt lat="48.16929" lon="6.78559">
        <ele>567.5</ele>
        <time>2024-11-17T12:08:09Z</time>
      </trkpt>
      <trkpt lat="48.16938" lon="6.78559">
        <ele>567.1</ele>
        <time>2024-11-17T12:08:16Z</time>
      </trkpt>
      <trkpt lat="48.16947" lon="6.78559">
        <ele>566.7</ele>
        <time>2024-11-17T12:08:23Z</time>
      </trkpt>
      <trkpt lat="48.16956" lon="6.78554">
        <ele>566.3</ele>
        <time>2024-11-17T12:08:31Z</time>
      </trkpt>
      <trkpt lat="48.16965" lon="6.78551">
        <ele>566.1</ele>
        <time>2024-11-17T12:08:39Z</time>
      </trkpt>
      <trkpt lat="48.16974" lon="6.7855">
        <ele>565.9</ele>
        <time>2024-11-17T12:08:48Z</time>
      </trkpt>
      <trkpt lat="48.16984" lon="6.78548">
        <ele>565.7</ele>
        <time>2024-11-17T12:08:56Z</time>
      </trkpt>
      <trkpt lat="48.16994" lon="6.78547">
        <ele>565.5</ele>
        <time>2024-11-17T12:09:04Z</time>
      </trkpt>
      <trkpt lat="48.17003" lon="6.78546">
        <ele>565.2</ele>
        <time>2024-11-17T12:09:12Z</time>
      </trkpt>
      <trkpt lat="48.17012" lon="6.78544">
        <ele>564.9</ele>
        <time>2024-11-17T12:09:19Z</time>
      </trkpt>
      <trkpt lat="48.17021" lon="6.78542">
        <ele>564.6</ele>
        <time>2024-11-17T12:09:26Z</time>
      </trkpt>
      <trkpt lat="48.17031" lon="6.78538">
        <ele>564.3</ele>
        <time>2024-11-17T12:09:35Z</time>
      </trkpt>
      <trkpt lat="48.1704" lon="6.78533">
        <ele>564</ele>
        <time>2024-11-17T12:09:44Z</time>
      </trkpt>
      <trkpt lat="48.17049" lon="6.78529">
        <ele>563.8</ele>
        <time>2024-11-17T12:09:53Z</time>
      </trkpt>
      <trkpt lat="48.17059" lon="6.78524">
        <ele>563.6</ele>
        <time>2024-11-17T12:10:02Z</time>
      </trkpt>
      <trkpt lat="48.17069" lon="6.78521">
        <ele>563.6</ele>
        <time>2024-11-17T12:10:11Z</time>
      </trkpt>
      <trkpt lat="48.17079" lon="6.78519">
        <ele>563.5</ele>
        <time>2024-11-17T12:10:19Z</time>
      </trkpt>
      <trkpt lat="48.17088" lon="6.78516">
        <ele>563.4</ele>
        <time>2024-11-17T12:10:26Z</time>
      </trkpt>
      <trkpt lat="48.17098" lon="6.78512">
        <ele>563.1</ele>
        <time>2024-11-17T12:10:35Z</time>
      </trkpt>
      <trkpt lat="48.17107" lon="6.78506">
        <ele>562.8</ele>
        <time>2024-11-17T12:10:43Z</time>
      </trkpt>
      <trkpt lat="48.17115" lon="6.78501">
        <ele>562.5</ele>
        <time>2024-11-17T12:10:52Z</time>
      </trkpt>
      <trkpt lat="48.17124" lon="6.78494">
        <ele>562.1</ele>
        <time>2024-11-17T12:11:00Z</time>
      </trkpt>
      <trkpt lat="48.17133" lon="6.78488">
        <ele>561.9</ele>
        <time>2024-11-17T12:11:08Z</time>
      </trkpt>
      <trkpt lat="48.17141" lon="6.78482">
        <ele>561.7</ele>
        <time>2024-11-17T12:11:15Z</time>
      </trkpt>
      <trkpt lat="48.1715" lon="6.78476">
        <ele>561.6</ele>
        <time>2024-11-17T12:11:22Z</time>
      </trkpt>
      <trkpt lat="48.17157" lon="6.78467">
        <ele>561.3</ele>
        <time>2024-11-17T12:11:28Z</time>
      </trkpt>
      <trkpt lat="48.17163" lon="6.78457">
        <ele>561.1</ele>
        <time>2024-11-17T12:11:37Z</time>
      </trkpt>
      <trkpt lat="48.17169" lon="6.78445">
        <ele>561</ele>
        <time>2024-11-17T12:11:46Z</time>
      </trkpt>
      <trkpt lat="48.17174" lon="6.78433">
        <ele>561</ele>
        <time>2024-11-17T12:11:54Z</time>
      </trkpt>
      <trkpt lat="48.17178" lon="6.7842">
        <ele>560.9</ele>
        <time>2024-11-17T12:12:01Z</time>
      </trkpt>
      <trkpt lat="48.17182" lon="6.78408">
        <ele>560.5</ele>
        <time>2024-11-17T12:12:09Z</time>
      </trkpt>
      <trkpt lat="48.17186" lon="6.78395">
        <ele>560.1</ele>
        <time>2024-11-17T12:12:16Z</time>
      </trkpt>
      <trkpt lat="48.17187" lon="6.7838">
        <ele>559.8</ele>
        <time>2024-11-17T12:12:24Z</time>
      </trkpt>
      <trkpt lat="48.17186" lon="6.78365">
        <ele>559.7</ele>
        <time>2024-11-17T12:12:35Z</time>
      </trkpt>
      <trkpt lat="48.17188" lon="6.7835">
        <ele>559.8</ele>
        <time>2024-11-17T12:12:41Z</time>
      </trkpt>
      <trkpt lat="48.17191" lon="6.78335">
        <ele>560.3</ele>
        <time>2024-11-17T12:12:48Z</time>
      </trkpt>
      <trkpt lat="48.17193" lon="6.78327">
        <ele>560.8</ele>
        <time>2024-11-17T12:12:58Z</time>
      </trkpt>
      <trkpt lat="48.17193" lon="6.78327">
        <ele>560.8</ele>
        <time>2024-11-17T12:12:59Z</time>
      </trkpt>
      <trkpt lat="48.17193" lon="6.78327">
        <ele>560.8</ele>
        <time>2024-11-17T12:13:11Z</time>
      </trkpt>
      <trkpt lat="48.17194" lon="6.78327">
        <ele>560.8</ele>
        <time>2024-11-17T12:13:12Z</time>
      </trkpt>
      <trkpt lat="48.17203" lon="6.78322">
        <ele>561.5</ele>
        <time>2024-11-17T12:13:20Z</time>
      </trkpt>
      <trkpt lat="48.17212" lon="6.78328">
        <ele>563.8</ele>
        <time>2024-11-17T12:13:30Z</time>
      </trkpt>
      <trkpt lat="48.17219" lon="6.78338">
        <ele>567</ele>
        <time>2024-11-17T12:13:41Z</time>
      </trkpt>
      <trkpt lat="48.17227" lon="6.78347">
        <ele>569.3</ele>
        <time>2024-11-17T12:13:52Z</time>
      </trkpt>
      <trkpt lat="48.17232" lon="6.78358">
        <ele>571.6</ele>
        <time>2024-11-17T12:14:01Z</time>
      </trkpt>
      <trkpt lat="48.1724" lon="6.78366">
        <ele>574.8</ele>
        <time>2024-11-17T12:14:11Z</time>
      </trkpt>
      <trkpt lat="48.17249" lon="6.78373">
        <ele>578.3</ele>
        <time>2024-11-17T12:14:28Z</time>
      </trkpt>
      <trkpt lat="48.17255" lon="6.78375">
        <ele>580.2</ele>
        <time>2024-11-17T12:14:40Z</time>
      </trkpt>
      <trkpt lat="48.17255" lon="6.78375">
        <ele>580</ele>
        <time>2024-11-17T12:14:41Z</time>
      </trkpt>
      <trkpt lat="48.17255" lon="6.78375">
        <ele>579.9</ele>
        <time>2024-11-17T12:14:48Z</time>
      </trkpt>
      <trkpt lat="48.17255" lon="6.78375">
        <ele>579.7</ele>
        <time>2024-11-17T12:14:49Z</time>
      </trkpt>
      <trkpt lat="48.17255" lon="6.78374">
        <ele>579.6</ele>
        <time>2024-11-17T12:14:53Z</time>
      </trkpt>
      <trkpt lat="48.17255" lon="6.78374">
        <ele>579.4</ele>
        <time>2024-11-17T12:14:54Z</time>
      </trkpt>
      <trkpt lat="48.17254" lon="6.78378">
        <ele>579.8</ele>
        <time>2024-11-17T12:15:00Z</time>
      </trkpt>
      <trkpt lat="48.17254" lon="6.7838">
        <ele>579.6</ele>
        <time>2024-11-17T12:15:01Z</time>
      </trkpt>
      <trkpt lat="48.17254" lon="6.78381">
        <ele>580.1</ele>
        <time>2024-11-17T12:15:02Z</time>
      </trkpt>
      <trkpt lat="48.17256" lon="6.78395">
        <ele>582.9</ele>
        <time>2024-11-17T12:15:12Z</time>
      </trkpt>
      <trkpt lat="48.17255" lon="6.78409">
        <ele>583.5</ele>
        <time>2024-11-17T12:15:20Z</time>
      </trkpt>
      <trkpt lat="48.17254" lon="6.78423">
        <ele>585.2</ele>
        <time>2024-11-17T12:15:27Z</time>
      </trkpt>
      <trkpt lat="48.17256" lon="6.78437">
        <ele>587.4</ele>
        <time>2024-11-17T12:15:35Z</time>
      </trkpt>
      <trkpt lat="48.17257" lon="6.78451">
        <ele>588.6</ele>
        <time>2024-11-17T12:15:44Z</time>
      </trkpt>
      <trkpt lat="48.17262" lon="6.78464">
        <ele>591.3</ele>
        <time>2024-11-17T12:15:57Z</time>
      </trkpt>
      <trkpt lat="48.1726" lon="6.78478">
        <ele>591.8</ele>
        <time>2024-11-17T12:16:03Z</time>
      </trkpt>
      <trkpt lat="48.1727" lon="6.78474">
        <ele>594.4</ele>
        <time>2024-11-17T12:16:14Z</time>
      </trkpt>
      <trkpt lat="48.1728" lon="6.78476">
        <ele>597.3</ele>
        <time>2024-11-17T12:16:23Z</time>
      </trkpt>
      <trkpt lat="48.17287" lon="6.78464">
        <ele>597.3</ele>
        <time>2024-11-17T12:16:29Z</time>
      </trkpt>
      <trkpt lat="48.1729" lon="6.78451">
        <ele>597.2</ele>
        <time>2024-11-17T12:16:37Z</time>
      </trkpt>
      <trkpt lat="48.17293" lon="6.78438">
        <ele>596.2</ele>
        <time>2024-11-17T12:16:44Z</time>
      </trkpt>
      <trkpt lat="48.17298" lon="6.78426">
        <ele>595</ele>
        <time>2024-11-17T12:16:53Z</time>
      </trkpt>
      <trkpt lat="48.17303" lon="6.78412">
        <ele>594.4</ele>
        <time>2024-11-17T12:17:02Z</time>
      </trkpt>
      <trkpt lat="48.1731" lon="6.78402">
        <ele>594.6</ele>
        <time>2024-11-17T12:17:10Z</time>
      </trkpt>
      <trkpt lat="48.17315" lon="6.7839">
        <ele>594.4</ele>
        <time>2024-11-17T12:17:18Z</time>
      </trkpt>
      <trkpt lat="48.17317" lon="6.78377">
        <ele>593.3</ele>
        <time>2024-11-17T12:17:24Z</time>
      </trkpt>
      <trkpt lat="48.1732" lon="6.78363">
        <ele>591.5</ele>
        <time>2024-11-17T12:17:30Z</time>
      </trkpt>
      <trkpt lat="48.17319" lon="6.78348">
        <ele>589.5</ele>
        <time>2024-11-17T12:17:35Z</time>
      </trkpt>
      <trkpt lat="48.17325" lon="6.78337">
        <ele>589.1</ele>
        <time>2024-11-17T12:17:44Z</time>
      </trkpt>
      <trkpt lat="48.17331" lon="6.78327">
        <ele>588.3</ele>
        <time>2024-11-17T12:17:53Z</time>
      </trkpt>
      <trkpt lat="48.1734" lon="6.78317">
        <ele>588.8</ele>
        <time>2024-11-17T12:18:00Z</time>
      </trkpt>
      <trkpt lat="48.17347" lon="6.78307">
        <ele>588.9</ele>
        <time>2024-11-17T12:18:07Z</time>
      </trkpt>
      <trkpt lat="48.17353" lon="6.78297">
        <ele>588.5</ele>
        <time>2024-11-17T12:18:19Z</time>
      </trkpt>
      <trkpt lat="48.17357" lon="6.78284">
        <ele>586.9</ele>
        <time>2024-11-17T12:18:26Z</time>
      </trkpt>
      <trkpt lat="48.17365" lon="6.78274">
        <ele>587.1</ele>
        <time>2024-11-17T12:18:38Z</time>
      </trkpt>
      <trkpt lat="48.17373" lon="6.78266">
        <ele>586.6</ele>
        <time>2024-11-17T12:18:43Z</time>
      </trkpt>
      <trkpt lat="48.17379" lon="6.78256">
        <ele>586.5</ele>
        <time>2024-11-17T12:18:52Z</time>
      </trkpt>
      <trkpt lat="48.17383" lon="6.78244">
        <ele>584.4</ele>
        <time>2024-11-17T12:19:04Z</time>
      </trkpt>
      <trkpt lat="48.17391" lon="6.78235">
        <ele>584.4</ele>
        <time>2024-11-17T12:19:16Z</time>
      </trkpt>
      <trkpt lat="48.17401" lon="6.78226">
        <ele>584</ele>
        <time>2024-11-17T12:19:21Z</time>
      </trkpt>
      <trkpt lat="48.17408" lon="6.78216">
        <ele>582.7</ele>
        <time>2024-11-17T12:19:29Z</time>
      </trkpt>
      <trkpt lat="48.17415" lon="6.78207">
        <ele>581.5</ele>
        <time>2024-11-17T12:19:38Z</time>
      </trkpt>
      <trkpt lat="48.17424" lon="6.78201">
        <ele>581.2</ele>
        <time>2024-11-17T12:19:50Z</time>
      </trkpt>
      <trkpt lat="48.17434" lon="6.78197">
        <ele>580.7</ele>
        <time>2024-11-17T12:20:02Z</time>
      </trkpt>
      <trkpt lat="48.17444" lon="6.78195">
        <ele>580</ele>
        <time>2024-11-17T12:20:08Z</time>
      </trkpt>
      <trkpt lat="48.17452" lon="6.78188">
        <ele>579.1</ele>
        <time>2024-11-17T12:20:14Z</time>
      </trkpt>
      <trkpt lat="48.17461" lon="6.78187">
        <ele>578.2</ele>
        <time>2024-11-17T12:20:20Z</time>
      </trkpt>
      <trkpt lat="48.1747" lon="6.78185">
        <ele>578.1</ele>
        <time>2024-11-17T12:20:31Z</time>
      </trkpt>
      <trkpt lat="48.17479" lon="6.78183">
        <ele>578.1</ele>
        <time>2024-11-17T12:20:41Z</time>
      </trkpt>
      <trkpt lat="48.17489" lon="6.78182">
        <ele>577.1</ele>
        <time>2024-11-17T12:20:49Z</time>
      </trkpt>
      <trkpt lat="48.17497" lon="6.78173">
        <ele>574.8</ele>
        <time>2024-11-17T12:20:56Z</time>
      </trkpt>
      <trkpt lat="48.17507" lon="6.78174">
        <ele>575.4</ele>
        <time>2024-11-17T12:21:02Z</time>
      </trkpt>
      <trkpt lat="48.17516" lon="6.78173">
        <ele>573.9</ele>
        <time>2024-11-17T12:21:10Z</time>
      </trkpt>
      <trkpt lat="48.17527" lon="6.78175">
        <ele>574.3</ele>
        <time>2024-11-17T12:21:17Z</time>
      </trkpt>
      <trkpt lat="48.17535" lon="6.78181">
        <ele>574.6</ele>
        <time>2024-11-17T12:21:27Z</time>
      </trkpt>
      <trkpt lat="48.17544" lon="6.78189">
        <ele>575.7</ele>
        <time>2024-11-17T12:21:35Z</time>
      </trkpt>
      <trkpt lat="48.17553" lon="6.78193">
        <ele>575.9</ele>
        <time>2024-11-17T12:21:42Z</time>
      </trkpt>
      <trkpt lat="48.17562" lon="6.78194">
        <ele>575.3</ele>
        <time>2024-11-17T12:21:49Z</time>
      </trkpt>
      <trkpt lat="48.17571" lon="6.78191">
        <ele>573.7</ele>
        <time>2024-11-17T12:21:55Z</time>
      </trkpt>
      <trkpt lat="48.1758" lon="6.78192">
        <ele>573.8</ele>
        <time>2024-11-17T12:22:05Z</time>
      </trkpt>
      <trkpt lat="48.17588" lon="6.78201">
        <ele>574.4</ele>
        <time>2024-11-17T12:22:17Z</time>
      </trkpt>
      <trkpt lat="48.17598" lon="6.78202">
        <ele>573.2</ele>
        <time>2024-11-17T12:22:25Z</time>
      </trkpt>
      <trkpt lat="48.17605" lon="6.78211">
        <ele>573.7</ele>
        <time>2024-11-17T12:22:31Z</time>
      </trkpt>
      <trkpt lat="48.17615" lon="6.78215">
        <ele>573</ele>
        <time>2024-11-17T12:22:39Z</time>
      </trkpt>
      <trkpt lat="48.17623" lon="6.7822">
        <ele>572.2</ele>
        <time>2024-11-17T12:22:49Z</time>
      </trkpt>
      <trkpt lat="48.17631" lon="6.78228">
        <ele>572.1</ele>
        <time>2024-11-17T12:22:59Z</time>
      </trkpt>
      <trkpt lat="48.1764" lon="6.78235">
        <ele>571.8</ele>
        <time>2024-11-17T12:23:06Z</time>
      </trkpt>
      <trkpt lat="48.17649" lon="6.78241">
        <ele>570.9</ele>
        <time>2024-11-17T12:23:12Z</time>
      </trkpt>
      <trkpt lat="48.17657" lon="6.7825">
        <ele>571.4</ele>
        <time>2024-11-17T12:23:19Z</time>
      </trkpt>
      <trkpt lat="48.17666" lon="6.78257">
        <ele>571.7</ele>
        <time>2024-11-17T12:23:28Z</time>
      </trkpt>
      <trkpt lat="48.17675" lon="6.78258">
        <ele>570</ele>
        <time>2024-11-17T12:23:36Z</time>
      </trkpt>
      <trkpt lat="48.17685" lon="6.7826">
        <ele>568.5</ele>
        <time>2024-11-17T12:23:43Z</time>
      </trkpt>
      <trkpt lat="48.17695" lon="6.78263">
        <ele>567.5</ele>
        <time>2024-11-17T12:23:50Z</time>
      </trkpt>
      <trkpt lat="48.17704" lon="6.78261">
        <ele>566</ele>
        <time>2024-11-17T12:23:58Z</time>
      </trkpt>
      <trkpt lat="48.17708" lon="6.78259">
        <ele>564.1</ele>
        <time>2024-11-17T12:24:05Z</time>
      </trkpt>
      <trkpt lat="48.17709" lon="6.78259">
        <ele>563.9</ele>
        <time>2024-11-17T12:24:06Z</time>
      </trkpt>
      <trkpt lat="48.17712" lon="6.78256">
        <ele>563.4</ele>
        <time>2024-11-17T12:24:14Z</time>
      </trkpt>
      <trkpt lat="48.17712" lon="6.78256">
        <ele>563.2</ele>
        <time>2024-11-17T12:24:15Z</time>
      </trkpt>
      <trkpt lat="48.17713" lon="6.78255">
        <ele>562.1</ele>
        <time>2024-11-17T12:24:16Z</time>
      </trkpt>
      <trkpt lat="48.17721" lon="6.78249">
        <ele>559.5</ele>
        <time>2024-11-17T12:24:27Z</time>
      </trkpt>
      <trkpt lat="48.1773" lon="6.78242">
        <ele>556.1</ele>
        <time>2024-11-17T12:24:38Z</time>
      </trkpt>
      <trkpt lat="48.17731" lon="6.78229">
        <ele>553.1</ele>
        <time>2024-11-17T12:24:54Z</time>
      </trkpt>
      <trkpt lat="48.17732" lon="6.78215">
        <ele>550.4</ele>
        <time>2024-11-17T12:25:00Z</time>
      </trkpt>
      <trkpt lat="48.17733" lon="6.78202">
        <ele>547.7</ele>
        <time>2024-11-17T12:25:06Z</time>
      </trkpt>
      <trkpt lat="48.17734" lon="6.78197">
        <ele>546.2</ele>
        <time>2024-11-17T12:25:18Z</time>
      </trkpt>
      <trkpt lat="48.17734" lon="6.78197">
        <ele>546.1</ele>
        <time>2024-11-17T12:25:19Z</time>
      </trkpt>
      <trkpt lat="48.17734" lon="6.78196">
        <ele>545.9</ele>
        <time>2024-11-17T12:25:29Z</time>
      </trkpt>
      <trkpt lat="48.17734" lon="6.78195">
        <ele>545</ele>
        <time>2024-11-17T12:25:30Z</time>
      </trkpt>
      <trkpt lat="48.17735" lon="6.78194">
        <ele>544.8</ele>
        <time>2024-11-17T12:25:31Z</time>
      </trkpt>
      <trkpt lat="48.17736" lon="6.78187">
        <ele>543.9</ele>
        <time>2024-11-17T12:25:40Z</time>
      </trkpt>
      <trkpt lat="48.17736" lon="6.78187">
        <ele>543.8</ele>
        <time>2024-11-17T12:25:41Z</time>
      </trkpt>
      <trkpt lat="48.17736" lon="6.78187">
        <ele>543.6</ele>
        <time>2024-11-17T12:25:42Z</time>
      </trkpt>
      <trkpt lat="48.17736" lon="6.78186">
        <ele>542.8</ele>
        <time>2024-11-17T12:25:43Z</time>
      </trkpt>
      <trkpt lat="48.17734" lon="6.78173">
        <ele>540.9</ele>
        <time>2024-11-17T12:25:58Z</time>
      </trkpt>
      <trkpt lat="48.17736" lon="6.7817">
        <ele>540.2</ele>
        <time>2024-11-17T12:26:03Z</time>
      </trkpt>
      <trkpt lat="48.17736" lon="6.7817">
        <ele>540.1</ele>
        <time>2024-11-17T12:26:04Z</time>
      </trkpt>
      <trkpt lat="48.17736" lon="6.78169">
        <ele>539.3</ele>
        <time>2024-11-17T12:26:10Z</time>
      </trkpt>
      <trkpt lat="48.17736" lon="6.78168">
        <ele>539.7</ele>
        <time>2024-11-17T12:26:11Z</time>
      </trkpt>
      <trkpt lat="48.17736" lon="6.78166">
        <ele>539.5</ele>
        <time>2024-11-17T12:26:12Z</time>
      </trkpt>
      <trkpt lat="48.17735" lon="6.78152">
        <ele>537.3</ele>
        <time>2024-11-17T12:26:21Z</time>
      </trkpt>
      <trkpt lat="48.1774" lon="6.78155">
        <ele>536.6</ele>
        <time>2024-11-17T12:26:25Z</time>
      </trkpt>
      <trkpt lat="48.1774" lon="6.78156">
        <ele>536.4</ele>
        <time>2024-11-17T12:26:26Z</time>
      </trkpt>
      <trkpt lat="48.1774" lon="6.78156">
        <ele>536.3</ele>
        <time>2024-11-17T12:26:27Z</time>
      </trkpt>
      <trkpt lat="48.17741" lon="6.78157">
        <ele>536.1</ele>
        <time>2024-11-17T12:26:39Z</time>
      </trkpt>
      <trkpt lat="48.17741" lon="6.78156">
        <ele>536</ele>
        <time>2024-11-17T12:26:40Z</time>
      </trkpt>
      <trkpt lat="48.17742" lon="6.78155">
        <ele>535.8</ele>
        <time>2024-11-17T12:26:41Z</time>
      </trkpt>
      <trkpt lat="48.17739" lon="6.78141">
        <ele>534.2</ele>
        <time>2024-11-17T12:26:50Z</time>
      </trkpt>
      <trkpt lat="48.17739" lon="6.78127">
        <ele>533</ele>
        <time>2024-11-17T12:27:00Z</time>
      </trkpt>
      <trkpt lat="48.17735" lon="6.78114">
        <ele>531.1</ele>
        <time>2024-11-17T12:27:09Z</time>
      </trkpt>
      <trkpt lat="48.17733" lon="6.781">
        <ele>529.9</ele>
        <time>2024-11-17T12:27:19Z</time>
      </trkpt>
      <trkpt lat="48.17727" lon="6.78091">
        <ele>529.8</ele>
        <time>2024-11-17T12:27:27Z</time>
      </trkpt>
      <trkpt lat="48.17721" lon="6.78078">
        <ele>529.1</ele>
        <time>2024-11-17T12:27:34Z</time>
      </trkpt>
      <trkpt lat="48.17717" lon="6.78071">
        <ele>529</ele>
        <time>2024-11-17T12:27:45Z</time>
      </trkpt>
      <trkpt lat="48.1772" lon="6.78069">
        <ele>527.8</ele>
        <time>2024-11-17T12:28:25Z</time>
      </trkpt>
      <trkpt lat="48.1772" lon="6.78069">
        <ele>527.6</ele>
        <time>2024-11-17T12:28:26Z</time>
      </trkpt>
      <trkpt lat="48.1772" lon="6.78069">
        <ele>527.5</ele>
        <time>2024-11-17T12:28:27Z</time>
      </trkpt>
      <trkpt lat="48.1772" lon="6.78069">
        <ele>527.3</ele>
        <time>2024-11-17T12:28:28Z</time>
      </trkpt>
      <trkpt lat="48.1772" lon="6.78069">
        <ele>527.2</ele>
        <time>2024-11-17T12:28:29Z</time>
      </trkpt>
      <trkpt lat="48.17722" lon="6.78069">
        <ele>527</ele>
        <time>2024-11-17T12:29:15Z</time>
      </trkpt>
      <trkpt lat="48.17722" lon="6.78069">
        <ele>526.9</ele>
        <time>2024-11-17T12:29:16Z</time>
      </trkpt>
      <trkpt lat="48.17722" lon="6.78069">
        <ele>526.7</ele>
        <time>2024-11-17T12:29:17Z</time>
      </trkpt>
      <trkpt lat="48.17721" lon="6.78069">
        <ele>526.6</ele>
        <time>2024-11-17T12:29:18Z</time>
      </trkpt>
      <trkpt lat="48.17723" lon="6.7807">
        <ele>525.9</ele>
        <time>2024-11-17T12:29:31Z</time>
      </trkpt>
      <trkpt lat="48.17723" lon="6.78069">
        <ele>525.7</ele>
        <time>2024-11-17T12:29:32Z</time>
      </trkpt>
      <trkpt lat="48.17723" lon="6.78068">
        <ele>525.5</ele>
        <time>2024-11-17T12:29:33Z</time>
      </trkpt>
      <trkpt lat="48.17725" lon="6.78054">
        <ele>523.6</ele>
        <time>2024-11-17T12:29:47Z</time>
      </trkpt>
      <trkpt lat="48.17723" lon="6.7804">
        <ele>522</ele>
        <time>2024-11-17T12:29:54Z</time>
      </trkpt>
      <trkpt lat="48.17724" lon="6.78025">
        <ele>520</ele>
        <time>2024-11-17T12:30:02Z</time>
      </trkpt>
      <trkpt lat="48.17717" lon="6.78015">
        <ele>520.3</ele>
        <time>2024-11-17T12:30:12Z</time>
      </trkpt>
      <trkpt lat="48.17707" lon="6.78012">
        <ele>520.7</ele>
        <time>2024-11-17T12:30:19Z</time>
      </trkpt>
      <trkpt lat="48.17699" lon="6.78007">
        <ele>521.1</ele>
        <time>2024-11-17T12:30:26Z</time>
      </trkpt>
      <trkpt lat="48.17689" lon="6.78004">
        <ele>521.4</ele>
        <time>2024-11-17T12:30:34Z</time>
      </trkpt>
      <trkpt lat="48.1768" lon="6.78002">
        <ele>521.8</ele>
        <time>2024-11-17T12:30:43Z</time>
      </trkpt>
      <trkpt lat="48.17671" lon="6.77998">
        <ele>522.2</ele>
        <time>2024-11-17T12:30:51Z</time>
      </trkpt>
      <trkpt lat="48.17661" lon="6.77994">
        <ele>522.5</ele>
        <time>2024-11-17T12:31:00Z</time>
      </trkpt>
      <trkpt lat="48.17652" lon="6.77991">
        <ele>522.9</ele>
        <time>2024-11-17T12:31:07Z</time>
      </trkpt>
      <trkpt lat="48.17643" lon="6.77991">
        <ele>523.2</ele>
        <time>2024-11-17T12:31:15Z</time>
      </trkpt>
      <trkpt lat="48.17635" lon="6.77989">
        <ele>523.5</ele>
        <time>2024-11-17T12:31:30Z</time>
      </trkpt>
      <trkpt lat="48.17635" lon="6.77989">
        <ele>523.5</ele>
        <time>2024-11-17T12:31:31Z</time>
      </trkpt>
      <trkpt lat="48.17633" lon="6.77987">
        <ele>523.6</ele>
        <time>2024-11-17T12:31:52Z</time>
      </trkpt>
      <trkpt lat="48.17632" lon="6.77986">
        <ele>523.7</ele>
        <time>2024-11-17T12:31:53Z</time>
      </trkpt>
      <trkpt lat="48.17631" lon="6.77985">
        <ele>523.7</ele>
        <time>2024-11-17T12:31:54Z</time>
      </trkpt>
      <trkpt lat="48.17622" lon="6.77978">
        <ele>524.1</ele>
        <time>2024-11-17T12:32:03Z</time>
      </trkpt>
      <trkpt lat="48.17621" lon="6.77977">
        <ele>524.2</ele>
        <time>2024-11-17T12:32:08Z</time>
      </trkpt>
      <trkpt lat="48.17621" lon="6.77977">
        <ele>524.2</ele>
        <time>2024-11-17T12:32:09Z</time>
      </trkpt>
      <trkpt lat="48.17623" lon="6.7798">
        <ele>524.3</ele>
        <time>2024-11-17T12:32:12Z</time>
      </trkpt>
      <trkpt lat="48.17624" lon="6.77982">
        <ele>524.3</ele>
        <time>2024-11-17T12:32:13Z</time>
      </trkpt>
      <trkpt lat="48.17633" lon="6.77989">
        <ele>524.7</ele>
        <time>2024-11-17T12:32:20Z</time>
      </trkpt>
      <trkpt lat="48.17642" lon="6.77994">
        <ele>524.2</ele>
        <time>2024-11-17T12:32:28Z</time>
      </trkpt>
      <trkpt lat="48.17651" lon="6.77996">
        <ele>523.8</ele>
        <time>2024-11-17T12:32:35Z</time>
      </trkpt>
      <trkpt lat="48.17661" lon="6.77999">
        <ele>523.3</ele>
        <time>2024-11-17T12:32:44Z</time>
      </trkpt>
      <trkpt lat="48.1767" lon="6.78004">
        <ele>522.8</ele>
        <time>2024-11-17T12:32:54Z</time>
      </trkpt>
      <trkpt lat="48.17679" lon="6.78009">
        <ele>522.3</ele>
        <time>2024-11-17T12:33:02Z</time>
      </trkpt>
      <trkpt lat="48.1768" lon="6.78009">
        <ele>522.3</ele>
        <time>2024-11-17T12:33:07Z</time>
      </trkpt>
      <trkpt lat="48.1768" lon="6.78009">
        <ele>522.3</ele>
        <time>2024-11-17T12:33:08Z</time>
      </trkpt>
      <trkpt lat="48.1768" lon="6.78009">
        <ele>522.3</ele>
        <time>2024-11-17T12:33:09Z</time>
      </trkpt>
      <trkpt lat="48.17683" lon="6.7801">
        <ele>522.1</ele>
        <time>2024-11-17T12:33:13Z</time>
      </trkpt>
      <trkpt lat="48.17684" lon="6.78011">
        <ele>522</ele>
        <time>2024-11-17T12:33:14Z</time>
      </trkpt>
      <trkpt lat="48.17694" lon="6.78016">
        <ele>521.5</ele>
        <time>2024-11-17T12:33:23Z</time>
      </trkpt>
      <trkpt lat="48.17703" lon="6.78021">
        <ele>521.1</ele>
        <time>2024-11-17T12:33:32Z</time>
      </trkpt>
      <trkpt lat="48.17713" lon="6.78024">
        <ele>520.5</ele>
        <time>2024-11-17T12:33:41Z</time>
      </trkpt>
      <trkpt lat="48.17722" lon="6.78026">
        <ele>520.1</ele>
        <time>2024-11-17T12:33:50Z</time>
      </trkpt>
      <trkpt lat="48.17727" lon="6.78027">
        <ele>519.8</ele>
        <time>2024-11-17T12:34:02Z</time>
      </trkpt>
      <trkpt lat="48.17727" lon="6.78027">
        <ele>519.8</ele>
        <time>2024-11-17T12:34:03Z</time>
      </trkpt>
      <trkpt lat="48.17729" lon="6.78027">
        <ele>519.7</ele>
        <time>2024-11-17T12:34:07Z</time>
      </trkpt>
      <trkpt lat="48.1773" lon="6.78026">
        <ele>519.7</ele>
        <time>2024-11-17T12:34:08Z</time>
      </trkpt>
      <trkpt lat="48.17731" lon="6.78026">
        <ele>519.6</ele>
        <time>2024-11-17T12:34:09Z</time>
      </trkpt>
      <trkpt lat="48.17741" lon="6.78026">
        <ele>519.1</ele>
        <time>2024-11-17T12:34:17Z</time>
      </trkpt>
      <trkpt lat="48.1775" lon="6.78026">
        <ele>518.6</ele>
        <time>2024-11-17T12:34:25Z</time>
      </trkpt>
      <trkpt lat="48.1776" lon="6.78027">
        <ele>518.2</ele>
        <time>2024-11-17T12:34:33Z</time>
      </trkpt>
      <trkpt lat="48.1777" lon="6.78026">
        <ele>517.7</ele>
        <time>2024-11-17T12:34:45Z</time>
      </trkpt>
      <trkpt lat="48.17779" lon="6.78027">
        <ele>517.2</ele>
        <time>2024-11-17T12:34:52Z</time>
      </trkpt>
      <trkpt lat="48.17789" lon="6.78026">
        <ele>516.7</ele>
        <time>2024-11-17T12:35:00Z</time>
      </trkpt>
      <trkpt lat="48.17798" lon="6.78027">
        <ele>516.3</ele>
        <time>2024-11-17T12:35:07Z</time>
      </trkpt>
      <trkpt lat="48.17807" lon="6.78026">
        <ele>515.8</ele>
        <time>2024-11-17T12:35:15Z</time>
      </trkpt>
      <trkpt lat="48.17817" lon="6.78023">
        <ele>515.3</ele>
        <time>2024-11-17T12:35:24Z</time>
      </trkpt>
      <trkpt lat="48.17825" lon="6.78016">
        <ele>514.8</ele>
        <time>2024-11-17T12:35:32Z</time>
      </trkpt>
      <trkpt lat="48.17833" lon="6.78009">
        <ele>514.4</ele>
        <time>2024-11-17T12:35:41Z</time>
      </trkpt>
      <trkpt lat="48.17841" lon="6.78002">
        <ele>513.9</ele>
        <time>2024-11-17T12:35:50Z</time>
      </trkpt>
      <trkpt lat="48.1785" lon="6.77994">
        <ele>513.4</ele>
        <time>2024-11-17T12:35:59Z</time>
      </trkpt>
      <trkpt lat="48.17858" lon="6.77987">
        <ele>512.9</ele>
        <time>2024-11-17T12:36:08Z</time>
      </trkpt>
      <trkpt lat="48.17867" lon="6.7798">
        <ele>512.4</ele>
        <time>2024-11-17T12:36:17Z</time>
      </trkpt>
      <trkpt lat="48.17875" lon="6.77973">
        <ele>511.9</ele>
        <time>2024-11-17T12:36:26Z</time>
      </trkpt>
      <trkpt lat="48.17884" lon="6.77966">
        <ele>511.5</ele>
        <time>2024-11-17T12:36:35Z</time>
      </trkpt>
      <trkpt lat="48.17892" lon="6.7796">
        <ele>511</ele>
        <time>2024-11-17T12:36:43Z</time>
      </trkpt>
      <trkpt lat="48.179" lon="6.77952">
        <ele>510.5</ele>
        <time>2024-11-17T12:36:52Z</time>
      </trkpt>
      <trkpt lat="48.17909" lon="6.77946">
        <ele>510</ele>
        <time>2024-11-17T12:37:01Z</time>
      </trkpt>
      <trkpt lat="48.17917" lon="6.77937">
        <ele>509.5</ele>
        <time>2024-11-17T12:37:11Z</time>
      </trkpt>
      <trkpt lat="48.17926" lon="6.77932">
        <ele>509</ele>
        <time>2024-11-17T12:37:20Z</time>
      </trkpt>
      <trkpt lat="48.17935" lon="6.77927">
        <ele>508.5</ele>
        <time>2024-11-17T12:37:28Z</time>
      </trkpt>
      <trkpt lat="48.17933" lon="6.77929">
        <ele>508.4</ele>
        <time>2024-11-17T12:37:55Z</time>
      </trkpt>
      <trkpt lat="48.17933" lon="6.77929">
        <ele>508.4</ele>
        <time>2024-11-17T12:37:56Z</time>
      </trkpt>
      <trkpt lat="48.17933" lon="6.77929">
        <ele>508.4</ele>
        <time>2024-11-17T12:37:57Z</time>
      </trkpt>
      <trkpt lat="48.17934" lon="6.77929">
        <ele>508.3</ele>
        <time>2024-11-17T12:38:17Z</time>
      </trkpt>
      <trkpt lat="48.17935" lon="6.77928">
        <ele>508.3</ele>
        <time>2024-11-17T12:38:18Z</time>
      </trkpt>
      <trkpt lat="48.17944" lon="6.77922">
        <ele>507.8</ele>
        <time>2024-11-17T12:38:26Z</time>
      </trkpt>
      <trkpt lat="48.17951" lon="6.77915">
        <ele>507.3</ele>
        <time>2024-11-17T12:38:34Z</time>
      </trkpt>
      <trkpt lat="48.1796" lon="6.77909">
        <ele>506.8</ele>
        <time>2024-11-17T12:38:42Z</time>
      </trkpt>
      <trkpt lat="48.1797" lon="6.77905">
        <ele>506.4</ele>
        <time>2024-11-17T12:38:50Z</time>
      </trkpt>
      <trkpt lat="48.17979" lon="6.77899">
        <ele>505.9</ele>
        <time>2024-11-17T12:38:59Z</time>
      </trkpt>
      <trkpt lat="48.17987" lon="6.77895">
        <ele>505.4</ele>
        <time>2024-11-17T12:39:06Z</time>
      </trkpt>
      <trkpt lat="48.17997" lon="6.77894">
        <ele>504.9</ele>
        <time>2024-11-17T12:39:15Z</time>
      </trkpt>
      <trkpt lat="48.18004" lon="6.77903">
        <ele>504.2</ele>
        <time>2024-11-17T12:39:23Z</time>
      </trkpt>
      <trkpt lat="48.18007" lon="6.77916">
        <ele>503</ele>
        <time>2024-11-17T12:39:31Z</time>
      </trkpt>
      <trkpt lat="48.18011" lon="6.77929">
        <ele>501.8</ele>
        <time>2024-11-17T12:39:39Z</time>
      </trkpt>
      <trkpt lat="48.18016" lon="6.77941">
        <ele>500.8</ele>
        <time>2024-11-17T12:39:47Z</time>
      </trkpt>
      <trkpt lat="48.18023" lon="6.77952">
        <ele>500</ele>
        <time>2024-11-17T12:39:55Z</time>
      </trkpt>
      <trkpt lat="48.18031" lon="6.7796">
        <ele>499.3</ele>
        <time>2024-11-17T12:40:03Z</time>
      </trkpt>
      <trkpt lat="48.1804" lon="6.77967">
        <ele>498.6</ele>
        <time>2024-11-17T12:40:13Z</time>
      </trkpt>
      <trkpt lat="48.18047" lon="6.77975">
        <ele>498</ele>
        <time>2024-11-17T12:40:22Z</time>
      </trkpt>
      <trkpt lat="48.18056" lon="6.7798">
        <ele>497.3</ele>
        <time>2024-11-17T12:40:31Z</time>
      </trkpt>
      <trkpt lat="48.18064" lon="6.77985">
        <ele>496.6</ele>
        <time>2024-11-17T12:40:40Z</time>
      </trkpt>
      <trkpt lat="48.18074" lon="6.77984">
        <ele>495.6</ele>
        <time>2024-11-17T12:40:50Z</time>
      </trkpt>
      <trkpt lat="48.18083" lon="6.77986">
        <ele>494.5</ele>
        <time>2024-11-17T12:41:01Z</time>
      </trkpt>
      <trkpt lat="48.18092" lon="6.77988">
        <ele>493.4</ele>
        <time>2024-11-17T12:41:11Z</time>
      </trkpt>
      <trkpt lat="48.18102" lon="6.7799">
        <ele>492.3</ele>
        <time>2024-11-17T12:41:22Z</time>
      </trkpt>
      <trkpt lat="48.18112" lon="6.77992">
        <ele>491.3</ele>
        <time>2024-11-17T12:41:31Z</time>
      </trkpt>
      <trkpt lat="48.18121" lon="6.77997">
        <ele>490.3</ele>
        <time>2024-11-17T12:41:38Z</time>
      </trkpt>
      <trkpt lat="48.1813" lon="6.78001">
        <ele>489.2</ele>
        <time>2024-11-17T12:41:48Z</time>
      </trkpt>
      <trkpt lat="48.18139" lon="6.78004">
        <ele>488.2</ele>
        <time>2024-11-17T12:41:56Z</time>
      </trkpt>
      <trkpt lat="48.18148" lon="6.78009">
        <ele>487.1</ele>
        <time>2024-11-17T12:42:03Z</time>
      </trkpt>
      <trkpt lat="48.18157" lon="6.78015">
        <ele>486.1</ele>
        <time>2024-11-17T12:42:11Z</time>
      </trkpt>
      <trkpt lat="48.18165" lon="6.78022">
        <ele>485.1</ele>
        <time>2024-11-17T12:42:20Z</time>
      </trkpt>
      <trkpt lat="48.18173" lon="6.78031">
        <ele>484.3</ele>
        <time>2024-11-17T12:42:28Z</time>
      </trkpt>
      <trkpt lat="48.1818" lon="6.78038">
        <ele>483.6</ele>
        <time>2024-11-17T12:42:37Z</time>
      </trkpt>
      <trkpt lat="48.18186" lon="6.7805">
        <ele>482.8</ele>
        <time>2024-11-17T12:42:44Z</time>
      </trkpt>
      <trkpt lat="48.18193" lon="6.78058">
        <ele>482.1</ele>
        <time>2024-11-17T12:42:52Z</time>
      </trkpt>
      <trkpt lat="48.182" lon="6.78068">
        <ele>481.5</ele>
        <time>2024-11-17T12:43:00Z</time>
      </trkpt>
      <trkpt lat="48.18206" lon="6.78078">
        <ele>480.7</ele>
        <time>2024-11-17T12:43:08Z</time>
      </trkpt>
      <trkpt lat="48.18213" lon="6.78089">
        <ele>479.5</ele>
        <time>2024-11-17T12:43:16Z</time>
      </trkpt>
      <trkpt lat="48.1822" lon="6.78098">
        <ele>478.2</ele>
        <time>2024-11-17T12:43:24Z</time>
      </trkpt>
      <trkpt lat="48.18227" lon="6.78106">
        <ele>476.9</ele>
        <time>2024-11-17T12:43:34Z</time>
      </trkpt>
      <trkpt lat="48.18235" lon="6.7811">
        <ele>475.8</ele>
        <time>2024-11-17T12:43:44Z</time>
      </trkpt>
      <trkpt lat="48.18245" lon="6.78114">
        <ele>474.7</ele>
        <time>2024-11-17T12:43:53Z</time>
      </trkpt>
      <trkpt lat="48.18254" lon="6.78117">
        <ele>473.7</ele>
        <time>2024-11-17T12:44:04Z</time>
      </trkpt>
      <trkpt lat="48.18263" lon="6.78123">
        <ele>472.7</ele>
        <time>2024-11-17T12:44:15Z</time>
      </trkpt>
      <trkpt lat="48.18271" lon="6.78127">
        <ele>471.9</ele>
        <time>2024-11-17T12:44:22Z</time>
      </trkpt>
      <trkpt lat="48.18281" lon="6.78129">
        <ele>471.1</ele>
        <time>2024-11-17T12:44:29Z</time>
      </trkpt>
      <trkpt lat="48.18291" lon="6.78133">
        <ele>470.3</ele>
        <time>2024-11-17T12:44:38Z</time>
      </trkpt>
      <trkpt lat="48.18299" lon="6.78139">
        <ele>469.6</ele>
        <time>2024-11-17T12:44:48Z</time>
      </trkpt>
      <trkpt lat="48.18309" lon="6.78141">
        <ele>468.8</ele>
        <time>2024-11-17T12:44:56Z</time>
      </trkpt>
      <trkpt lat="48.18318" lon="6.78145">
        <ele>468.1</ele>
        <time>2024-11-17T12:45:05Z</time>
      </trkpt>
      <trkpt lat="48.18326" lon="6.78149">
        <ele>467.4</ele>
        <time>2024-11-17T12:45:12Z</time>
      </trkpt>
      <trkpt lat="48.18336" lon="6.78153">
        <ele>466.8</ele>
        <time>2024-11-17T12:45:21Z</time>
      </trkpt>
      <trkpt lat="48.18345" lon="6.78155">
        <ele>466.3</ele>
        <time>2024-11-17T12:45:29Z</time>
      </trkpt>
      <trkpt lat="48.18354" lon="6.78158">
        <ele>465.8</ele>
        <time>2024-11-17T12:45:37Z</time>
      </trkpt>
      <trkpt lat="48.18363" lon="6.78158">
        <ele>465.2</ele>
        <time>2024-11-17T12:45:47Z</time>
      </trkpt>
      <trkpt lat="48.18373" lon="6.78157">
        <ele>464.5</ele>
        <time>2024-11-17T12:45:54Z</time>
      </trkpt>
      <trkpt lat="48.18382" lon="6.78156">
        <ele>463.8</ele>
        <time>2024-11-17T12:46:02Z</time>
      </trkpt>
      <trkpt lat="48.18392" lon="6.78157">
        <ele>463</ele>
        <time>2024-11-17T12:46:10Z</time>
      </trkpt>
      <trkpt lat="48.18402" lon="6.78156">
        <ele>462.2</ele>
        <time>2024-11-17T12:46:18Z</time>
      </trkpt>
      <trkpt lat="48.1841" lon="6.7816">
        <ele>461.4</ele>
        <time>2024-11-17T12:46:26Z</time>
      </trkpt>
      <trkpt lat="48.18419" lon="6.78167">
        <ele>460.4</ele>
        <time>2024-11-17T12:46:35Z</time>
      </trkpt>
      <trkpt lat="48.18427" lon="6.78174">
        <ele>459.4</ele>
        <time>2024-11-17T12:46:44Z</time>
      </trkpt>
      <trkpt lat="48.18434" lon="6.78183">
        <ele>458.4</ele>
        <time>2024-11-17T12:46:53Z</time>
      </trkpt>
      <trkpt lat="48.18441" lon="6.78194">
        <ele>457.3</ele>
        <time>2024-11-17T12:47:01Z</time>
      </trkpt>
      <trkpt lat="48.18444" lon="6.78207">
        <ele>456.3</ele>
        <time>2024-11-17T12:47:09Z</time>
      </trkpt>
      <trkpt lat="48.18451" lon="6.78218">
        <ele>455.4</ele>
        <time>2024-11-17T12:47:19Z</time>
      </trkpt>
      <trkpt lat="48.18457" lon="6.78229">
        <ele>454.6</ele>
        <time>2024-11-17T12:47:27Z</time>
      </trkpt>
      <trkpt lat="48.18463" lon="6.7824">
        <ele>453.9</ele>
        <time>2024-11-17T12:47:33Z</time>
      </trkpt>
      <trkpt lat="48.18468" lon="6.78253">
        <ele>453.3</ele>
        <time>2024-11-17T12:47:41Z</time>
      </trkpt>
      <trkpt lat="48.18474" lon="6.78265">
        <ele>453.1</ele>
        <time>2024-11-17T12:47:49Z</time>
      </trkpt>
      <trkpt lat="48.18473" lon="6.78266">
        <ele>453.2</ele>
        <time>2024-11-17T12:47:57Z</time>
      </trkpt>
      <trkpt lat="48.18473" lon="6.78266">
        <ele>453.2</ele>
        <time>2024-11-17T12:47:58Z</time>
      </trkpt>
      <trkpt lat="48.18473" lon="6.78266">
        <ele>453.2</ele>
        <time>2024-11-17T12:47:59Z</time>
      </trkpt>
      <trkpt lat="48.18475" lon="6.78265">
        <ele>453.4</ele>
        <time>2024-11-17T12:48:27Z</time>
      </trkpt>
      <trkpt lat="48.18477" lon="6.78266">
        <ele>453.5</ele>
        <time>2024-11-17T12:48:28Z</time>
      </trkpt>
      <trkpt lat="48.18478" lon="6.78267">
        <ele>453.6</ele>
        <time>2024-11-17T12:48:29Z</time>
      </trkpt>
      <trkpt lat="48.18486" lon="6.78275">
        <ele>454.4</ele>
        <time>2024-11-17T12:48:37Z</time>
      </trkpt>
      <trkpt lat="48.18492" lon="6.78286">
        <ele>454.9</ele>
        <time>2024-11-17T12:48:46Z</time>
      </trkpt>
      <trkpt lat="48.18497" lon="6.78299">
        <ele>454.9</ele>
        <time>2024-11-17T12:48:54Z</time>
      </trkpt>
      <trkpt lat="48.18498" lon="6.78314">
        <ele>454.8</ele>
        <time>2024-11-17T12:49:03Z</time>
      </trkpt>
      <trkpt lat="48.18502" lon="6.78328">
        <ele>454.8</ele>
        <time>2024-11-17T12:49:12Z</time>
      </trkpt>
      <trkpt lat="48.18504" lon="6.78342">
        <ele>454.8</ele>
        <time>2024-11-17T12:49:21Z</time>
      </trkpt>
      <trkpt lat="48.18505" lon="6.78356">
        <ele>455</ele>
        <time>2024-11-17T12:49:28Z</time>
      </trkpt>
      <trkpt lat="48.18507" lon="6.7837">
        <ele>455.2</ele>
        <time>2024-11-17T12:49:36Z</time>
      </trkpt>
      <trkpt lat="48.18508" lon="6.78384">
        <ele>455.6</ele>
        <time>2024-11-17T12:49:44Z</time>
      </trkpt>
      <trkpt lat="48.18511" lon="6.78399">
        <ele>456</ele>
        <time>2024-11-17T12:49:52Z</time>
      </trkpt>
      <trkpt lat="48.18514" lon="6.78412">
        <ele>456.5</ele>
        <time>2024-11-17T12:49:59Z</time>
      </trkpt>
      <trkpt lat="48.18516" lon="6.78426">
        <ele>457.2</ele>
        <time>2024-11-17T12:50:08Z</time>
      </trkpt>
      <trkpt lat="48.18514" lon="6.78441">
        <ele>457.9</ele>
        <time>2024-11-17T12:50:15Z</time>
      </trkpt>
      <trkpt lat="48.18513" lon="6.78456">
        <ele>458.6</ele>
        <time>2024-11-17T12:50:24Z</time>
      </trkpt>
      <trkpt lat="48.18513" lon="6.7847">
        <ele>459.2</ele>
        <time>2024-11-17T12:50:32Z</time>
      </trkpt>
      <trkpt lat="48.18515" lon="6.78483">
        <ele>459.9</ele>
        <time>2024-11-17T12:50:38Z</time>
      </trkpt>
      <trkpt lat="48.18514" lon="6.78497">
        <ele>460.5</ele>
        <time>2024-11-17T12:50:46Z</time>
      </trkpt>
      <trkpt lat="48.1851" lon="6.78511">
        <ele>461.3</ele>
        <time>2024-11-17T12:50:55Z</time>
      </trkpt>
      <trkpt lat="48.18508" lon="6.78525">
        <ele>462</ele>
        <time>2024-11-17T12:51:03Z</time>
      </trkpt>
      <trkpt lat="48.18506" lon="6.78539">
        <ele>462.6</ele>
        <time>2024-11-17T12:51:11Z</time>
      </trkpt>
      <trkpt lat="48.18502" lon="6.78553">
        <ele>463.2</ele>
        <time>2024-11-17T12:51:20Z</time>
      </trkpt>
      <trkpt lat="48.185" lon="6.78566">
        <ele>463.6</ele>
        <time>2024-11-17T12:51:27Z</time>
      </trkpt>
      <trkpt lat="48.18491" lon="6.78563">
        <ele>463.4</ele>
        <time>2024-11-17T12:51:38Z</time>
      </trkpt>
      <trkpt lat="48.18482" lon="6.78557">
        <ele>463.2</ele>
        <time>2024-11-17T12:51:47Z</time>
      </trkpt>
      <trkpt lat="48.18475" lon="6.78548">
        <ele>463</ele>
        <time>2024-11-17T12:51:56Z</time>
      </trkpt>
      <trkpt lat="48.18467" lon="6.78541">
        <ele>462.8</ele>
        <time>2024-11-17T12:52:05Z</time>
      </trkpt>
      <trkpt lat="48.1846" lon="6.78552">
        <ele>462.6</ele>
        <time>2024-11-17T12:52:12Z</time>
      </trkpt>
      <trkpt lat="48.18452" lon="6.78561">
        <ele>462.5</ele>
        <time>2024-11-17T12:52:18Z</time>
      </trkpt>
      <trkpt lat="48.18444" lon="6.78568">
        <ele>462.4</ele>
        <time>2024-11-17T12:52:27Z</time>
      </trkpt>
      <trkpt lat="48.18435" lon="6.78567">
        <ele>462.4</ele>
        <time>2024-11-17T12:52:39Z</time>
      </trkpt>
      <trkpt lat="48.18444" lon="6.7857">
        <ele>462.5</ele>
        <time>2024-11-17T12:53:03Z</time>
      </trkpt>
      <trkpt lat="48.18445" lon="6.78571">
        <ele>462.5</ele>
        <time>2024-11-17T12:53:07Z</time>
      </trkpt>
      <trkpt lat="48.18445" lon="6.78571">
        <ele>462.5</ele>
        <time>2024-11-17T12:53:08Z</time>
      </trkpt>
      <trkpt lat="48.18446" lon="6.78571">
        <ele>462.5</ele>
        <time>2024-11-17T12:53:14Z</time>
      </trkpt>
      <trkpt lat="48.18447" lon="6.78571">
        <ele>462.5</ele>
        <time>2024-11-17T12:53:15Z</time>
      </trkpt>
      <trkpt lat="48.18448" lon="6.7857">
        <ele>462.5</ele>
        <time>2024-11-17T12:53:16Z</time>
      </trkpt>
      <trkpt lat="48.18457" lon="6.7857">
        <ele>462.5</ele>
        <time>2024-11-17T12:53:26Z</time>
      </trkpt>
      <trkpt lat="48.18467" lon="6.78575">
        <ele>462.4</ele>
        <time>2024-11-17T12:53:37Z</time>
      </trkpt>
      <trkpt lat="48.18462" lon="6.78563">
        <ele>462.5</ele>
        <time>2024-11-17T12:53:49Z</time>
      </trkpt>
      <trkpt lat="48.18472" lon="6.78561">
        <ele>462.7</ele>
        <time>2024-11-17T12:54:04Z</time>
      </trkpt>
      <trkpt lat="48.18481" lon="6.78563">
        <ele>463.1</ele>
        <time>2024-11-17T12:54:13Z</time>
      </trkpt>
      <trkpt lat="48.18489" lon="6.78571">
        <ele>463.4</ele>
        <time>2024-11-17T12:54:21Z</time>
      </trkpt>
      <trkpt lat="48.18495" lon="6.78581">
        <ele>463.7</ele>
        <time>2024-11-17T12:54:29Z</time>
      </trkpt>
      <trkpt lat="48.18496" lon="6.78595">
        <ele>463.9</ele>
        <time>2024-11-17T12:54:36Z</time>
      </trkpt>
      <trkpt lat="48.18494" lon="6.78609">
        <ele>463.9</ele>
        <time>2024-11-17T12:54:44Z</time>
      </trkpt>
      <trkpt lat="48.18492" lon="6.7862">
        <ele>463.9</ele>
        <time>2024-11-17T12:54:55Z</time>
      </trkpt>
      <trkpt lat="48.18492" lon="6.7862">
        <ele>463.9</ele>
        <time>2024-11-17T12:54:56Z</time>
      </trkpt>
      <trkpt lat="48.18492" lon="6.7862">
        <ele>463.9</ele>
        <time>2024-11-17T12:54:57Z</time>
      </trkpt>
      <trkpt lat="48.18492" lon="6.78622">
        <ele>463.9</ele>
        <time>2024-11-17T12:55:08Z</time>
      </trkpt>
      <trkpt lat="48.18492" lon="6.78623">
        <ele>463.9</ele>
        <time>2024-11-17T12:55:09Z</time>
      </trkpt>
      <trkpt lat="48.18488" lon="6.78637">
        <ele>463.9</ele>
        <time>2024-11-17T12:55:18Z</time>
      </trkpt>
      <trkpt lat="48.18485" lon="6.78651">
        <ele>464</ele>
        <time>2024-11-17T12:55:28Z</time>
      </trkpt>
      <trkpt lat="48.18492" lon="6.78662">
        <ele>463.9</ele>
        <time>2024-11-17T12:55:38Z</time>
      </trkpt>
      <trkpt lat="48.18494" lon="6.78675">
        <ele>463.8</ele>
        <time>2024-11-17T12:55:46Z</time>
      </trkpt>
      <trkpt lat="48.18497" lon="6.78688">
        <ele>463.9</ele>
        <time>2024-11-17T12:55:55Z</time>
      </trkpt>
      <trkpt lat="48.18502" lon="6.78701">
        <ele>463.9</ele>
        <time>2024-11-17T12:56:04Z</time>
      </trkpt>
      <trkpt lat="48.18512" lon="6.78701">
        <ele>463.5</ele>
        <time>2024-11-17T12:56:13Z</time>
      </trkpt>
      <trkpt lat="48.18521" lon="6.78696">
        <ele>463.3</ele>
        <time>2024-11-17T12:56:22Z</time>
      </trkpt>
      <trkpt lat="48.1853" lon="6.78691">
        <ele>463.1</ele>
        <time>2024-11-17T12:56:31Z</time>
      </trkpt>
      <trkpt lat="48.1854" lon="6.78686">
        <ele>462.9</ele>
        <time>2024-11-17T12:56:40Z</time>
      </trkpt>
      <trkpt lat="48.1855" lon="6.78682">
        <ele>462.7</ele>
        <time>2024-11-17T12:56:49Z</time>
      </trkpt>
      <trkpt lat="48.18559" lon="6.7868">
        <ele>462.6</ele>
        <time>2024-11-17T12:56:57Z</time>
      </trkpt>
      <trkpt lat="48.18568" lon="6.78678">
        <ele>462.5</ele>
        <time>2024-11-17T12:57:05Z</time>
      </trkpt>
      <trkpt lat="48.18577" lon="6.78676">
        <ele>462.4</ele>
        <time>2024-11-17T12:57:14Z</time>
      </trkpt>
      <trkpt lat="48.18586" lon="6.78675">
        <ele>462.3</ele>
        <time>2024-11-17T12:57:23Z</time>
      </trkpt>
      <trkpt lat="48.18595" lon="6.78674">
        <ele>462.2</ele>
        <time>2024-11-17T12:57:32Z</time>
      </trkpt>
      <trkpt lat="48.18604" lon="6.78677">
        <ele>462.1</ele>
        <time>2024-11-17T12:57:39Z</time>
      </trkpt>
      <trkpt lat="48.18614" lon="6.78677">
        <ele>462</ele>
        <time>2024-11-17T12:57:47Z</time>
      </trkpt>
      <trkpt lat="48.18623" lon="6.78677">
        <ele>461.9</ele>
        <time>2024-11-17T12:57:56Z</time>
      </trkpt>
      <trkpt lat="48.18632" lon="6.78675">
        <ele>461.8</ele>
        <time>2024-11-17T12:58:04Z</time>
      </trkpt>
      <trkpt lat="48.18641" lon="6.78672">
        <ele>461.8</ele>
        <time>2024-11-17T12:58:12Z</time>
      </trkpt>
      <trkpt lat="48.1865" lon="6.78668">
        <ele>461.8</ele>
        <time>2024-11-17T12:58:20Z</time>
      </trkpt>
      <trkpt lat="48.18659" lon="6.78665">
        <ele>461.9</ele>
        <time>2024-11-17T12:58:29Z</time>
      </trkpt>
      <trkpt lat="48.18669" lon="6.78661">
        <ele>462</ele>
        <time>2024-11-17T12:58:38Z</time>
      </trkpt>
      <trkpt lat="48.18678" lon="6.78658">
        <ele>461.9</ele>
        <time>2024-11-17T12:58:47Z</time>
      </trkpt>
      <trkpt lat="48.18687" lon="6.78652">
        <ele>461.5</ele>
        <time>2024-11-17T12:58:56Z</time>
      </trkpt>
      <trkpt lat="48.18696" lon="6.78645">
        <ele>460.8</ele>
        <time>2024-11-17T12:59:05Z</time>
      </trkpt>
      <trkpt lat="48.18703" lon="6.78636">
        <ele>460.2</ele>
        <time>2024-11-17T12:59:14Z</time>
      </trkpt>
      <trkpt lat="48.1871" lon="6.78626">
        <ele>459.4</ele>
        <time>2024-11-17T12:59:23Z</time>
      </trkpt>
      <trkpt lat="48.18717" lon="6.78616">
        <ele>458.7</ele>
        <time>2024-11-17T12:59:32Z</time>
      </trkpt>
      <trkpt lat="48.18724" lon="6.78606">
        <ele>457.9</ele>
        <time>2024-11-17T12:59:41Z</time>
      </trkpt>
      <trkpt lat="48.18731" lon="6.78597">
        <ele>457.2</ele>
        <time>2024-11-17T12:59:49Z</time>
      </trkpt>
      <trkpt lat="48.18738" lon="6.78588">
        <ele>456.3</ele>
        <time>2024-11-17T12:59:57Z</time>
      </trkpt>
      <trkpt lat="48.18745" lon="6.78579">
        <ele>455.5</ele>
        <time>2024-11-17T13:00:05Z</time>
      </trkpt>
      <trkpt lat="48.18752" lon="6.78569">
        <ele>454.7</ele>
        <time>2024-11-17T13:00:14Z</time>
      </trkpt>
      <trkpt lat="48.18759" lon="6.78558">
        <ele>453.8</ele>
        <time>2024-11-17T13:00:23Z</time>
      </trkpt>
      <trkpt lat="48.18766" lon="6.78549">
        <ele>453.1</ele>
        <time>2024-11-17T13:00:31Z</time>
      </trkpt>
      <trkpt lat="48.18773" lon="6.7854">
        <ele>452.3</ele>
        <time>2024-11-17T13:00:40Z</time>
      </trkpt>
      <trkpt lat="48.18781" lon="6.7853">
        <ele>451.7</ele>
        <time>2024-11-17T13:00:49Z</time>
      </trkpt>
      <trkpt lat="48.18788" lon="6.78521">
        <ele>451.2</ele>
        <time>2024-11-17T13:00:57Z</time>
      </trkpt>
      <trkpt lat="48.18795" lon="6.78511">
        <ele>450.8</ele>
        <time>2024-11-17T13:01:04Z</time>
      </trkpt>
      <trkpt lat="48.18802" lon="6.78501">
        <ele>450.5</ele>
        <time>2024-11-17T13:01:12Z</time>
      </trkpt>
      <trkpt lat="48.18809" lon="6.78491">
        <ele>450.3</ele>
        <time>2024-11-17T13:01:21Z</time>
      </trkpt>
      <trkpt lat="48.18816" lon="6.78481">
        <ele>450</ele>
        <time>2024-11-17T13:01:30Z</time>
      </trkpt>
      <trkpt lat="48.18824" lon="6.78472">
        <ele>449.9</ele>
        <time>2024-11-17T13:01:38Z</time>
      </trkpt>
      <trkpt lat="48.18831" lon="6.78463">
        <ele>449.8</ele>
        <time>2024-11-17T13:01:46Z</time>
      </trkpt>
      <trkpt lat="48.18837" lon="6.78452">
        <ele>449.9</ele>
        <time>2024-11-17T13:01:55Z</time>
      </trkpt>
      <trkpt lat="48.18844" lon="6.78441">
        <ele>450</ele>
        <time>2024-11-17T13:02:04Z</time>
      </trkpt>
      <trkpt lat="48.18851" lon="6.78432">
        <ele>450.2</ele>
        <time>2024-11-17T13:02:12Z</time>
      </trkpt>
      <trkpt lat="48.18857" lon="6.78421">
        <ele>450.3</ele>
        <time>2024-11-17T13:02:20Z</time>
      </trkpt>
      <trkpt lat="48.18863" lon="6.78411">
        <ele>450.3</ele>
        <time>2024-11-17T13:02:28Z</time>
      </trkpt>
      <trkpt lat="48.18872" lon="6.78402">
        <ele>450.1</ele>
        <time>2024-11-17T13:02:37Z</time>
      </trkpt>
      <trkpt lat="48.18878" lon="6.78391">
        <ele>450</ele>
        <time>2024-11-17T13:02:46Z</time>
      </trkpt>
      <trkpt lat="48.18883" lon="6.78378">
        <ele>450</ele>
        <time>2024-11-17T13:02:55Z</time>
      </trkpt>
      <trkpt lat="48.18889" lon="6.78368">
        <ele>449.9</ele>
        <time>2024-11-17T13:03:03Z</time>
      </trkpt>
      <trkpt lat="48.18898" lon="6.78363">
        <ele>449.8</ele>
        <time>2024-11-17T13:03:11Z</time>
      </trkpt>
      <trkpt lat="48.18907" lon="6.78365">
        <ele>449.7</ele>
        <time>2024-11-17T13:03:19Z</time>
      </trkpt>
      <trkpt lat="48.18917" lon="6.78368">
        <ele>449.7</ele>
        <time>2024-11-17T13:03:27Z</time>
      </trkpt>
      <trkpt lat="48.18925" lon="6.78374">
        <ele>449.7</ele>
        <time>2024-11-17T13:03:35Z</time>
      </trkpt>
      <trkpt lat="48.18933" lon="6.7838">
        <ele>449.7</ele>
        <time>2024-11-17T13:03:44Z</time>
      </trkpt>
      <trkpt lat="48.18942" lon="6.78387">
        <ele>449.6</ele>
        <time>2024-11-17T13:03:54Z</time>
      </trkpt>
      <trkpt lat="48.1895" lon="6.78395">
        <ele>449.6</ele>
        <time>2024-11-17T13:04:03Z</time>
      </trkpt>
      <trkpt lat="48.18957" lon="6.78405">
        <ele>449.5</ele>
        <time>2024-11-17T13:04:13Z</time>
      </trkpt>
      <trkpt lat="48.18965" lon="6.78413">
        <ele>449.4</ele>
        <time>2024-11-17T13:04:20Z</time>
      </trkpt>
      <trkpt lat="48.18973" lon="6.78422">
        <ele>449.3</ele>
        <time>2024-11-17T13:04:28Z</time>
      </trkpt>
      <trkpt lat="48.18982" lon="6.78429">
        <ele>449.2</ele>
        <time>2024-11-17T13:04:36Z</time>
      </trkpt>
      <trkpt lat="48.1899" lon="6.78437">
        <ele>449.1</ele>
        <time>2024-11-17T13:04:44Z</time>
      </trkpt>
      <trkpt lat="48.18998" lon="6.78445">
        <ele>449</ele>
        <time>2024-11-17T13:04:52Z</time>
      </trkpt>
      <trkpt lat="48.19012" lon="6.78455">
        <ele>448.9</ele>
        <time>2024-11-17T13:05:00Z</time>
      </trkpt>
      <trkpt lat="48.19017" lon="6.78457">
        <ele>448.8</ele>
        <time>2024-11-17T13:05:09Z</time>
      </trkpt>
      <trkpt lat="48.19023" lon="6.78459">
        <ele>448.7</ele>
        <time>2024-11-17T13:05:18Z</time>
      </trkpt>
      <trkpt lat="48.19029" lon="6.78462">
        <ele>448.7</ele>
        <time>2024-11-17T13:05:26Z</time>
      </trkpt>
      <trkpt lat="48.19034" lon="6.78464">
        <ele>448.6</ele>
        <time>2024-11-17T13:05:35Z</time>
      </trkpt>
      <trkpt lat="48.1904" lon="6.78466">
        <ele>448.5</ele>
        <time>2024-11-17T13:05:43Z</time>
      </trkpt>
      <trkpt lat="48.19046" lon="6.78469">
        <ele>448.5</ele>
        <time>2024-11-17T13:05:51Z</time>
      </trkpt>
      <trkpt lat="48.19051" lon="6.78471">
        <ele>448.4</ele>
        <time>2024-11-17T13:06:00Z</time>
      </trkpt>
      <trkpt lat="48.19057" lon="6.78473">
        <ele>448.4</ele>
        <time>2024-11-17T13:06:01Z</time>
      </trkpt>
      <trkpt lat="48.19063" lon="6.78476">
        <ele>447.9</ele>
        <time>2024-11-17T13:06:01Z</time>
      </trkpt>
      <trkpt lat="48.19063" lon="6.78476">
        <ele>447.9</ele>
        <time>2024-11-17T13:06:01Z</time>
      </trkpt>
    </trkseg>
  </trk>
</gpx>